[[{"header":{"parameterUnit":"m.s-1","parameterCategory":1,"la1":30.6,"la2":28.766,"lo1":-90.7593,"lo2":-88.6598,"dy":0.0162,"dx":0.0183,"nx":116,"ny":114,"refTime":"2023-08-26T00:00:00:Z","depth":0,"parameterNumber":2,"parameterNumberName":"U-component_of_WINDS"},"data":[0.0,0.0,0.0,0.0,0.0,0.0,0.0,0.0,0.0,0.0,0.0,0.0,0.0,0.0,0.0,0.0,0.0,0.0,0.0,0.0,0.0,0.0,0.0,0.0,0.0,0.0,0.0,0.0,0.0,0.0,0.0,0.0,0.0,0.0,0.0,0.0,0.0,0.0,0.0,0.0,0.0,0.0,0.0,0.0,0.0,0.0,0.0,0.0,0.0,0.0,0.0,0.0,0.0,0.0,0.0,0.0,0.0,0.0,0.0,0.0,0.0,0.0,0.0,0.0,0.0,0.0,0.0,0.0,0.0,0.0,0.0,0.0,0.0,0.0,0.0,0.0,0.0,0.0,0.0,0.0,0.0,0.0,0.0,0.0,0.0,0.0,0.0,0.0,0.0,0.0,0.0,0.0,0.0,0.0,0.0,0.0,0.0,0.0,0.0,0.0,0.0,0.0,0.0,0.0,0.0,0.0,0.0,0.0,0.0,0.0,0.0,0.0,0.0,0.0,0.0,0.0,0.0,0.0,0.0,0.0,0.0,0.0,0.0,0.0,0.0,0.0,0.0,0.0,0.0,0.0,0.0,0.0,0.0,0.0,0.0,0.0,0.0,0.0,0.0,0.0,0.0,0.0,0.0,0.0,0.0,0.0,0.0,0.0,0.0,0.0,0.0,0.0,0.0,0.0,0.0,0.0,0.0,0.0,0.0,0.0,0.0,0.0,0.0,0.0,0.0,0.0,0.0,0.0,0.0,0.0,0.0,0.0,0.0,0.0,0.0,0.0,0.0,0.0,0.0,0.0,0.0,0.0,0.0,0.0,0.0,0.0,0.0,0.0,0.0,0.0,0.0,0.0,0.0,0.0,0.0,0.0,0.0,0.0,0.0,0.0,0.0,0.0,0.0,0.0,0.0,0.0,0.0,0.0,0.0,0.0,0.0,0.0,0.0,0.0,0.0,0.0,0.0,0.0,0.0,0.0,0.0,0.0,0.0,0.0,0.0,0.0,0.0,0.0,0.0,0.0,0.0,0.0,0.0,0.0,0.0,0.0,0.0,0.0,0.0,0.0,0.0,0.0,0.0,0.0,0.0,0.0,0.0,0.0,0.0,0.0,0.0,0.0,0.0,0.0,0.0,0.0,0.0,0.0,0.0,0.0,0.0,0.0,0.0,0.0,0.0,0.0,0.0,0.0,0.0,0.0,0.0,0.0,0.0,0.0,0.0,0.0,0.0,0.0,0.0,0.0,0.0,0.0,0.0,0.0,0.0,0.0,0.0,0.0,0.0,0.0,0.0,0.0,0.0,0.0,0.0,0.0,0.0,0.0,0.0,0.0,0.0,0.0,0.0,0.0,0.0,0.0,0.0,0.0,0.0,0.0,0.0,0.0,0.0,0.0,0.0,0.0,0.0,0.0,0.0,0.0,0.0,0.0,0.0,0.0,0.0,0.0,0.0,0.0,0.0,0.0,0.0,0.0,0.0,0.0,0.0,0.0,0.0,0.0,0.0,0.0,0.0,0.0,0.0,0.0,0.0,0.0,0.0,0.0,0.0,0.0,0.0,0.0,0.0,0.0,0.0,0.0,0.0,0.0,0.0,0.0,0.0,0.0,0.0,0.0,0.0,0.0,0.0,0.0,0.0,0.0,0.0,0.0,0.0,0.0,0.0,0.0,0.0,0.0,0.0,0.0,0.0,0.0,0.0,0.0,0.0,0.0,0.0,0.0,0.0,0.0,0.0,0.0,0.0,0.0,0.0,0.0,0.0,0.0,0.0,0.0,0.0,0.0,0.0,0.0,0.0,0.0,0.0,0.0,0.0,0.0,0.0,0.0,0.0,0.0,0.0,0.0,0.0,0.0,0.0,0.0,0.0,0.0,0.0,0.0,0.0,0.0,0.0,0.0,0.0,0.0,0.0,0.0,0.0,0.0,0.0,0.0,0.0,0.0,0.0,0.0,0.0,0.0,0.0,0.0,0.0,0.0,0.0,0.0,0.0,0.0,0.0,0.0,0.0,0.0,0.0,0.0,0.0,0.0,0.0,0.0,0.0,0.0,0.0,0.0,0.0,0.0,0.0,0.0,0.0,0.0,0.0,0.0,0.0,0.0,0.0,0.0,0.0,0.0,0.0,0.0,0.0,0.0,0.0,0.0,0.0,0.0,0.0,0.0,0.0,0.0,0.0,0.0,0.0,0.0,0.0,0.0,0.0,0.0,0.0,0.0,0.0,0.0,0.0,0.0,0.0,0.0,0.0,0.0,0.0,0.0,0.0,0.0,0.0,0.0,0.0,0.0,0.0,0.0,0.0,0.0,0.0,0.0,0.0,0.0,0.0,0.0,0.0,0.0,0.0,0.0,0.0,0.0,0.0,0.0,0.0,0.0,0.0,0.0,0.0,0.0,0.0,0.0,0.0,0.0,0.0,0.0,0.0,0.0,0.0,0.0,0.0,0.0,0.0,0.0,0.0,0.0,0.0,0.0,0.0,0.0,0.0,0.0,0.0,0.0,0.0,0.0,0.0,0.0,0.0,0.0,0.0,0.0,0.0,0.0,0.0,0.0,0.0,0.0,0.0,0.0,0.0,0.0,0.0,0.0,0.0,0.0,0.0,0.0,0.0,0.0,0.0,0.0,0.0,0.0,0.0,0.0,0.0,0.0,0.0,0.0,0.0,0.0,0.0,0.0,0.0,0.0,0.0,0.0,0.0,0.0,0.0,0.0,0.0,0.0,0.0,0.0,0.0,0.0,0.0,0.0,0.0,0.0,0.0,0.0,0.0,0.0,0.0,0.0,0.0,0.0,0.0,0.0,0.0,0.0,0.0,0.0,0.0,0.0,0.0,0.0,0.0,0.0,0.0,0.0,0.0,0.0,0.0,0.0,0.0,0.0,0.0,0.0,0.0,0.0,0.0,0.0,0.0,0.0,0.0,0.0,0.0,0.0,0.0,0.0,0.0,0.0,0.0,0.0,0.0,0.0,0.0,0.0,0.0,0.0,0.0,0.0,0.0,0.0,0.0,0.0,0.0,0.0,0.0,0.0,0.0,0.0,0.0,0.0,0.0,0.0,0.0,0.0,0.0,0.0,0.0,0.0,0.0,0.0,0.0,0.0,0.0,0.0,0.0,0.0,0.0,0.0,0.0,0.0,0.0,0.0,0.0,0.0,0.0,0.0,0.0,0.0,0.0,0.0,0.0,0.0,0.0,0.0,0.0,0.0,0.0,0.0,0.0,0.0,0.0,0.0,0.0,0.0,0.0,0.0,0.0,0.0,0.0,0.0,0.0,0.0,0.0,0.0,0.0,0.0,0.0,0.0,0.0,0.0,0.0,0.0,0.0,0.0,0.0,0.0,0.0,0.0,0.0,0.0,0.0,0.0,0.0,0.0,0.0,0.0,0.0,0.0,0.0,0.0,0.0,0.0,0.0,0.0,0.0,0.0,0.0,0.0,0.0,0.0,0.0,0.0,0.0,0.0,0.0,0.0,0.0,0.0,0.0,0.0,0.0,0.0,0.0,0.0,0.0,0.0,0.0,0.0,0.0,0.0,0.0,0.0,0.0,0.0,0.0,0.0,0.0,0.0,0.0,0.0,0.0,0.0,0.0,0.0,0.0,0.0,0.0,0.0,0.0,0.0,0.0,0.0,0.0,0.0,0.0,0.0,0.0,0.0,0.0,0.0,0.0,0.0,0.0,0.0,0.0,0.0,0.0,0.0,0.0,0.0,0.0,0.0,0.0,0.0,0.0,0.0,0.0,0.0,0.0,0.0,0.0,0.0,0.0,0.0,0.0,0.0,0.0,0.0,0.0,0.0,0.0,0.0,0.0,0.0,0.0,0.0,0.0,0.0,0.0,0.0,0.0,0.0,0.0,0.0,0.0,0.0,0.0,0.0,0.0,0.0,0.0,0.0,0.0,0.0,0.0,0.0,0.0,0.0,0.0,0.0,0.0,0.0,0.0,0.0,0.0,0.0,0.0,0.0,0.0,0.0,0.0,0.0,0.0,0.0,0.0,0.0,0.0,0.0,0.0,0.0,0.0,0.0,0.0,0.0,0.0,0.0,0.0,0.0,0.0,0.0,0.0,0.0,0.0,0.0,0.0,0.0,0.0,0.0,0.0,0.0,0.0,0.0,0.0,0.0,0.0,0.0,0.0,0.0,0.0,0.0,0.0,0.0,0.0,0.0,0.0,0.0,0.0,0.0,0.0,0.0,0.0,0.0,0.0,0.0,0.0,0.0,0.0,0.0,0.0,0.0,0.0,0.0,0.0,0.0,0.0,0.0,0.0,0.0,0.0,0.0,0.0,0.0,0.0,0.0,0.0,0.0,0.0,0.0,0.0,0.0,0.0,0.0,0.0,0.0,0.0,0.0,0.0,0.0,0.0,0.0,0.0,0.0,0.0,0.0,0.0,0.0,0.0,0.0,0.0,0.0,0.0,0.0,0.0,0.0,0.0,0.0,0.0,0.0,0.0,0.0,0.0,0.0,0.0,0.0,0.0,0.0,0.0,0.0,0.0,0.0,0.0,0.0,0.0,0.0,0.0,0.0,0.0,0.0,0.0,0.0,0.0,0.0,0.0,0.0,0.0,0.0,0.0,0.0,0.0,0.0,0.0,0.0,0.0,0.0,0.0,0.0,0.0,0.0,0.0,0.0,0.0,0.0,0.0,0.0,0.0,0.0,0.0,0.0,0.0,0.0,0.0,0.0,0.0,0.0,0.0,0.0,0.0,0.0,0.0,0.0,0.0,0.0,0.0,0.0,0.0,0.0,0.0,0.0,0.0,0.0,0.0,0.0,0.0,0.0,0.0,0.0,0.0,0.0,0.0,0.0,0.0,0.0,0.0,0.0,0.0,0.0,0.0,0.0,0.0,0.0,0.0,0.0,0.0,0.0,0.0,0.0,0.0,0.0,0.0,0.0,0.0,0.0,0.0,0.0,0.0,0.0,0.0,0.0,0.0,0.0,0.0,0.0,0.0,0.0,0.0,0.0,0.0,0.0,0.0,0.0,0.0,0.0,0.0,0.0,0.0,0.0,0.0,0.0,0.0,0.0,0.0,0.0,0.0,0.0,0.0,0.0,0.0,0.0,0.0,0.0,0.0,0.0,0.0,0.0,0.0,0.0,0.0,0.0,0.0,0.0,0.0,0.0,0.0,0.0,0.0,0.0,0.0,0.0,0.0,0.0,0.0,0.0,0.0,0.0,0.0,0.0,0.0,0.0,0.0,0.0,0.0,0.0,0.0,0.0,0.0,0.0,0.0,0.0,0.0,0.0,0.0,0.0,0.0,0.0,0.0,0.0,0.0,0.0,0.0,0.0,0.0,0.0,0.0,0.0,0.0,0.0,0.0,0.0,0.0,0.0,0.0,0.0,0.0,0.0,0.0,0.0,0.0,0.0,0.0,0.0,0.0,0.0,0.0,0.0,0.0,0.0,0.0,0.0,0.0,0.0,0.0,0.0,0.0,0.0,0.0,0.0,0.0,0.0,0.0,0.0,0.0,0.0,0.0,0.0,0.0,0.0,0.0,0.0,0.0,0.0,0.0,0.0,0.0,0.0,0.0,0.0,0.0,0.0,0.0,0.0,0.0,0.0,0.0,0.0,0.0,0.0,0.0,0.0,0.0,0.0,0.0,0.0,0.0,0.0,0.0,0.0,0.0,0.0,0.0,0.0,0.0,0.0,0.0,0.0,0.0,0.0,0.0,0.0,0.0,0.0,0.0,0.0,0.0,0.0,0.0,0.0,0.0,0.0,0.0,0.0,0.0,0.0,0.0,0.0,0.0,0.0,0.0,0.0,0.0,0.0,0.0,0.0,0.0,0.0,0.0,0.0,0.0,0.0,0.0,0.0,0.0,0.0,0.0,0.0,0.0,0.0,0.0,0.0,0.0,0.0,0.0,0.0,0.0,0.0,0.0,0.0,0.0,0.0,0.0,0.0,0.0,0.0,0.0,0.0,0.0,0.0,0.0,0.0,0.0,0.0,0.0,0.0,0.0,0.0,0.0,0.0,0.0,0.0,0.0,0.0,0.0,0.0,0.0,0.0,0.0,0.0,0.0,0.0,0.0,0.0,0.0,0.0,0.0,0.0,0.0,0.0,0.0,0.0,0.0,0.0,0.0,0.0,-3.7855,0.0,0.0,0.0,0.0,0.0,0.0,0.0,0.0,0.0,0.0,0.0,0.0,0.0,0.0,0.0,0.0,0.0,0.0,0.0,0.0,0.0,0.0,0.0,0.0,0.0,0.0,0.0,0.0,0.0,0.0,0.0,0.0,0.0,0.0,0.0,0.0,0.0,0.0,-1.9835,-1.9835,-1.9559,-1.8997,-1.8997,-1.9313,-1.9835,0.0,0.0,0.0,0.0,0.0,0.0,0.0,0.0,0.0,0.0,0.0,0.0,0.0,0.0,0.0,0.0,0.0,0.0,0.0,0.0,0.0,0.0,0.0,0.0,0.0,0.0,0.0,0.0,0.0,0.0,0.0,0.0,0.0,0.0,0.0,0.0,0.0,0.0,0.0,0.0,0.0,0.0,0.0,0.0,0.0,0.0,0.0,0.0,0.0,0.0,0.0,0.0,0.0,0.0,0.0,0.0,0.0,0.0,0.0,0.0,0.0,0.0,0.0,0.0,0.0,0.0,0.0,0.0,0.0,0.0,0.0,-3.843,0.0,0.0,0.0,0.0,0.0,0.0,0.0,0.0,0.0,0.0,0.0,0.0,0.0,0.0,0.0,0.0,0.0,0.0,0.0,0.0,0.0,0.0,0.0,-1.9067,-1.9756,-1.9076,-1.9471,-1.9835,0.0,0.0,0.0,0.0,0.0,0.0,-2.0323,-2.0323,-1.9883,-1.8997,-1.859,-1.843,-1.839,-1.7455,-1.7536,-1.847,-1.955,0.0,0.0,0.0,0.0,0.0,0.0,0.0,0.0,0.0,0.0,0.0,0.0,0.0,0.0,0.0,0.0,0.0,0.0,0.0,0.0,0.0,0.0,0.0,0.0,0.0,0.0,0.0,0.0,0.0,0.0,0.0,0.0,0.0,0.0,0.0,0.0,0.0,0.0,0.0,0.0,0.0,0.0,0.0,0.0,0.0,0.0,0.0,0.0,0.0,0.0,0.0,0.0,0.0,0.0,0.0,0.0,0.0,0.0,0.0,0.0,0.0,0.0,0.0,-3.7129,-3.7255,-3.7273,-3.7806,-3.8048,-3.8065,-3.8496,-3.8707,-3.8707,-3.8707,0.0,0.0,0.0,0.0,0.0,0.0,0.0,0.0,0.0,0.0,0.0,0.0,0.0,0.0,0.0,0.0,0.0,0.0,0.0,0.0,0.0,-1.8141,-1.8069,-1.8917,-1.7366,-1.6756,-1.7658,0.0,0.0,0.0,0.0,0.0,-1.9195,-1.9195,-1.9155,-1.8997,-1.7082,-1.615,-1.6142,-1.5985,-1.5985,-1.6191,-1.7253,-1.7738,-1.7779,0.0,0.0,0.0,0.0,0.0,0.0,0.0,0.0,0.0,0.0,0.0,0.0,0.0,0.0,0.0,0.0,0.0,0.0,0.0,0.0,0.0,0.0,0.0,0.0,0.0,0.0,0.0,0.0,0.0,0.0,0.0,0.0,0.0,0.0,0.0,0.0,0.0,0.0,0.0,0.0,0.0,-3.2465,-3.2465,0.0,0.0,0.0,0.0,0.0,0.0,0.0,0.0,0.0,0.0,0.0,0.0,0.0,-3.4202,-3.4263,-3.5173,-3.5656,-3.574,-3.6885,-3.7454,-3.7491,-3.8251,-3.8578,-3.8611,-3.8658,0.0,-3.8707,-3.8707,0.0,0.0,0.0,0.0,0.0,0.0,0.0,0.0,0.0,0.0,0.0,0.0,0.0,0.0,0.0,0.0,0.0,0.0,0.0,0.0,0.0,-1.6895,-1.7253,-1.7163,-1.6797,-1.6805,-1.7253,-1.7455,0.0,0.0,0.0,-1.9599,-1.8997,-1.8997,-1.839,-1.7163,-1.5587,-1.5095,-1.5703,-1.5095,-1.5137,-1.5696,-1.5545,-1.6527,-1.827,-1.8109,0.0,0.0,0.0,0.0,0.0,0.0,0.0,0.0,0.0,0.0,0.0,0.0,0.0,0.0,0.0,0.0,0.0,0.0,0.0,0.0,0.0,0.0,0.0,0.0,0.0,0.0,0.0,0.0,0.0,0.0,0.0,0.0,0.0,0.0,0.0,0.0,0.0,0.0,0.0,-3.1768,-3.1979,-3.1979,-3.2516,-3.2872,0.0,0.0,0.0,0.0,0.0,0.0,0.0,0.0,0.0,-3.3241,-3.3404,-3.381,-3.4492,-3.5165,-3.5643,-3.5964,-3.6542,-3.6831,-3.6835,-3.7658,-3.8028,-3.8046,-3.8505,-3.8707,-3.8707,-3.8707,-3.8707,-3.8707,0.0,0.0,0.0,0.0,-3.9564,-3.9922,0.0,0.0,0.0,0.0,0.0,0.0,0.0,0.0,0.0,0.0,0.0,0.0,-1.4573,-1.5677,-1.6281,-1.5737,-1.6198,-1.6486,-1.6486,-1.7302,-1.7747,-1.7747,-1.878,-1.8988,-1.8181,-1.8141,-1.7212,-1.5296,-1.4489,-1.4496,-1.5255,-1.4447,-1.4531,-1.5255,-1.4454,-1.547,-1.7706,-1.7131,-1.7851,-1.9344,0.0,0.0,0.0,0.0,0.0,0.0,0.0,0.0,0.0,0.0,0.0,0.0,0.0,0.0,0.0,0.0,0.0,0.0,0.0,0.0,0.0,0.0,0.0,0.0,0.0,0.0,0.0,0.0,0.0,0.0,0.0,0.0,0.0,0.0,0.0,0.0,0.0,-3.1668,-3.1853,-3.202,-3.2201,-3.2491,0.0,0.0,0.0,0.0,0.0,0.0,-3.2327,-3.1616,-3.1549,-3.2276,-3.2565,-3.3205,-3.4322,-3.4928,-3.5509,-3.6087,-3.6241,-3.6303,-3.6321,-3.6923,-3.7199,-3.7235,-3.7826,-3.8193,-3.8414,-3.8615,-3.8707,-3.8707,-3.8707,-3.8815,-3.9027,-3.9178,-3.9534,-4.0002,0.0,0.0,0.0,0.0,0.0,0.0,0.0,0.0,0.0,0.0,0.0,-1.4531,-1.5496,-1.4817,-1.4657,-1.5621,-1.4817,-1.425,-1.425,-1.4292,-1.4334,-1.4334,-1.5379,-1.5902,-1.5861,-1.5861,-1.5296,-1.4166,-1.413,-1.413,-1.4166,-1.413,-1.413,-1.4166,-1.413,-1.4173,-1.4412,-1.5379,-1.5861,-1.6142,-1.8181,0.0,0.0,0.0,0.0,0.0,0.0,0.0,0.0,0.0,0.0,0.0,0.0,0.0,0.0,0.0,0.0,0.0,0.0,0.0,0.0,0.0,0.0,0.0,0.0,0.0,0.0,0.0,0.0,0.0,0.0,0.0,0.0,0.0,0.0,0.0,0.0,0.0,0.0,-3.3401,-3.4062,0.0,0.0,0.0,0.0,-3.2462,-3.2361,-3.2344,-3.2293,-3.1616,-3.1549,-3.2276,-3.1996,-3.2258,-3.3092,-3.3993,-3.4824,-3.5548,-3.6057,-3.6303,-3.6303,-3.634,-3.6358,-3.6358,-3.6395,-3.6835,-3.7621,-3.8377,-3.8707,-3.8707,-3.8707,-3.8723,-3.8792,-3.9364,-3.9599,-3.9712,0.0,0.0,0.0,0.0,0.0,0.0,0.0,0.0,-1.4088,-1.4088,-1.4088,-1.425,-1.4615,-1.4334,-1.425,-1.4657,-1.4328,-1.4088,-1.4088,-1.4734,-1.5137,-1.5137,-1.6157,-1.6396,-1.5737,-1.5019,-1.4489,-1.4088,-1.4088,-1.4088,-1.4088,-1.4088,-1.4088,-1.4088,-1.4088,-1.4088,-1.4166,-1.5255,-1.6511,-1.7819,-1.7859,-1.8749,0.0,0.0,0.0,0.0,0.0,0.0,0.0,0.0,0.0,0.0,0.0,0.0,0.0,0.0,0.0,0.0,0.0,0.0,0.0,0.0,0.0,0.0,0.0,0.0,0.0,0.0,0.0,0.0,0.0,0.0,0.0,0.0,0.0,0.0,0.0,0.0,0.0,-3.3521,-3.3811,0.0,-3.3858,-3.4276,-3.4119,-3.3098,-3.3,-3.3,-3.3,-3.2327,-3.2259,-3.2983,-3.3476,-3.3863,-3.4162,-3.5133,-3.575,-3.6009,-3.6208,-3.6303,-3.6321,-3.685,-3.707,-3.707,-3.707,-3.7235,-3.7474,-3.7239,-3.7771,-3.8707,-3.8707,-3.8803,-3.8999,-3.9445,-3.9742,-3.9973,0.0,0.0,0.0,0.0,0.0,0.0,0.0,0.0,-1.4088,-1.4088,-1.4088,-1.4088,-1.4088,-1.4088,-1.4088,-1.4088,-1.4088,-1.4088,-1.4088,-1.4776,-1.5179,-1.5179,-1.5835,-1.5876,-1.5179,-1.4454,-1.4088,-1.4088,-1.4088,-1.4088,-1.4088,-1.4088,-1.4088,-1.4088,-1.4088,-1.4088,-1.4166,-1.5255,-1.6355,-1.7293,-1.6927,-1.7859,-1.9432,0.0,0.0,0.0,0.0,0.0,0.0,0.0,0.0,0.0,0.0,0.0,0.0,0.0,0.0,0.0,0.0,0.0,0.0,0.0,0.0,0.0,0.0,0.0,0.0,0.0,0.0,0.0,0.0,0.0,0.0,0.0,0.0,0.0,0.0,-3.2586,-3.2933,-3.3836,-3.3937,-3.4007,-3.4184,-3.4635,-3.462,-3.3842,-3.3778,-3.366,-3.3423,-3.2933,-3.2899,-3.3389,-3.4189,-3.4726,-3.4972,-3.5979,-3.6587,-3.6845,-3.6758,-3.6703,-3.6707,-3.6978,-3.7107,-3.7107,-3.7107,-3.7254,-3.7437,-3.6615,-3.7092,-3.8303,-3.8303,-3.8394,-3.8641,-3.9208,-3.9645,-4.0002,0.0,0.0,0.0,0.0,0.0,0.0,0.0,-1.3895,-1.4088,-1.4088,-1.4088,-1.4088,-1.4088,-1.4088,-1.4088,-1.4088,-1.4088,-1.4088,-1.4088,-1.4088,-1.4088,-1.4088,-1.4088,-1.4088,-1.4088,-1.4088,-1.4088,-1.4088,-1.4088,-1.4088,-1.4088,-1.4088,-1.4088,-1.4088,-1.4088,-1.413,-1.4208,-1.5255,-1.5137,-1.4292,-1.5338,-1.6396,-1.7464,0.0,0.0,0.0,0.0,0.0,0.0,0.0,0.0,0.0,0.0,0.0,0.0,0.0,0.0,0.0,0.0,0.0,0.0,0.0,0.0,0.0,0.0,0.0,0.0,0.0,0.0,0.0,0.0,0.0,0.0,0.0,0.0,0.0,-3.2614,-3.2641,-3.3145,-3.4479,-3.4624,-3.4894,-3.5554,-3.56,-3.5278,-3.4556,-3.4489,-3.4184,-3.3474,-3.344,-3.3457,-3.3474,-3.3977,-3.4619,-3.5327,-3.6328,-3.7187,-3.7893,-3.7661,-3.7547,-3.7511,-3.6725,-3.6376,-3.6376,-3.634,-3.6795,-3.7437,-3.6615,-3.6725,-3.7419,-3.7456,-3.7456,-3.7603,-3.8655,-3.9271,-3.9675,0.0,0.0,0.0,0.0,0.0,0.0,-1.356,-1.3895,-1.4088,-1.4088,-1.4088,-1.4088,-1.4088,-1.4088,-1.4088,-1.4088,-1.4088,-1.4088,-1.4088,-1.4088,-1.4088,-1.4088,-1.4088,-1.4088,-1.4088,-1.4088,-1.4088,-1.4088,-1.4088,-1.4088,-1.4088,-1.4088,-1.4088,-1.4088,-1.4088,-1.4531,-1.5296,-1.5579,-1.5992,-1.6445,-1.6723,-1.7536,-1.855,0.0,0.0,0.0,0.0,0.0,0.0,0.0,0.0,0.0,0.0,0.0,0.0,0.0,0.0,0.0,0.0,0.0,0.0,0.0,0.0,0.0,0.0,0.0,0.0,0.0,0.0,0.0,0.0,0.0,0.0,0.0,-3.212,-3.2776,-3.3261,-3.3735,-3.4374,-3.523,-3.5339,-3.5385,-3.5577,-3.56,-3.5278,-3.4556,-3.4489,-3.4404,-3.4201,-3.4201,-3.4438,-3.4974,-3.5521,-3.5896,-3.6104,-3.7112,-3.7712,-3.7893,-3.8211,-3.8377,-3.8358,-3.8138,-3.8046,-3.801,-3.7422,-3.7309,-3.7437,-3.6615,-3.6064,-3.5738,-3.6376,-3.6735,-3.6976,-3.7471,-3.8388,-3.9404,0.0,0.0,0.0,0.0,0.0,0.0,-1.374,-1.3975,-1.4088,-1.4088,-1.4088,-1.4088,-1.4088,-1.4088,-1.4088,-1.4088,-1.4088,-1.4088,-1.4088,-1.4088,-1.4088,-1.4088,-1.4088,-1.4088,-1.4088,-1.4088,-1.4088,-1.4088,-1.4088,-1.4088,-1.4088,-1.4088,-1.4088,-1.4088,-1.4088,-1.4454,-1.5054,-1.5496,-1.6067,-1.6723,-1.7658,-1.839,-1.8997,-1.8997,-1.9687,-2.0605,-2.0605,-2.0605,-2.0605,-2.0605,0.0,0.0,0.0,0.0,0.0,0.0,0.0,0.0,0.0,0.0,0.0,0.0,0.0,0.0,0.0,0.0,0.0,0.0,0.0,0.0,0.0,0.0,0.0,0.0,-3.212,-3.2841,-3.3521,-3.4186,-3.4847,-3.5515,-3.56,-3.56,-3.56,-3.56,-3.5414,-3.4996,-3.4962,-3.4962,-3.4962,-3.4962,-3.5165,-3.5583,-3.6333,-3.6744,-3.6744,-3.7738,-3.8251,-3.8251,-3.8546,-3.8707,-3.8707,-3.8707,-3.8707,-3.867,-3.8212,-3.7991,-3.7936,-3.7144,-3.6505,0.0,0.0,0.0,0.0,0.0,-3.7823,-3.8564,0.0,0.0,0.0,0.0,0.0,0.0,-1.4041,-1.4088,-1.4088,-1.4088,-1.4088,-1.4088,-1.4088,-1.4088,-1.4088,-1.4088,-1.4088,-1.4088,-1.4088,-1.4088,-1.4088,-1.4088,-1.4088,-1.4088,-1.4088,-1.4088,-1.4088,-1.4088,-1.4088,-1.4088,-1.4088,-1.4088,-1.4088,-1.4088,-1.4088,-1.4173,-1.4328,-1.5296,-1.5861,-1.6224,-1.8221,-1.8997,-1.8997,-1.9116,-1.9756,-2.0605,-2.0605,-2.0605,-2.0605,-2.0605,0.0,0.0,0.0,0.0,0.0,0.0,0.0,0.0,0.0,0.0,0.0,0.0,0.0,0.0,0.0,0.0,0.0,0.0,0.0,0.0,0.0,0.0,0.0,0.0,-3.212,-3.2841,-3.3521,-3.4186,-3.4847,-3.5515,-3.56,-3.56,-3.56,-3.56,-3.56,-3.56,-3.56,-3.5633,-3.5718,0.0,0.0,0.0,0.0,-3.7304,-3.7362,-3.8304,-3.8784,-3.874,-3.8805,-3.8799,-3.8707,-3.8707,-3.8707,-3.8707,-3.8707,-3.8707,-3.8652,-3.7933,-3.7584,-3.7434,-3.6587,-3.5919,-3.556,-3.6815,-3.7335,-3.7446,0.0,0.0,0.0,0.0,0.0,0.0,-1.4041,-1.4088,-1.4088,-1.4088,-1.4088,-1.4088,-1.4088,-1.4088,-1.4088,-1.4088,-1.4088,-1.4088,-1.4088,-1.4088,-1.4088,-1.4088,-1.4088,-1.4088,-1.4088,-1.4088,-1.4088,-1.4088,-1.4088,-1.4088,-1.4088,-1.4088,-1.4088,-1.4088,-1.4088,-1.4573,-1.5421,-1.5621,-1.6715,-1.839,-1.8838,-1.8997,-1.9076,-1.9962,-2.0401,-2.0605,-2.0605,-2.0605,-2.0605,-2.0605,-2.0712,-2.0857,-2.0857,-2.1669,0.0,0.0,0.0,0.0,0.0,0.0,0.0,0.0,0.0,0.0,0.0,0.0,0.0,0.0,0.0,0.0,0.0,0.0,0.0,-3.1511,-3.212,-3.2841,-3.3521,-3.4186,-3.4847,-3.5515,-3.56,-3.56,-3.56,-3.56,-3.56,-3.56,-3.56,-3.5893,-3.6518,-3.6575,-3.684,-3.7449,-3.7642,-3.7978,-3.8415,-3.9031,-3.9227,-3.9024,0.0,0.0,-3.8707,-3.8707,-3.8707,-3.8707,-3.8707,-3.8707,-3.8689,-3.8524,-3.8098,-3.7404,-3.6379,-3.5525,-3.4938,-3.5635,-3.6308,-3.6853,0.0,0.0,0.0,0.0,0.0,0.0,-1.4062,-1.4088,-1.4088,-1.4088,-1.4088,-1.4088,-1.4088,-1.4088,-1.4088,-1.4088,-1.4088,-1.4088,-1.4088,-1.4088,-1.4088,-1.4088,-1.4088,-1.4088,-1.4088,-1.4088,-1.4088,-1.4088,-1.4088,-1.4088,-1.4088,-1.4088,-1.4088,-1.4088,-1.4088,-1.4412,-1.4977,-1.6034,-1.7131,-1.827,-1.9362,-1.9805,-1.9844,-2.0401,-2.0605,-2.0605,-2.0605,-2.0605,-2.0605,-2.0605,-2.0605,-2.0605,-2.0605,-2.1221,-2.2215,0.0,0.0,0.0,0.0,0.0,0.0,0.0,0.0,0.0,0.0,0.0,0.0,0.0,0.0,-3.1029,-3.1438,0.0,-3.1511,-3.1511,-3.1796,-3.2422,-3.3453,-3.3887,-3.4471,-3.547,-3.56,-3.56,-3.56,-3.56,-3.5752,-3.618,-3.6197,-3.6535,-3.7313,-3.7347,-3.7516,-3.7889,-3.812,-3.853,-3.9084,-3.9593,-3.9931,-4.0101,-3.9951,-3.968,-3.9294,-3.8891,-3.8707,-3.8707,-3.8707,-3.8707,-3.8707,-3.8707,-3.823,-3.7474,-3.7204,-3.6352,-3.5311,-3.545,-3.575,-3.6096,0.0,0.0,0.0,0.0,0.0,0.0,0.0,-1.4292,-1.4328,-1.413,-1.4088,-1.4088,-1.4088,-1.4088,-1.4088,-1.4088,-1.4088,-1.4088,-1.4088,-1.4088,-1.4088,-1.4088,-1.4088,-1.4088,-1.4088,-1.4088,-1.4088,-1.4088,-1.4088,-1.4088,-1.4088,-1.4088,-1.4088,-1.4088,-1.4088,-1.4088,-1.4208,-1.6157,-1.709,-1.7464,-1.9481,-2.0401,-2.0605,-2.0605,-2.0605,-2.0605,-2.0605,-2.0605,-2.0605,-2.0605,-2.0605,-2.0605,-2.0605,-2.1116,-2.1962,-2.3147,-2.4072,0.0,0.0,0.0,0.0,0.0,0.0,0.0,0.0,-2.7953,-2.8427,-3.0178,-3.0524,-3.0748,-3.138,-3.1511,-3.1511,-3.1511,-3.1611,-3.216,-3.3401,-3.371,-3.4235,-3.5447,-3.56,-3.565,-3.5802,-3.5819,-3.6163,-3.6965,-3.7015,-3.733,-3.8075,-3.8125,-3.8176,-3.8328,-3.8699,-3.9172,-3.977,-4.0255,-4.0727,-4.1145,-4.0457,-4.0047,-3.9863,-3.9074,-3.8707,-3.8707,-3.8707,-3.8707,-3.8707,-3.8707,-3.8322,-3.7772,-3.8085,-3.7465,-3.6302,-3.5883,-3.5635,-3.55,0.0,0.0,0.0,0.0,0.0,0.0,0.0,0.0,-1.5179,-1.4208,-1.4088,-1.4088,-1.4088,-1.4088,-1.4088,-1.4088,-1.4088,-1.4088,-1.4088,-1.4088,-1.4088,-1.4088,-1.4088,-1.4088,-1.4088,-1.4088,-1.4088,-1.4088,-1.4088,-1.4088,-1.4088,-1.4088,-1.4088,-1.4088,-1.4088,-1.4088,-1.4166,-1.5379,-1.6437,-1.7423,-1.8669,-1.9766,-2.0605,-2.0605,-2.0605,-2.0605,-2.0605,-2.0605,-2.0605,-2.0605,-2.0605,-2.0605,-2.0605,-2.0673,-2.1126,-2.2962,-2.3599,-2.4072,-2.5978,-2.6499,-2.6499,-2.6499,-2.6499,-2.6905,0.0,-2.8844,-2.9317,-3.1029,-3.138,-3.138,-3.1467,-3.1511,-3.1511,-3.1511,-3.2064,-3.2734,-3.3479,-3.4112,-3.4759,-3.5515,-3.56,-3.5893,-3.6609,-3.6677,-3.6958,-3.7719,-3.7787,-3.8108,-3.8836,-3.887,-3.9174,-3.9842,-3.9892,-4.0185,-4.0735,-4.1335,-4.154,-4.136,-4.1095,-4.0598,-3.9863,-3.9074,-3.8707,-3.8707,-3.8707,-3.8707,-3.8707,-3.8707,-3.8652,-3.8533,-3.8108,-3.7978,-3.7915,-3.6936,-3.6115,-3.55,0.0,0.0,0.0,0.0,0.0,0.0,0.0,0.0,0.0,-1.5095,-1.4496,-1.4328,-1.4977,-1.5012,-1.4776,-1.4166,-1.4088,-1.4088,-1.4088,-1.4088,-1.4088,-1.4088,-1.4088,-1.4088,-1.4088,-1.4088,-1.4088,-1.4088,-1.4088,-1.4088,-1.4088,-1.4088,-1.4088,-1.413,-1.4734,-1.5012,-1.5137,-1.6879,-1.79,-1.839,-1.9481,-2.0206,-2.0605,-2.0605,-2.0605,-2.0605,-2.0605,-2.0605,0.0,-2.0605,-2.0605,-2.0605,-2.0605,-2.0972,-2.1707,-2.3073,-2.3927,-2.4671,-2.6094,-2.6499,-2.6499,-2.6499,-2.685,-2.7517,-2.8716,-2.938,-3.0072,-3.1248,-3.1511,-3.1511,-3.1511,-3.1511,-3.1511,-3.1511,-3.1768,-3.2216,-3.2906,-3.3598,-3.426,-3.4941,-3.5788,-3.6417,-3.6778,-3.7178,-3.7753,-3.8481,-3.8531,-3.8853,-3.9605,-3.9656,-3.9791,-4.0096,-4.0096,-4.0343,-4.0903,-4.1512,-4.1922,-4.2152,-4.19,-4.1387,-4.0579,-3.9772,-3.9148,-3.8707,-3.8707,-3.8707,-3.8707,-3.8707,-3.8707,-3.8683,-3.8632,-3.8478,-3.8139,-3.6907,-3.6358,-3.6135,0.0,0.0,0.0,0.0,0.0,0.0,0.0,0.0,0.0,0.0,-1.5019,-1.4734,-1.522,-1.5538,-1.5262,-1.4208,-1.4088,-1.4088,-1.4088,-1.4088,-1.4088,-1.4088,-1.4088,-1.4088,-1.4088,-1.4088,-1.4088,-1.4088,-1.4088,-1.4088,-1.4088,-1.4088,-1.425,-1.4573,-1.5338,-1.5861,-1.6273,-1.8181,-1.8997,-1.9076,-2.0167,-2.0605,-2.0605,-2.0605,-2.075,-2.1011,-2.1011,-2.1011,-2.1049,-2.1308,-2.1423,-2.1423,-2.1423,-2.1859,-2.2627,-2.3635,-2.4636,-2.5581,-2.6314,-2.6499,-2.6499,-2.6499,-2.6939,-2.7571,-2.846,-2.9317,-3.0178,-3.0999,-3.1351,-3.1511,-3.1511,-3.1511,-3.1511,-3.1511,-3.1668,-3.1979,-3.2504,-3.3339,-3.4127,-3.4831,-3.6219,-3.7161,-3.7405,-3.7889,-3.8514,-3.9242,-3.9292,-3.9554,-4.0079,-4.0096,-4.0096,-4.0096,-4.0254,-4.0521,-4.0903,-4.1664,-4.2282,-4.2693,-4.2429,-4.1882,-4.1058,-4.0047,-3.9239,-3.8707,-3.8707,-3.8707,-3.8707,-3.8707,-3.8707,-3.8719,-3.8909,-3.8844,-3.8505,-3.7297,-3.6795,-3.6577,0.0,0.0,0.0,0.0,0.0,0.0,0.0,0.0,0.0,0.0,0.0,0.0,0.0,-1.5095,-1.5262,-1.4208,-1.4088,-1.4088,-1.4088,-1.4088,-1.4088,-1.4088,-1.4088,-1.4088,-1.4088,-1.4088,-1.4088,-1.4088,-1.4088,-1.4088,-1.4088,-1.4088,-1.465,-1.5655,-1.5703,-1.6273,-1.7342,-1.851,-1.8997,-1.9076,-2.0167,-2.0605,-2.0605,-2.0605,-2.1155,-2.1952,-2.1952,-2.1952,-2.2103,-2.3073,-2.3404,-2.3404,-2.3404,-2.3441,-2.3672,-2.4671,-2.5664,-2.6452,-2.6499,-2.6499,-2.6499,-2.6499,-2.6521,-2.6748,-2.7571,-2.8395,-2.9286,-3.0178,-3.097,-3.1511,-3.1511,-3.1511,-3.1511,-3.1511,-3.2092,-3.2559,-3.2586,-3.3735,-3.4839,-3.5589,-3.6965,-3.8159,-3.8853,-3.8937,-3.9259,-4.0011,-4.0079,-4.0079,-4.0096,-4.0096,-4.0096,-4.0096,-4.0583,-4.088,-4.0903,-4.208,-4.2674,-4.2693,-4.2429,-4.1882,-4.104,-3.946,-3.8726,-3.8707,-3.8707,-3.8707,-3.8707,-3.8707,-3.8707,-3.8707,-3.8723,-3.9059,-3.9448,-3.8569,-3.7595,-3.6577,0.0,0.0,0.0,0.0,0.0,0.0,0.0,0.0,0.0,0.0,0.0,0.0,0.0,0.0,0.0,0.0,-1.6198,-1.5918,-1.522,-1.5179,-1.4852,-1.4124,-1.4088,-1.4088,-1.4088,-1.4088,-1.4088,-1.4088,-1.4088,-1.4088,-1.413,-1.4817,-1.5338,-1.5779,-1.7245,-1.8101,-1.851,-1.9599,-2.004,-2.0079,-2.044,-2.0605,-2.0673,-2.1298,-2.1735,-2.2178,0.0,-2.3551,-2.3036,-2.3368,-2.3514,-2.3514,-2.3514,-2.3963,-2.4707,-2.5699,-2.6233,-2.6499,-2.6499,-2.6499,-2.6499,-2.6499,-2.6905,-2.7517,-2.8363,-2.9254,-3.0103,-3.0925,-3.1307,-3.1511,-3.1511,-3.1511,-3.1511,-3.1511,-3.1726,-3.1881,-3.1881,-3.3471,-3.4771,-3.5014,-3.7153,-3.8717,-3.8971,-3.9453,-3.9842,-4.0079,-4.0096,-4.0096,-4.0096,-4.0096,-4.0096,-4.0096,-4.0279,-4.0528,-4.0903,-4.1686,-4.2302,-4.2693,-4.2429,-4.1882,-4.1058,-3.9992,-3.9203,-3.8707,-3.8707,-3.8707,-3.8707,-3.8707,-3.8707,-3.8707,-3.8707,-3.9078,-3.9486,-3.8614,-3.7995,-3.745,0.0,0.0,0.0,0.0,0.0,0.0,0.0,0.0,0.0,0.0,0.0,0.0,0.0,0.0,0.0,0.0,0.0,-1.6273,-1.522,-1.5137,-1.4817,-1.4124,-1.4088,-1.4088,-1.4088,-1.4489,-1.465,-1.465,-1.5068,-1.5228,-1.5269,-1.5951,-1.6478,-1.6919,-1.839,-1.9195,-1.9599,-2.0323,-2.0789,-2.1116,-2.1116,-2.1308,-2.1718,-2.2301,-2.2776,0.0,-2.4528,-2.4814,-2.4576,-2.4576,-2.4576,-2.4576,-2.4576,-2.5028,-2.5652,-2.6314,-2.6499,-2.6499,-2.6499,-2.6499,-2.6499,-2.6499,-2.6871,-2.7484,-2.833,-2.9223,-3.0072,-3.0896,-3.1307,-3.1511,-3.1511,-3.1511,-3.1511,-3.1511,-3.1511,-3.1511,-3.1511,-3.3337,-3.4803,-3.507,-3.7418,-3.9089,-3.9385,-3.9825,-4.0096,-4.0096,-4.0096,-4.0096,-4.0096,-4.0096,-4.0096,-4.0096,-4.0286,-4.0648,-4.1223,-4.1832,-4.2422,-4.2995,-4.2534,-4.1882,-4.1058,-4.0267,-3.946,-3.8707,-3.8707,-3.8707,-3.8707,-3.8707,-3.8707,-3.8707,-3.8707,-3.9078,-3.9524,-3.8965,-3.8632,-3.8296,0.0,0.0,0.0,0.0,0.0,0.0,0.0,0.0,0.0,0.0,0.0,0.0,0.0,0.0,0.0,0.0,0.0,0.0,-1.4412,-1.4334,-1.4328,-1.425,-1.425,-1.425,-1.425,-1.5255,-1.5779,-1.5779,-1.6805,-1.7302,-1.7302,-1.7374,-1.7948,-1.8997,-1.9116,-1.9717,-2.0683,-2.0712,-2.126,-2.2065,-2.2065,-2.2664,-2.3526,-2.3551,-2.4192,-2.5016,-2.5052,-2.5699,-2.6499,-2.6499,-2.6499,-2.6499,-2.6499,-2.6499,-2.6499,-2.6499,-2.6499,-2.6499,-2.6499,-2.6499,-2.6499,-2.6499,-2.6499,-2.6714,-2.7517,-2.8363,-2.9254,-3.0103,-3.094,-3.1511,-3.1511,-3.1511,-3.1511,-3.1511,-3.1511,-3.1511,-3.1511,-3.3341,-3.4969,-3.5706,-3.7691,-3.9285,-4.0045,-4.0096,-4.0096,-4.0096,0.0,-4.0096,-4.0096,-4.0096,-4.0096,-4.0096,-4.0601,-4.1155,-4.175,-4.2382,-4.2976,-4.3496,-4.2727,-4.1919,-4.1058,-4.0304,-3.9496,-3.8707,-3.8707,-3.8707,-3.8707,-3.8707,-3.8723,-3.8719,-3.8719,-3.9087,-3.9622,-3.9622,-3.9499,-3.9073,0.0,0.0,0.0,0.0,0.0,0.0,0.0,0.0,0.0,0.0,0.0,0.0,0.0,0.0,0.0,0.0,0.0,0.0,-1.7819,-1.7747,-1.7374,-1.6527,-1.6486,-1.6486,-1.6486,-1.6764,-1.6887,-1.6887,-1.718,-1.7302,-1.7334,-1.8189,-1.8718,-1.9076,-2.0575,-2.1382,-2.1697,-2.244,-2.2888,-2.311,-2.311,-2.3257,-2.3599,-2.4337,-2.4791,-2.5087,-2.5838,-2.628,-2.6499,-2.6499,-2.6499,-2.6499,-2.6499,-2.6499,-2.6499,-2.6499,-2.6499,-2.6499,-2.6499,-2.6499,-2.6499,-2.6499,-2.6499,-2.6714,-2.7517,-2.8363,-2.9254,-3.0103,-3.094,-3.1511,-3.1511,-3.1511,-3.1511,-3.1511,-3.1511,-3.1511,-3.1511,-3.3341,-3.4967,-3.5716,-3.7642,-3.9237,-4.0028,-4.0096,-4.0096,-4.0096,-4.0096,-4.0096,-4.0096,-4.0096,-4.0096,-4.0096,-4.0229,-4.0552,-4.1133,-4.2162,-4.2976,-4.3515,-4.3277,-4.2451,-4.1095,-4.0875,-4.0029,-3.8707,-3.8707,-3.8707,-3.8707,-3.8707,-3.8833,-3.8999,-3.8999,-3.9396,-3.9982,-3.9982,-3.9688,-3.915,0.0,0.0,0.0,0.0,0.0,0.0,0.0,0.0,0.0,0.0,0.0,0.0,0.0,0.0,0.0,0.0,0.0,0.0,0.0,-1.827,-1.7989,-1.7342,-1.7302,-1.7302,-1.7302,-1.7787,-1.8069,-1.8069,-1.851,-1.8749,-1.8789,-1.9836,-2.0304,-2.0382,-2.1979,-2.2664,-2.2702,-2.3257,-2.3745,0.0,0.0,-2.4409,-2.4874,-2.5441,-2.5664,-2.5734,-2.6314,-2.6499,-2.6499,-2.6499,-2.6499,-2.6499,-2.6499,-2.6499,-2.6499,-2.6499,-2.6499,-2.6499,-2.6499,-2.6499,-2.6499,-2.6499,-2.6499,-2.6714,-2.7517,-2.8363,-2.9254,-3.0103,-3.094,-3.1511,-3.1511,-3.1511,-3.1511,-3.1511,-3.1511,-3.1511,-3.1511,-3.3337,-3.4989,-3.5705,-3.7628,-3.9236,-4.002,-4.0096,-4.0096,-4.0096,-4.0096,-4.0096,-4.0096,-4.0096,-4.0096,-4.0096,-4.0096,-4.049,-4.1291,-4.2223,-4.2976,-4.3515,-4.3515,-4.2653,-4.1095,-4.1095,-4.0215,-3.8707,0.0,-3.8707,-3.8707,-3.8707,-3.8788,-3.8952,-3.9044,-3.9414,-3.9901,-4.0061,-3.9971,-3.965,0.0,0.0,0.0,0.0,0.0,0.0,0.0,0.0,0.0,0.0,0.0,0.0,0.0,0.0,0.0,0.0,0.0,0.0,0.0,0.0,-1.7605,-1.7555,-1.7555,-1.7555,-1.7555,-1.8518,-1.9146,-1.9309,-2.0265,-2.0807,-2.1011,-2.1811,-2.2215,-2.2253,-2.3257,-2.3708,-2.3708,-2.3843,-2.4409,-2.5194,-2.5194,-2.5734,-2.6499,0.0,-2.6499,-2.6499,-2.6499,-2.6499,-2.6499,-2.6499,-2.6499,-2.6499,-2.6499,-2.6499,-2.6499,-2.6499,-2.6499,-2.6499,-2.6499,-2.6499,-2.6499,-2.6499,-2.6499,-2.6692,-2.7384,-2.8298,-2.9223,-2.9981,-3.0866,-3.1511,-3.1511,-3.1511,-3.1511,-3.1511,-3.1511,-3.1511,-3.1511,-3.325,-3.4847,-3.5705,-3.7563,-3.9113,-4.002,-4.0096,-4.0096,-4.0096,-4.0096,-4.0096,-4.0096,-4.0096,-4.0096,-4.0096,-4.0096,-4.0618,-4.1664,-4.2282,-4.2846,-4.3392,-4.348,-4.2653,-4.1095,-4.1095,-4.0215,-3.8707,-3.8707,-3.8707,-3.8707,-3.8707,-3.8719,-3.8773,-3.9049,-3.9364,-3.972,-4.0032,-4.0304,-4.0265,0.0,0.0,0.0,0.0,0.0,0.0,0.0,0.0,0.0,0.0,-2.1078,-2.0605,0.0,0.0,0.0,0.0,0.0,0.0,0.0,0.0,0.0,-1.8984,-1.8937,-1.8937,-1.8937,-1.9169,-1.9807,-2.0991,-2.1186,-2.1856,-2.2999,-2.3147,-2.3257,-2.3294,-2.4301,-2.4743,-2.4779,-2.5616,-2.6094,-2.6245,-2.6245,-2.6349,-2.6499,-2.6499,0.0,0.0,-2.6499,-2.6499,-2.6499,-2.6499,-2.6499,-2.6499,-2.6499,-2.6499,-2.6499,-2.6499,-2.6499,-2.6499,-2.6499,-2.6499,-2.6499,-2.6499,-2.6499,-2.6521,-2.6692,-2.7887,-2.9034,-2.9192,-3.0419,-3.1511,-3.1511,-3.1511,-3.1511,-3.1511,-3.1511,-3.1511,-3.1511,-3.2766,-3.4236,-3.5623,-3.711,-3.8541,-3.9952,-4.0096,-4.0096,-4.0096,-4.0096,-4.0096,-4.0096,-4.0096,-4.0096,-4.0096,-4.0096,-4.0417,-4.1064,-4.1643,-4.2244,-4.2845,-4.3286,-4.2653,-4.1095,-4.1095,-4.0215,-3.8707,-3.8707,0.0,-3.8707,-3.8707,-3.8829,-3.9063,-3.9396,-3.9731,-4.0042,-4.0339,-4.0465,-4.0265,0.0,0.0,0.0,0.0,0.0,0.0,0.0,-2.3514,-2.3368,-2.285,-2.2376,-2.1707,-2.0712,-2.0605,-2.0605,0.0,0.0,0.0,0.0,0.0,0.0,-1.9297,-1.9287,-1.9287,-1.9287,-1.9739,-2.0298,-2.0963,0.0,-2.2407,-2.3109,-2.391,-2.4264,-2.4337,-2.5323,-2.5988,-2.6445,-2.6913,-2.7384,-2.7802,-2.7802,-2.7802,-2.7802,-2.7802,0.0,0.0,-2.7802,-2.7802,-2.7802,-2.7802,-2.7802,-2.7736,-2.7263,-2.685,-2.6589,-2.7007,-2.7129,-2.704,-2.6624,-2.6816,-2.704,-2.6589,-2.6816,-2.7129,-2.7129,-2.846,-2.9659,-2.9659,-3.0644,-3.1511,-3.1511,-3.1511,-3.1511,-3.1511,-3.1511,-3.1511,-3.1511,-3.2662,-3.3939,-3.5071,-3.6759,-3.8234,-3.9385,-3.9833,-4.0096,-4.0096,-4.0096,-4.0096,-4.0096,-4.0096,-4.0096,-4.0096,-4.0096,-4.0343,-4.0903,-4.1512,-4.2101,-4.2711,-4.3232,-4.2653,-4.1095,-4.1095,-4.0215,-3.8707,-3.8707,-3.8707,-3.8707,-3.8707,-3.8777,-3.8937,-3.9408,-3.9709,-3.9882,-4.0336,-4.0496,-4.0265,0.0,0.0,0.0,0.0,0.0,0.0,0.0,-2.4636,-2.4707,-2.3927,-2.3818,-2.3158,-2.1413,-2.1049,-2.0895,0.0,0.0,0.0,0.0,0.0,0.0,0.0,0.0,0.0,-1.9014,0.0,0.0,-2.0761,-2.2184,0.0,0.0,0.0,0.0,0.0,-2.6129,-2.6939,-2.7703,-2.7703,-2.8214,0.0,0.0,-2.9002,-2.9002,0.0,0.0,0.0,0.0,-2.9002,-2.9002,-2.9002,-2.9002,-2.8907,-2.8395,-2.7703,-2.7129,-2.7571,-2.7835,-2.7835,-2.7196,-2.7351,-2.7537,-2.6905,-2.7095,-2.7484,-2.767,-2.8907,-3.0072,-3.0269,-3.094,-3.1511,-3.1511,-3.1511,-3.1511,-3.1511,-3.1511,-3.1511,-3.1511,-3.2542,-3.3653,-3.4587,-3.6258,-3.7744,-3.881,-3.9463,-3.9927,-4.007,-4.0096,-4.0096,-4.0096,-4.0096,-4.0096,-4.0096,-4.0096,-4.0311,-4.0709,-4.1446,-4.2041,-4.2519,-4.3014,-4.2488,-4.1095,-4.0912,-4.0065,-3.8707,-3.8707,-3.8707,-3.8707,-3.8707,-3.8707,-3.8765,-3.9364,-3.9599,-3.9679,-4.0274,-4.04,-4.0035,0.0,0.0,0.0,0.0,0.0,0.0,0.0,-2.5511,-2.4969,-2.4862,-2.4862,-2.4456,-2.3331,-2.2403,-2.1886,0.0,0.0,0.0,0.0,0.0,0.0,0.0,0.0,0.0,0.0,0.0,0.0,-2.1319,-2.2734,0.0,0.0,0.0,0.0,0.0,0.0,-2.6939,-2.7703,-2.7703,0.0,0.0,0.0,0.0,0.0,0.0,0.0,0.0,0.0,-2.9002,-2.9002,-2.9002,-2.9002,-2.9129,-2.9858,-2.9473,-2.862,-2.792,-2.8279,-2.8876,-2.878,-2.8247,-2.767,-2.7604,-2.7095,-2.6816,-2.755,-2.8427,-2.9348,-3.0133,-3.094,-3.1511,-3.1511,-3.1511,-3.1511,-3.1511,-3.1511,-3.1511,-3.1511,-3.2123,-3.311,-3.4541,-3.534,-3.6611,-3.8706,-3.8978,-3.9315,-4.0045,-4.0096,-4.0096,-4.0096,-4.0096,-4.0096,-4.0096,-4.0096,-4.0121,-4.0154,-4.1263,-4.1832,-4.1877,-4.2232,-4.1956,-4.1077,-4.0341,-3.9533,-3.8707,-3.8707,-3.8707,0.0,-3.8707,-3.8707,-3.8765,-3.9364,-3.9599,-3.9679,-4.0274,-4.0035,-3.9284,0.0,0.0,0.0,0.0,0.0,0.0,-2.6521,-2.6164,-2.5908,-2.5908,-2.5908,-2.5769,-2.5358,-2.4397,-2.3551,-2.2962,0.0,0.0,0.0,0.0,0.0,0.0,0.0,0.0,0.0,0.0,-2.0761,-2.2185,-2.3591,0.0,0.0,0.0,0.0,0.0,0.0,-2.7229,-2.8492,-2.8492,0.0,0.0,0.0,0.0,0.0,0.0,0.0,0.0,0.0,0.0,-3.0494,-3.0494,-3.0494,-3.0494,-3.0329,-3.0389,-3.0329,-2.9504,-2.9129,-2.9002,-2.9002,-2.8748,-2.8363,-2.7835,-2.8247,-2.8716,-2.8524,-2.9535,-3.0614,-3.097,-3.1278,-3.1511,-3.1511,-3.1511,-3.1511,-3.1511,-3.1511,-3.1511,-3.1511,-3.2407,-3.3321,-3.3924,-3.5292,-3.6547,-3.7435,-3.837,-3.9236,-4.0045,-4.0096,-4.0096,-4.0096,-4.0096,-4.0096,-4.0096,-4.0096,-4.0096,-4.0096,-4.0868,-4.1446,-4.1793,-4.177,-4.1537,-4.1058,-4.0267,-3.946,-3.8707,-3.8707,-3.8707,0.0,-3.8707,-3.8707,-3.8765,-3.9364,-3.9599,-3.9679,-4.0274,-3.9996,-3.9188,0.0,0.0,0.0,0.0,0.0,-2.7802,-2.6973,-2.685,-2.6782,-2.6521,-2.6499,-2.6499,-2.6499,-2.5873,-2.5146,-2.4433,-2.2923,0.0,0.0,0.0,0.0,0.0,0.0,0.0,0.0,0.0,-2.1545,-2.2694,-2.4102,-2.5084,0.0,0.0,-2.6499,-2.6499,0.0,0.0,0.0,0.0,0.0,0.0,0.0,0.0,0.0,0.0,0.0,0.0,0.0,0.0,0.0,0.0,0.0,-3.1409,-3.0837,-3.1029,-3.1351,-3.0554,-2.9858,-2.9442,-2.9659,-2.938,-2.8844,-2.8247,-2.8812,-2.9442,-2.9097,-2.9919,-3.0896,-3.1409,-3.1511,-3.1511,-3.1511,-3.1511,-3.1511,-3.1511,-3.1511,-3.1511,-3.1511,-3.2303,-3.3066,-3.344,-3.479,-3.5907,-3.6538,-3.7987,-3.9236,-4.0045,-4.0096,-4.0096,-4.0096,-4.0096,-4.0096,-4.0096,-4.0096,-4.0096,-4.0096,-4.0631,-4.1079,-4.1435,-4.1181,-4.0943,-4.0726,-3.9918,-3.9239,-3.8707,-3.8707,-3.8707,0.0,-3.8707,-3.8707,-3.8765,-3.9364,-3.9599,-3.9641,-4.0006,-3.9631,-3.8796,0.0,0.0,0.0,0.0,0.0,0.0,-2.7835,-2.7703,-2.7384,-2.6589,-2.6499,-2.6499,-2.6499,-2.6499,-2.6487,-2.6452,-2.3743,0.0,0.0,0.0,0.0,0.0,0.0,0.0,0.0,0.0,-2.2158,-2.2694,-2.4102,-2.5084,-2.5598,-2.6223,-2.6499,-2.6499,0.0,0.0,0.0,0.0,0.0,0.0,0.0,0.0,0.0,0.0,0.0,0.0,0.0,0.0,0.0,0.0,0.0,0.0,0.0,-3.1511,-3.1351,-3.0554,-3.0299,-3.045,-3.1248,-3.0269,-2.9002,-2.9002,-2.833,-2.7953,-2.8812,-2.9002,-2.9504,-3.1161,-3.1511,-3.1511,-3.1511,-3.1511,-3.1511,-3.1511,-3.1511,-3.1511,-3.1511,-3.1511,-3.2004,-3.3335,-3.3499,-3.4333,-3.6384,-3.7987,-3.9236,-4.0045,-4.0096,0.0,-4.0096,-4.0096,-4.0096,-4.0096,-4.0096,-4.0096,-4.0096,-4.0631,-4.0794,-4.0615,-4.0336,-4.0109,-3.9882,-3.9074,-3.8707,-3.8707,-3.8707,-3.8707,0.0,-3.8707,-3.8707,-3.8765,-3.9364,-3.9599,-3.9584,-3.9385,-3.8757,-3.7892,0.0,0.0,0.0,0.0,0.0,0.0,0.0,-2.8588,-2.8266,-2.7417,-2.7317,-2.7095,-2.6555,-2.6499,-2.6499,-2.6499,-2.5231,0.0,0.0,0.0,0.0,0.0,0.0,0.0,0.0,0.0,-2.3164,-2.4666,-2.5128,-2.5636,-2.6223,-2.6411,-2.6499,-2.6499,-2.6499,-2.7417,0.0,0.0,0.0,0.0,0.0,0.0,-3.1511,0.0,0.0,0.0,0.0,0.0,0.0,0.0,0.0,0.0,0.0,0.0,0.0,-3.119,-3.0299,-2.9721,-3.1117,-3.0269,-2.9002,-2.9002,-2.9254,-2.938,-2.9066,-2.9473,-3.0208,-3.1278,-3.1511,-3.1322,-3.0777,-3.1117,-3.1322,-3.0777,-3.1161,-3.1511,-3.1511,-3.1884,-3.2333,-3.2781,-3.3619,-3.4817,-3.643,-3.7557,-3.8442,-3.9236,-3.9782,-4.0096,-4.0096,-4.0096,-4.0096,-4.0096,-4.0096,-4.0096,-4.0096,-3.9768,-3.9934,-4.0598,-3.9451,-3.9248,-3.9863,-3.9074,-3.8707,-3.8707,-3.8707,-3.8707,-3.8707,-3.8707,-3.8707,-3.8735,-3.9104,-3.902,-3.8735,-3.8899,-3.8164,-3.7065,0.0,0.0,0.0,0.0,0.0,0.0,0.0,-2.9473,-2.9192,-2.8298,-2.8182,-2.7986,-2.7517,-2.7451,-2.7317,-2.6973,-2.6606,0.0,0.0,0.0,0.0,0.0,0.0,0.0,-2.3458,-2.349,-2.4177,-2.5598,-2.5598,-2.5921,-2.6499,-2.6499,-2.6499,-2.6499,-2.6499,-2.7417,0.0,0.0,0.0,0.0,0.0,0.0,-3.1511,0.0,0.0,0.0,0.0,0.0,0.0,0.0,0.0,0.0,0.0,0.0,0.0,0.0,-3.0554,-2.9797,-3.1117,-3.0524,-2.9473,-2.9473,-2.9889,-3.0072,-2.9192,-2.9411,-3.0042,-3.0866,-3.1058,-3.0999,-3.0807,-3.1161,-3.1351,-3.0837,-3.1161,-3.1511,-3.1511,-3.1854,-3.2213,-3.2452,-3.3679,-3.4953,-3.609,-3.6913,-3.779,-3.8827,-3.9368,-3.9782,-4.007,-4.0096,-4.0096,-4.0096,-4.0096,-3.9977,-3.9706,-3.9225,-3.9134,-3.9424,-3.8662,-3.8597,-3.9144,-3.8831,-3.8707,-3.8707,-3.8707,-3.8707,0.0,-3.8707,-3.8707,-3.8701,-3.8665,-3.849,-3.826,-3.7966,-3.7379,-3.6654,0.0,0.0,0.0,0.0,0.0,0.0,0.0,-3.0389,-3.0072,-2.9223,-2.9097,-2.9066,-2.9002,-2.9002,-2.8684,-2.7855,0.0,0.0,0.0,0.0,0.0,0.0,0.0,0.0,-2.4838,-2.4838,-2.5134,-2.5649,-2.5649,-2.5971,-2.6499,-2.6499,-2.6499,-2.6499,-2.6499,-2.7417,-2.9097,-3.0807,-3.1511,-3.1511,-3.1511,-3.1511,0.0,0.0,0.0,0.0,0.0,0.0,0.0,0.0,0.0,0.0,0.0,0.0,0.0,0.0,0.0,0.0,0.0,-3.0896,-3.0299,-3.0238,-3.0238,-3.0072,-2.9286,-2.9034,0.0,-3.0103,-3.0238,-3.0419,-3.119,-3.138,-3.1409,-3.1409,-3.1467,-3.1511,-3.1511,-3.1511,-3.175,-3.2407,-3.3589,-3.465,-3.5443,-3.6135,-3.717,-3.8718,-3.8881,-3.9262,-4.0045,-4.0045,-4.0028,-4.0028,-3.9977,-3.9656,-3.9005,-3.8886,-3.84,-3.7521,-3.7991,-3.8109,-3.7929,-3.8465,-3.8707,0.0,-3.8707,-3.8707,-3.8707,-3.8707,-3.867,-3.8573,-3.8081,-3.7972,-3.7977,-3.672,-3.6422,-3.65,0.0,0.0,0.0,0.0,0.0,0.0,0.0,0.0,0.0,0.0,-2.9981,-2.9735,-2.9066,-2.9002,-2.8907,0.0,0.0,0.0,0.0,0.0,0.0,0.0,0.0,0.0,-2.541,-2.541,-2.5686,-2.6285,-2.6285,-2.6361,-2.6499,-2.6499,-2.6499,-2.6499,-2.6499,-2.7417,-2.9097,-3.0807,-3.1511,-3.1511,-3.1511,-3.1511,0.0,0.0,0.0,0.0,-3.1511,-3.1511,0.0,0.0,0.0,0.0,0.0,0.0,0.0,0.0,-3.138,-3.1248,-3.1438,0.0,-3.0133,-2.9473,-2.9827,-3.0238,0.0,-2.9473,-2.9254,-3.0103,-2.9766,-2.9348,-2.9535,-3.0133,-3.0584,-3.0584,-3.1087,-3.1511,-3.1511,-3.1511,-3.175,-3.2407,-3.2781,-3.3456,-3.4634,-3.5401,-3.646,-3.7958,-3.858,-3.9262,-4.0045,-3.9571,-3.9242,-3.9242,-3.87,-3.8599,-3.8988,-3.7895,-3.7376,-3.7503,-3.7466,-3.7611,-3.7929,-3.8465,-3.8707,-3.8707,-3.8707,-3.8707,-3.8707,-3.8707,-3.834,-3.7768,-3.765,-3.7123,-3.6438,-3.6115,-3.5907,-3.575,0.0,0.0,0.0,0.0,0.0,0.0,0.0,0.0,0.0,0.0,0.0,-3.0673,-3.0208,-3.0133,0.0,0.0,0.0,0.0,0.0,0.0,0.0,0.0,0.0,-2.5699,-2.6021,-2.6021,-2.6185,-2.6499,-2.6499,-2.6499,-2.6499,-2.6499,-2.6499,-2.6521,-2.7284,-2.8149,-2.9097,-3.0807,-3.1511,-3.1511,-3.1511,0.0,0.0,0.0,0.0,0.0,-3.1511,-3.1511,0.0,-3.1511,-3.1511,-3.1511,0.0,0.0,0.0,0.0,-3.1219,-3.1322,-3.0554,-3.0329,-3.0208,-2.969,-2.995,-3.0208,-2.9797,-2.9348,-2.9129,-2.9597,-2.9002,-2.8524,-2.8939,-2.969,-3.0299,-3.0299,-3.097,-3.1511,-3.1511,-3.1511,-3.163,-3.1989,-3.2303,-3.2796,-3.3499,-3.4228,-3.5239,-3.6729,-3.7219,-3.791,-3.9023,-3.87,-3.8497,-3.8497,-3.777,-3.7584,-3.7997,-3.7202,-3.6729,-3.6632,-3.7036,-3.7323,-3.7596,-3.835,-3.8707,-3.8707,-3.8707,-3.8707,-3.867,-3.8303,-3.7896,-3.7434,-3.6833,-3.6292,-3.5883,-3.5627,-3.5512,-3.55,0.0,0.0,0.0,0.0,0.0,0.0,0.0,0.0,0.0,0.0,0.0,0.0,0.0,0.0,0.0,0.0,0.0,0.0,0.0,0.0,0.0,0.0,-2.6658,-2.6499,-2.6499,-2.6499,-2.6499,-2.6499,-2.6499,-2.6499,-2.6499,-2.6499,-2.6499,-2.6555,-2.8247,-2.9002,-2.9097,-3.0807,-3.1511,-3.1511,-3.1511,0.0,0.0,0.0,0.0,0.0,0.0,0.0,0.0,-3.1511,-3.1511,-3.1511,-3.1511,0.0,0.0,0.0,0.0,0.0,-2.9628,-2.9735,-3.0269,-3.0133,-3.0208,-3.0103,-2.938,-2.9192,-2.9192,-2.9192,-2.8395,-2.8019,-2.9002,-2.9566,-3.0042,-3.0419,-3.1058,-3.1511,-3.1511,-3.1511,-3.1511,-3.1511,-3.1989,-3.2378,-3.2497,-3.3021,-3.3967,-3.5435,-3.5655,-3.63,-3.7655,-3.7739,-3.7736,-3.7736,-3.7009,-3.6626,-3.6626,-3.6626,-3.6265,-3.5622,-3.6704,-3.7209,-3.7229,-3.8252,-3.8707,-3.8707,0.0,0.0,-3.8469,-3.7786,-3.7345,-3.7007,-3.5871,-3.5535,-3.5667,-3.522,-3.5207,-3.5439,0.0,0.0,0.0,0.0,0.0,0.0,0.0,0.0,0.0,0.0,0.0,0.0,0.0,0.0,0.0,0.0,0.0,0.0,0.0,0.0,0.0,-2.8652,-2.7263,-2.6499,-2.6499,-2.6499,-2.6499,-2.6499,-2.6499,-2.6499,-2.6499,-2.6499,-2.6499,-2.6555,-2.8247,-2.9002,-2.9097,-3.0807,-3.1511,-3.1511,-3.1511,0.0,0.0,0.0,0.0,0.0,0.0,0.0,0.0,-3.1511,-3.1511,-3.1511,-3.1511,0.0,0.0,0.0,0.0,0.0,-3.0359,-3.0208,-3.0103,-2.938,-2.9766,-3.0269,-3.0133,-3.0103,-3.0103,-3.0103,-2.8812,-2.8182,-2.9797,-2.9002,-2.8812,-3.097,-3.1409,-3.1511,-3.1511,-3.1511,-3.1511,-3.1511,-3.1585,-3.1869,-3.2422,-3.2602,-3.3259,-3.4729,-3.5379,-3.6071,-3.6928,-3.6985,-3.6981,-3.6981,-3.6197,-3.5769,-3.5769,-3.5769,-3.5718,-3.5622,-3.6704,-3.7209,-3.7229,-3.8252,-3.8707,-3.8707,0.0,-3.8303,-3.7676,-3.7547,-3.6652,-3.5353,-3.5152,-3.4996,-3.4864,-3.4791,-3.4935,-3.5155,0.0,0.0,0.0,0.0,0.0,0.0,0.0,0.0,0.0,0.0,0.0,0.0,0.0,0.0,0.0,0.0,0.0,0.0,0.0,0.0,-2.9919,-2.9034,-2.8279,-2.7637,-2.7162,-2.7162,-2.6939,-2.6499,-2.6499,-2.6499,-2.6499,-2.6499,-2.6499,-2.6555,-2.8247,-2.9002,-2.9097,-3.0807,-3.1511,-3.1511,0.0,0.0,0.0,0.0,0.0,0.0,0.0,0.0,0.0,0.0,-3.1511,-3.1511,-3.1511,0.0,0.0,0.0,0.0,0.0,-3.0524,-3.0299,-3.0208,-2.9797,-3.0011,-3.0299,-3.0299,-3.0299,-3.0299,-3.0299,-2.9286,-2.8652,-2.9442,-2.9021,-2.8991,-3.0269,-3.0761,-3.0943,-3.0943,-3.1271,-3.1511,-3.1511,-3.1511,-3.163,-3.1929,-3.1959,-3.2414,-3.3488,-3.4173,-3.4856,-3.5564,-3.5958,-3.6146,-3.6146,-3.5785,-3.56,-3.56,-3.56,-3.56,-3.5622,-3.6704,-3.7209,-3.7229,-3.8252,-3.8707,-3.8689,0.0,-3.7841,-3.7437,-3.6523,-3.5701,-3.4963,-3.4687,-3.4619,-3.4714,-3.4851,-3.499,-3.5105,0.0,0.0,0.0,0.0,0.0,0.0,0.0,0.0,0.0,0.0,0.0,0.0,0.0,0.0,0.0,0.0,0.0,0.0,0.0,-3.0584,-3.0269,-2.9597,-2.9597,-2.9097,-2.8019,-2.7986,-2.7703,-2.7095,-2.7095,-2.6973,-2.6782,-2.6589,-2.6499,-2.6555,-2.8247,-2.9002,-2.9097,-3.0807,-3.1511,-3.1511,0.0,0.0,0.0,0.0,0.0,0.0,0.0,0.0,0.0,0.0,0.0,0.0,0.0,0.0,0.0,-3.0554,-3.0748,-3.1087,-3.0464,-3.0299,-3.0359,-3.0524,-3.0299,-3.0042,-3.0238,-3.0299,-3.0359,-3.0554,-2.9775,-2.9181,-2.9507,-2.9587,-2.9507,-2.9326,-2.9858,-3.0342,-3.0477,-3.0928,-3.1316,-3.1481,-3.1511,-3.1511,-3.1511,-3.1511,-3.1739,-3.2299,-3.2986,-3.3659,-3.4333,-3.5005,-3.5447,-3.56,-3.56,-3.56,-3.56,-3.56,-3.56,-3.5622,-3.6563,-3.7095,-3.7229,-3.7919,-3.8303,-3.8377,-3.7584,-3.7107,-3.6798,-3.5536,-3.4894,-3.4683,-3.4277,-3.43,-3.4614,-3.4889,-3.5053,-3.5096,0.0,0.0,0.0,0.0,0.0,0.0,0.0,0.0,0.0,0.0,0.0,0.0,0.0,0.0,0.0,0.0,0.0,0.0,0.0,-3.1409,-3.138,-3.1322,-3.1322,-3.0554,-2.8939,-2.8907,-2.8876,-2.8812,-2.8812,-2.8395,-2.7604,-2.685,-2.6499,-2.6555,-2.8247,-2.9002,-2.9097,-3.0807,-3.1511,-3.1511,-3.1511,0.0,0.0,0.0,0.0,0.0,0.0,0.0,0.0,0.0,0.0,0.0,0.0,0.0,-3.1351,-3.0554,-3.0329,-3.0359,-3.0329,-3.0299,-3.0494,-3.1219,-3.0238,-2.9317,-3.0103,-3.0299,-3.0524,-3.1248,-3.0265,-2.9695,-3.1071,-3.0814,-2.9961,-2.8597,-2.9114,-2.9849,-3.0417,-3.0552,-3.0806,-3.1436,-3.1511,-3.1511,-3.1511,-3.1511,-3.1524,-3.1582,-3.2272,-3.296,-3.3649,-3.4309,-3.4965,-3.5577,-3.56,-3.56,-3.56,-3.56,-3.56,-3.56,-3.6182,-3.6724,-3.7193,-3.6966,-3.7126,-3.7547,-3.6725,-3.5936,-3.5169,-3.5059,-3.4564,-3.388,-3.3834,-3.3999,-3.4288,-3.4603,-3.4889,-3.5051,0.0,0.0,0.0,0.0,0.0,0.0,0.0,0.0,0.0,0.0,0.0,0.0,0.0,0.0,0.0,0.0,0.0,0.0,0.0,-3.1511,-3.1511,-3.1511,-3.1511,-3.119,-3.0584,-3.0042,-2.9535,-2.9002,-2.846,-2.8019,-2.767,-2.6871,-2.6782,-2.7284,-2.8492,-2.9286,-2.9889,-3.1029,-3.1511,-3.1511,-3.1511,-3.1511,0.0,0.0,0.0,0.0,0.0,0.0,0.0,0.0,-3.1511,-3.1511,-3.1511,-3.1511,-3.1438,-3.1161,-3.1058,-3.1058,-3.1058,-3.1058,-3.1117,-3.1409,-3.0644,-3.0042,-3.0866,-3.1058,-3.1117,-3.1438,-3.0714,-2.9964,-2.9749,-2.9505,-2.9006,-2.803,-2.8482,-2.9056,-2.9295,-2.9669,-3.0163,-3.0806,-3.0896,-3.1032,-3.1466,-3.1511,-3.1511,-3.1511,-3.2571,-3.3339,-3.3582,-3.4616,-3.5339,-3.56,-3.56,-3.56,-3.56,-3.5165,-3.4912,-3.4912,-3.5456,-3.595,-3.6375,-3.6141,-3.629,-3.6707,-3.5862,-3.5298,-3.4968,-3.4454,-3.4082,-3.3829,-3.422,-3.4177,-3.4012,-3.4508,-3.4754,-3.4851,0.0,0.0,0.0,0.0,0.0,0.0,0.0,0.0,0.0,0.0,0.0,0.0,0.0,0.0,0.0,0.0,0.0,0.0,-3.1511,-3.1511,-3.1511,-3.1511,-3.1511,-3.1511,-3.1511,-3.097,-3.0389,-2.9797,-2.8939,-2.8524,-2.8492,-2.767,-2.7571,-2.8149,-2.9034,-2.9735,-3.0359,-3.1161,-3.1511,-3.1511,-3.1511,-3.1511,0.0,0.0,0.0,0.0,0.0,0.0,0.0,0.0,-3.1511,-3.1511,-3.1511,-3.1511,-3.1511,-3.1511,-3.1322,-3.119,-3.1438,-3.1307,-3.1131,-3.1169,-3.0777,-3.047,-3.0814,-3.0861,-3.082,-3.0899,-3.0537,-2.9819,-2.8517,-2.8457,-2.8368,-2.7705,-2.7989,-2.8353,-2.8562,-2.8981,-2.9505,-3.0133,-3.0223,-3.0402,-3.0866,-3.0883,-3.0996,-3.1162,-3.208,-3.28,-3.3216,-3.4091,-3.469,-3.4906,-3.4906,-3.4906,-3.4906,-3.4404,-3.415,-3.415,-3.4298,-3.4766,-3.5544,-3.5147,-3.5313,-3.5844,-3.4986,-3.4619,-3.4582,-3.4027,-3.3807,-3.3855,-3.4353,-3.4237,-3.3868,-3.4364,-3.4622,-3.4694,0.0,0.0,0.0,0.0,0.0,0.0,0.0,0.0,0.0,0.0,0.0,0.0,0.0,0.0,0.0,0.0,0.0,0.0,-3.157,-3.1511,-3.1511,-3.1511,-3.1511,-3.1511,-3.1511,-3.1511,-3.1511,-3.1511,-3.0673,-3.0299,-3.0269,-2.9411,-2.9002,-2.9066,-2.9919,-3.0299,-3.0359,-3.1161,-3.1511,-3.1511,-3.1511,-3.1511,-3.1511,0.0,0.0,0.0,0.0,0.0,0.0,0.0,-3.1511,-3.1511,-3.1511,-3.1511,-3.1511,-3.1511,-3.094,-3.048,-3.1278,-3.0925,-3.032,-3.0444,-3.0492,-3.0328,-2.9741,-2.9443,-2.9349,-2.9548,-2.9592,-2.9187,-2.7839,-2.8128,-2.8368,-2.7705,-2.76,-2.7839,-2.8502,-2.8592,-2.8831,-2.9517,-2.9592,-2.9606,-2.9606,-2.9606,-2.9845,-3.0464,-3.0515,-3.1079,-3.2331,-3.2399,-3.2707,-3.3385,-3.3406,-3.3406,-3.3406,-3.3406,-3.3389,-3.3389,-3.2649,-3.3175,-3.4748,-3.3952,-3.4098,-3.4949,-3.4156,-3.3807,-3.3807,-3.3807,-3.3807,-3.3829,-3.4105,-3.4043,-3.3829,-3.4099,-3.4412,-3.4713,0.0,0.0,0.0,0.0,0.0,0.0,0.0,0.0,0.0,0.0,0.0,0.0,0.0,0.0,0.0,0.0,0.0,0.0,-3.2931,-3.2482,-3.2183,-3.2183,-3.175,-3.1511,-3.1511,-3.1511,-3.1511,-3.1511,-3.0673,-3.0299,-3.0269,-2.9411,-2.9317,-2.9919,-3.0178,-3.0614,-3.1161,-3.1409,-3.1511,-3.1511,-3.1511,-3.1511,-3.1511,0.0,0.0,0.0,0.0,0.0,0.0,0.0,0.0,0.0,-3.1511,-3.1511,-3.1511,-3.1511,-3.1322,-3.1086,-3.0856,-3.0622,-3.0345,-2.9958,-2.9864,-2.9684,-2.9041,-2.9223,-2.9381,-2.8973,-2.8891,-2.8622,-2.7764,-2.7764,-2.7839,-2.763,-2.76,-2.766,-2.7869,-2.7899,-2.8154,-2.8816,-2.8891,-2.9241,-3.0138,-3.0236,-3.049,-3.1088,-3.1574,-3.1992,-3.2377,-3.2857,-3.3198,-3.3385,-3.3406,-3.3406,-3.3406,-3.2882,-3.2632,-3.2632,-3.1887,-3.238,-3.3934,-3.3156,-3.3306,-3.4137,-3.3899,-3.3807,-3.3807,-3.3807,-3.3807,-3.3829,-3.4105,-3.4043,-3.3829,-3.4099,-3.4258,-3.4379,0.0,0.0,0.0,0.0,0.0,0.0,0.0,0.0,0.0,0.0,-3.5145,-3.4891,0.0,0.0,0.0,0.0,0.0,0.0,0.0,-3.3125,-3.2901,-3.2901,-3.2243,-3.1765,-3.1511,-3.1511,-3.1511,-3.1511,-3.0999,-3.0777,-3.0777,-3.0238,-3.0269,-3.0777,-3.0777,-3.1058,-3.1511,-3.1511,-3.1511,-3.1511,-3.1511,-3.1511,-3.1511,0.0,0.0,0.0,0.0,0.0,0.0,0.0,0.0,0.0,-3.1511,-3.1511,-3.1511,-3.1511,-3.1316,-3.1002,-3.0612,-3.0328,-2.9983,-2.9355,-2.919,-2.9037,-2.8378,-2.8528,-2.8693,-2.8304,-2.8188,-2.8094,-2.7675,-2.76,-2.76,-2.76,-2.76,-2.76,-2.76,-2.781,-2.8111,-2.8495,-2.8752,-2.9212,-2.9984,-3.0064,-3.0315,-3.0926,-3.135,-3.1676,-3.191,-3.2303,-3.2527,-3.2527,-3.2527,-3.2527,-3.2527,-3.209,-3.187,-3.187,-3.141,-3.1898,-3.3156,-3.2713,-3.2981,-3.3807,-3.3807,-3.3807,-3.3807,-3.3807,-3.3807,-3.3815,-3.3986,-3.3935,-3.3815,-3.3986,-3.4111,-3.4253,0.0,0.0,0.0,0.0,0.0,0.0,0.0,0.0,0.0,0.0,-3.5504,-3.5504,0.0,0.0,0.0,0.0,0.0,0.0,0.0,-3.3619,-3.3589,-3.3589,-3.2901,-3.2198,-3.16,-3.154,-3.1511,-3.1511,-3.1511,-3.1511,-3.1511,-3.1511,-3.1511,-3.1511,-3.1511,-3.1511,-3.1511,-3.1511,-3.1511,-3.1511,-3.1511,-3.1511,-3.1511,-3.1511,0.0,0.0,0.0,0.0,0.0,0.0,0.0,0.0,-3.1511,-3.1511,-3.1496,-3.1436,-3.0972,-3.0477,-3.0357,-2.9924,-2.9367,-2.8667,-2.8502,-2.8338,-2.775,-2.76,-2.76,-2.76,-2.76,-2.76,-2.76,-2.76,-2.76,-2.76,-2.76,-2.7625,-2.766,-2.8165,-2.8511,-2.8583,-2.9081,-2.9429,-2.9473,-2.9473,-2.9739,-3.0351,-3.0393,-3.0617,-3.1171,-3.119,-3.119,-3.119,-3.119,-3.119,-3.119,-3.119,-3.119,-3.119,-3.1249,-3.1694,-3.2501,-3.2501,-3.2981,-3.3807,-3.3807,-3.3807,-3.3807,-3.3807,-3.3807,-3.3807,-3.3807,-3.3807,-3.3807,-3.3807,-3.3948,-3.42,0.0,0.0,0.0,0.0,0.0,0.0,0.0,0.0,0.0,0.0,0.0,0.0,0.0,0.0,0.0,0.0,0.0,0.0,0.0,-3.4562,-3.4294,-3.4294,-3.314,-3.2422,-3.2273,-3.1765,-3.1511,-3.1511,-3.1511,-3.1511,-3.1511,-3.1511,-3.1511,-3.1511,-3.1511,-3.1511,-3.1511,-3.1511,-3.1511,-3.1511,-3.1511,-3.1511,-3.1511,-3.1511,-3.1511,0.0,0.0,0.0,0.0,0.0,0.0,0.0,-3.1511,-3.1511,-3.1406,-3.0881,-3.0612,-3.0283,-2.928,-2.8906,-2.8652,-2.7989,-2.7824,-2.7779,-2.763,-2.76,-2.76,-2.76,-2.76,-2.76,-2.76,-2.76,-2.76,-2.76,-2.76,-2.776,-2.8238,-2.8415,-2.8677,-2.9157,-2.9316,-2.9585,-3.0059,-3.0102,-3.0372,-3.0975,-3.1015,-3.1055,-3.119,-3.119,-3.119,-3.119,-3.119,-3.119,-3.119,-3.119,-3.119,-3.121,-3.1526,-3.1968,-3.2501,-3.2501,-3.2981,-3.3807,-3.3807,-3.3807,-3.3807,-3.3807,-3.3807,-3.3807,-3.3807,-3.3807,-3.3807,-3.3807,-3.3842,-3.3948,0.0,0.0,0.0,0.0,0.0,0.0,0.0,0.0,0.0,0.0,0.0,0.0,0.0,0.0,0.0,0.0,0.0,0.0,0.0,0.0,-3.4848,-3.4518,-3.3514,-3.2841,-3.2497,-3.1839,-3.1511,-3.1511,-3.1511,-3.1511,-3.1511,-3.1511,-3.1511,-3.1511,-3.1511,-3.1511,-3.1511,-3.1511,-3.1511,-3.1511,-3.1511,-3.1511,-3.1511,-3.1511,-3.1511,-3.1511,-3.1511,0.0,0.0,0.0,0.0,0.0,0.0,0.0,-3.0943,-3.0612,-3.0073,-2.9445,-2.8786,-2.8368,-2.8049,-2.769,-2.76,-2.76,-2.76,-2.76,-2.7685,-2.7968,-2.8018,-2.8116,-2.84,-2.8472,-2.8472,-2.8472,-2.8472,-2.8567,-2.8896,-2.918,-2.9473,-2.9783,-3.0102,-3.0393,-3.0699,-3.072,-3.0858,-3.1171,-3.119,-3.119,-3.119,-3.119,-3.119,-3.119,-3.119,-3.119,-3.119,-3.119,-3.119,-3.121,-3.1621,-3.2161,-3.284,-3.3027,-3.3357,-3.3807,-3.3807,-3.3807,-3.3807,-3.3807,-3.3807,-3.3807,-3.3807,-3.3807,-3.3807,-3.3807,-3.3807,-3.3895,0.0,0.0,0.0,0.0,0.0,0.0,0.0,0.0,0.0,0.0,0.0,0.0,0.0,0.0,0.0,0.0,0.0,0.0,0.0,0.0,0.0,-3.4713,-3.4023,-3.3365,-3.2706,-3.2019,-3.1615,-3.1511,-3.1511,-3.1511,-3.1511,-3.1511,-3.1511,-3.1511,-3.1511,-3.1511,-3.1511,-3.1511,-3.1511,-3.1511,-3.1511,-3.1511,-3.1511,-3.1511,-3.1511,-3.1511,-3.1511,-3.1511,-3.1511,-3.1511,0.0,0.0,0.0,0.0,-3.0477,-3.0372,-2.952,-2.8577,-2.8457,-2.8034,-2.76,-2.76,-2.76,-2.76,-2.76,-2.76,-2.781,-2.8511,-2.8559,-2.8685,-2.9293,-2.9406,-2.9406,-2.9406,-2.9406,-2.9429,-2.954,-2.9995,-3.0335,-3.0456,-3.0898,-3.119,-3.119,-3.119,-3.119,-3.119,-3.119,-3.119,-3.119,-3.119,-3.119,-3.119,-3.119,-3.119,-3.119,-3.119,-3.119,-3.121,-3.1678,-3.2416,-3.3317,-3.3652,-3.3807,-3.3807,-3.3807,-3.3807,-3.3807,-3.3807,-3.3807,-3.3807,-3.3807,-3.3807,-3.3807,-3.3807,-3.3807,-3.3881,0.0,0.0,0.0,0.0,0.0,0.0,0.0,0.0,0.0,0.0,-3.5504,-3.5504,0.0,0.0,0.0,0.0,0.0,0.0,-3.5504,0.0,0.0,-3.537,-3.4711,-3.4038,-3.338,-3.2721,-3.2079,-3.1511,-3.1511,-3.1511,-3.1511,-3.1511,-3.1511,-3.1511,-3.1511,-3.1511,-3.1511,-3.1511,-3.1511,-3.1511,-3.1511,-3.1511,-3.1511,-3.1511,-3.1511,-3.1511,-3.1511,-3.1511,-3.1511,-3.1511,-3.1511,0.0,0.0,0.0,-3.0402,-2.9864,-2.919,-2.8472,-2.7899,-2.766,-2.76,-2.76,-2.76,-2.76,-2.76,-2.76,-2.7919,-2.9042,-2.8873,-2.8685,-2.9293,-2.9406,-2.9406,-2.9406,-2.9406,-2.9585,-3.0102,-3.0251,-3.0497,-3.1015,-3.1151,-3.119,-3.119,-3.119,-3.119,-3.119,-3.119,-3.119,-3.119,-3.119,-3.119,-3.119,-3.119,-3.119,-3.119,-3.119,-3.119,-3.121,-3.2021,-3.2872,-3.3721,-3.378,-3.3807,-3.3807,-3.3807,-3.3807,-3.3807,-3.3807,-3.3807,-3.3807,-3.3807,-3.3807,-3.3807,-3.3807,-3.3807,-3.3842,0.0,0.0,0.0,0.0,0.0,0.0,0.0,0.0,0.0,0.0,0.0,-3.5504,0.0,0.0,0.0,-3.5504,-3.5504,-3.5504,-3.5504,-3.5504,-3.5504,-3.5504,-3.4846,-3.4369,-3.4084,-3.3036,-3.2377,-3.2049,-3.169,-3.1511,-3.1511,-3.1511,-3.1511,-3.1511,-3.1511,-3.1511,-3.1511,-3.1511,-3.1511,-3.1511,-3.1511,-3.1511,-3.1511,-3.1511,-3.1511,-3.1511,-3.1511,-3.1511,-3.1511,-3.1511,-3.1511,-3.1436,-3.1047,0.0,0.0,0.0,-2.8547,-2.7989,-2.7675,-2.76,-2.76,-2.76,-2.76,-2.76,-2.76,-2.76,-2.7944,-2.9157,-2.918,-2.9293,-3.023,-3.0414,-3.0414,-3.0414,-3.0414,-3.0497,-3.0777,-3.0801,-3.0898,-3.1171,-3.119,-3.119,-3.119,-3.119,-3.119,-3.119,-3.119,-3.119,-3.119,-3.119,-3.119,-3.119,-3.119,-3.119,-3.119,-3.119,-3.1447,-3.195,-3.2583,-3.3211,-3.3807,-3.3807,-3.3807,-3.3807,-3.3807,-3.3807,-3.3807,-3.3807,-3.3807,-3.3807,-3.3807,-3.3807,-3.3807,-3.3807,-3.3807,-3.3842,0.0,0.0,0.0,0.0,0.0,0.0,0.0,0.0,0.0,0.0,0.0,0.0,0.0,0.0,0.0,0.0,-3.5504,-3.5504,-3.5504,-3.5504,-3.5504,-3.5504,-3.5011,-3.4651,-3.4503,-3.335,-3.2677,-3.2512,-3.1824,-3.1511,-3.1511,-3.1511,-3.1511,-3.1511,-3.1511,-3.1511,-3.1511,-3.1511,-3.1511,-3.1511,-3.1511,-3.1511,-3.1511,-3.1511,-3.1511,-3.1511,-3.1511,-3.1511,-3.1511,-3.1511,-3.1511,-3.1376,-3.0717,-3.0088,0.0,0.0,0.0,-2.76,-2.76,-2.76,-2.76,-2.76,-2.76,-2.76,-2.76,-2.76,-2.7894,-2.895,-2.9293,-2.9717,-3.0777,-3.1112,-3.119,-3.119,-3.119,-3.119,-3.119,-3.119,-3.119,-3.119,-3.119,-3.119,-3.119,-3.119,-3.119,-3.119,-3.119,-3.119,-3.119,-3.119,-3.119,-3.119,-3.119,-3.1249,-3.1351,-3.1468,-3.1932,-3.2681,-3.3029,-3.3404,-3.3807,-3.3807,-3.3807,-3.3807,-3.3807,-3.3807,-3.3807,-3.3807,-3.3807,-3.3807,-3.3807,-3.3807,-3.3807,-3.3807,-3.3807,-3.3829,0.0,0.0,0.0,0.0,0.0,0.0,0.0,0.0,0.0,0.0,0.0,0.0,-3.5504,-3.5504,-3.5504,-3.5504,-3.5504,-3.5504,-3.5504,-3.5504,-3.5504,-3.5504,-3.5474,0.0,-3.4518,-3.3799,-3.314,-3.2512,-3.1824,-3.1511,-3.1511,-3.1511,-3.1511,-3.1511,-3.1511,-3.1511,-3.1511,-3.1511,-3.1511,-3.1511,-3.1511,-3.1511,-3.1511,-3.1511,-3.1511,-3.1511,-3.1511,-3.1511,-3.1511,-3.1511,-3.1511,-3.1376,-3.0717,-3.0088,-2.9472,0.0,0.0,0.0,-2.76,-2.76,-2.76,-2.76,-2.76,-2.76,-2.76,-2.76,-2.7785,-2.8415,-2.9012,-2.9585,-3.023,-3.0818,-3.119,-3.119,-3.119,-3.119,-3.119,-3.119,-3.119,-3.119,-3.119,-3.119,-3.119,-3.119,-3.119,-3.119,-3.119,-3.119,-3.119,-3.119,-3.119,-3.119,-3.119,-3.1372,-3.1771,-3.2213,-3.2681,-3.3169,-3.3199,-3.3404,-3.3807,-3.3807,-3.3807,-3.3807,-3.3807,-3.3807,-3.3807,-3.3807,-3.3807,-3.3807,-3.3807,-3.3807,-3.3807,-3.3807,-3.3807,-3.3788,0.0,0.0,0.0,0.0,0.0,0.0,0.0,0.0,0.0,0.0,0.0,0.0,0.0,-3.5504,-3.5504,-3.5504,-3.5504,-3.5504,-3.5504,-3.5504,-3.5504,-3.5504,-3.5504,-3.5385,-3.5145,-3.4472,-3.3799,-3.314,-3.2452,-3.1914,-3.1511,-3.1511,-3.1511,-3.1511,-3.1511,-3.1511,-3.1511,-3.1511,-3.1511,-3.1511,-3.1511,-3.1511,-3.1511,-3.1511,-3.1511,-3.1511,-3.1511,-3.1511,-3.1511,-3.1511,-3.1511,-3.1316,-3.0253,-2.9786,-2.9397,-2.8289,-2.7794,-2.76,-2.76,-2.76,-2.76,-2.76,-2.76,-2.76,-2.76,-2.76,-2.776,-2.8383,-2.8989,-2.9585,-3.0187,-3.0797,-3.119,-3.119,-3.119,-3.119,-3.119,-3.119,-3.119,-3.119,-3.119,-3.119,-3.119,-3.119,-3.119,-3.119,-3.119,-3.119,-3.119,-3.119,-3.119,-3.119,-3.119,-3.1391,-3.1807,-3.2565,-3.3029,-3.3199,-3.3465,-3.3666,-3.3807,-3.3807,-3.3807,-3.3807,-3.3807,-3.3807,-3.3807,-3.3807,-3.3807,-3.3807,-3.3807,-3.3807,-3.3807,-3.3807,-3.3807,-3.3807,0.0,0.0,0.0,0.0,0.0,0.0,0.0,0.0,-3.5504,-3.5504,0.0,0.0,0.0,0.0,-3.5504,-3.5504,-3.5504,-3.5504,-3.5504,-3.5504,-3.5504,-3.5504,-3.5504,-3.5504,-3.5504,-3.4607,-3.3933,-3.3499,-3.2617,-3.1929,-3.1511,-3.1511,-3.1511,-3.1511,-3.1511,-3.1511,-3.1511,-3.1511,-3.1511,-3.1511,-3.1511,-3.1511,-3.1511,-3.1511,-3.1511,-3.1511,-3.1511,-3.1511,-3.1511,-3.1511,-3.1346,-3.0972,-2.9924,-2.9292,-2.8753,-2.7854,-2.76,-2.76,-2.76,-2.76,-2.76,-2.76,-2.76,-2.76,-2.76,-2.76,-2.776,-2.8383,-2.8989,-2.9585,-3.0187,-3.0797,-3.119,-3.119,-3.119,-3.119,-3.119,-3.119,-3.119,-3.119,-3.119,-3.119,-3.119,-3.119,-3.119,-3.119,-3.119,-3.1252,-3.1391,-3.1391,-3.1391,-3.1391,-3.1545,-3.1769,-3.2022,-3.295,-3.339,-3.339,-3.368,-3.3807,-3.3807,-3.3807,-3.3807,-3.3807,-3.3807,-3.3807,-3.3807,-3.3807,-3.3807,-3.3807,-3.3807,-3.3807,-3.3807,-3.3807,-3.3807,-3.3807,0.0,0.0,0.0,0.0,0.0,0.0,0.0,0.0,-3.5504,-3.5504,0.0,0.0,0.0,0.0,0.0,-3.5504,-3.5504,-3.5504,-3.5504,-3.5504,-3.5504,-3.5504,-3.5504,-3.5504,-3.5504,-3.4203,-3.3514,-3.3499,-3.2168,-3.1525,-3.1511,-3.1511,-3.1511,-3.1511,-3.1511,-3.1511,-3.1511,-3.1511,-3.1511,-3.1511,-3.1511,-3.1511,-3.1511,-3.1511,-3.1511,-3.1511,-3.1511,-3.1511,-3.1511,-3.1511,-3.1047,-3.0387,-2.9786,-2.8663,-2.76,-2.76,-2.76,-2.76,0.0,0.0,0.0,-2.76,-2.76,-2.76,-2.76,-2.76,-2.776,-2.8343,-2.8966,-2.9585,-3.0166,-3.0777,-3.119,-3.119,-3.119,-3.119,-3.119,-3.119,-3.119,-3.119,-3.119,-3.119,-3.119,-3.119,-3.119,-3.119,-3.119,-3.137,-3.1752,-3.1789,-3.1789,-3.1807,-3.223,-3.2484,-3.2501,-3.3343,-3.3793,-3.3807,-3.3807,-3.3807,-3.3807,-3.3807,-3.3807,-3.3807,-3.3807,-3.3807,-3.3807,-3.3807,-3.3807,-3.3807,-3.3807,-3.3807,-3.3807,-3.3807,-3.3807,-3.3807,0.0,0.0,0.0,0.0,0.0,-3.5504,-3.5504,-3.5504,-3.5504,0.0,0.0,0.0,-3.5504,-3.5504,-3.5504,-3.5504,-3.5504,-3.5504,-3.5504,-3.5504,-3.5504,-3.5504,-3.5504,-3.5504,-3.5504,-3.4651,-3.3978,-3.3499,-3.2647,-3.1974,-3.1511,-3.1511,-3.1511,-3.1511,-3.1511,-3.1511,-3.1511,-3.1511,-3.1511,-3.1511,-3.1511,-3.1511,-3.1511,-3.1511,-3.1511,-3.1511,-3.1511,-3.1511,-3.1511,-3.1511,-3.1047,-3.0313,-2.922,-2.8304,-2.76,-2.76,-2.76,-2.76,-2.76,0.0,0.0,0.0,0.0,0.0,-2.76,-2.76,-2.765,-2.781,-2.8685,-2.9451,-2.9629,-3.0497,-3.119,-3.119,-3.119,-3.119,-3.119,-3.119,-3.119,-3.119,-3.119,-3.119,-3.119,-3.119,-3.119,0.0,-3.119,-3.1249,-3.1351,-3.137,-3.1507,-3.1789,-3.1933,-3.2161,-3.2501,-3.3075,-3.3508,-3.3807,-3.3807,-3.3807,-3.3807,-3.3807,-3.3807,-3.3807,-3.3807,-3.3807,-3.3807,-3.3807,-3.3807,-3.3807,-3.3807,-3.3807,-3.3807,-3.3807,-3.3807,-3.3807,0.0,0.0,0.0,0.0,0.0,-3.5504,-3.5504,-3.5504,-3.5504,0.0,0.0,0.0,-3.5504,-3.5504,-3.5504,-3.5504,-3.5504,-3.5504,-3.5504,-3.5504,-3.5504,-3.5504,-3.5504,-3.5504,-3.5504,-3.4562,-3.3873,-3.3499,-3.2557,-3.1884,-3.1511,-3.1511,-3.1511,-3.1511,-3.1511,-3.1511,-3.1511,-3.1511,-3.1511,-3.1511,-3.1511,-3.1511,-3.1511,-3.1511,-3.1511,-3.1539,-3.1853,-3.1768,-3.1568,-3.1853,-3.1134,-2.9894,-2.8577,-2.7914,-2.76,-2.76,-2.76,-2.76,-2.76,-2.76,-2.76,-2.76,0.0,0.0,-2.76,-2.76,-2.766,-2.7919,-2.8519,-2.918,-2.9673,-3.0351,-3.0898,-3.1151,-3.119,-3.119,-3.119,-3.119,-3.119,-3.119,-3.119,-3.119,-3.119,-3.119,-3.119,-3.119,-3.119,-3.1271,-3.1449,-3.1449,-3.1564,-3.1789,-3.1986,-3.2213,-3.2501,-3.3136,-3.3564,-3.3807,-3.3807,-3.3807,-3.3807,-3.3807,-3.3807,-3.3807,-3.3807,-3.3807,-3.3807,-3.3807,-3.3807,-3.3807,-3.3807,-3.3807,-3.3807,-3.3807,-3.3807,-3.3807,0.0,0.0,-3.5504,-3.5504,-3.5504,-3.5504,-3.5504,-3.5504,-3.5504,0.0,-3.5504,-3.5504,-3.5504,-3.5504,-3.5504,-3.5504,-3.5504,-3.5504,-3.5504,-3.5504,-3.5504,-3.5504,-3.5504,-3.5474,-3.5385,-3.4143,-3.3455,-3.338,-3.2108,-3.1511,-3.1511,-3.1511,-3.1511,-3.1511,-3.1511,-3.1511,-3.1511,-3.1511,-3.1511,-3.1511,-3.1511,-3.1511,-3.1511,-3.1582,-3.1611,-3.171,-3.2449,-3.2299,-3.1794,-3.2225,-3.114,-2.9382,-2.8019,-2.76,-2.76,-2.76,-2.76,-2.76,-2.76,-2.76,-2.76,-2.76,-2.76,0.0,-2.76,-2.76,-2.776,-2.8286,-2.8439,-2.8826,-2.9892,-3.0145,-3.0393,-3.0918,-3.1055,-3.1131,-3.119,-3.119,-3.119,-3.119,-3.119,-3.119,-3.119,-3.119,-3.119,-3.119,-3.119,-3.1389,-3.1789,-3.1752,-3.1771,-3.1862,-3.223,-3.2467,-3.2583,-3.3361,-3.3748,-3.3807,-3.3807,-3.3807,-3.3807,-3.3807,-3.3807,-3.3807,-3.3807,-3.3807,-3.3807,-3.3807,-3.3807,-3.3807,-3.3807,-3.3807,-3.3807,-3.3807,-3.3807,-3.3807,0.0,-3.5504,-3.5504,-3.5504,-3.5504,-3.5504,-3.5504,-3.5504,-3.5504,-3.5504,-3.5504,-3.5504,-3.5504,-3.5504,-3.5504,-3.5504,-3.5504,-3.5504,-3.5504,-3.5504,-3.5504,-3.5504,-3.5504,-3.525,-3.4728,-3.3903,-3.3245,-3.2706,-3.1884,-3.1511,-3.1511,-3.1511,-3.1511,-3.1511,-3.1511,-3.1511,-3.1511,-3.1511,-3.1511,-3.1511,-3.1511,-3.1511,-3.1553,-3.2176,-3.2382,-3.2477,-3.3156,-3.3313,-3.2956,-3.1493,-3.0372,-2.9382,-2.8019,-2.76,-2.76,-2.76,-2.76,-2.76,-2.76,-2.76,-2.76,-2.76,-2.76,0.0,-2.76,-2.76,-2.7625,-2.776,-2.8165,-2.8559,-2.8803,-2.9248,-2.9607,-2.9739,-3.0166,-3.0658,-3.1131,-3.119,-3.119,-3.119,-3.119,-3.119,-3.119,-3.119,-3.119,-3.119,-3.119,-3.1389,-3.1789,-3.1488,-3.1638,-3.235,-3.2092,-3.2298,-3.306,-3.3229,-3.348,-3.3807,-3.3807,-3.3807,-3.3807,-3.3807,-3.3807,-3.3807,-3.3807,-3.3807,-3.3807,-3.3807,-3.3807,-3.3807,-3.3807,-3.3807,-3.3807,-3.3807,-3.3807,-3.3807,-3.5504,-3.5504,-3.5504,-3.5504,-3.5504,-3.5504,-3.5504,-3.5504,-3.5504,-3.5504,-3.5504,-3.5504,-3.5504,-3.5504,-3.5504,-3.5504,-3.5504,-3.5504,-3.5504,-3.5504,-3.5504,-3.5504,-3.5504,-3.519,-3.4518,-3.3829,-3.317,-3.2512,-3.1824,-3.1511,-3.1511,-3.1511,-3.1697,-3.2035,-3.1668,-3.1682,-3.2035,-3.1668,-3.1511,-3.1511,-3.1511,-3.1511,-3.1582,-3.2327,-3.2586,-3.2749,-3.3735,-3.3887,-3.3297,-3.1283,-3.0143,-2.9382,-2.8019,-2.76,-2.76,-2.76,-2.76,-2.76,-2.76,-2.76,-2.76,-2.76,-2.76,0.0,0.0,-2.76,-2.76,-2.76,-2.7835,-2.814,-2.8439,-2.8756,-2.9058,-2.9361,-2.9651,-2.9973,-3.0251,-3.0818,-3.119,-3.119,-3.119,-3.119,-3.119,-3.119,-3.119,-3.119,-3.119,-3.1291,-3.1488,-3.131,-3.1389,-3.1841,-3.1824,-3.2144,-3.284,-3.284,-3.3166,-3.3807,-3.3592,-3.3606,-3.3807,-3.3807,-3.3807,-3.3807,-3.3807,-3.3807,-3.3807,-3.3807,-3.3807,-3.3807,-3.3807,-3.3807,-3.3807,-3.3807,-3.3807,-3.3807,-3.5504,-3.5504,-3.5504,-3.5504,-3.5504,-3.5504,-3.5504,-3.5504,-3.5504,-3.5504,-3.5504,-3.5504,-3.5504,-3.5504,-3.5554,-3.5701,-3.5701,-3.5701,-3.5701,-3.5701,-3.5576,-3.531,-3.531,-3.4921,-3.4113,-3.3574,-3.2976,-3.2303,-3.1765,-3.1511,-3.1511,-3.1511,-3.1824,-3.2355,-3.191,-3.1951,-3.2355,-3.1894,-3.164,-3.1496,-3.1668,-3.164,-3.1582,-3.2449,-3.2788,-3.2975,-3.4309,-3.4358,-3.3501,-3.147,-3.0335,-2.9539,-2.807,-2.76,-2.76,-2.76,-2.76,-2.76,-2.76,-2.76,-2.76,-2.76,-2.76,-2.76,0.0,0.0,0.0,-2.76,-2.76,-2.776,-2.8238,-2.8334,-2.8441,-2.88,-2.9078,-2.913,-2.8882,-2.9892,-3.0711,-3.0841,-3.1055,-3.1151,-3.1035,-3.1131,-3.119,-3.119,-3.119,-3.119,-3.119,-3.119,-3.1249,-3.131,-3.164,-3.2039,-3.2501,-3.2583,-3.2981,-3.368,-3.3419,-3.3494,-3.3807,-3.3807,-3.3807,-3.3807,-3.3807,-3.3807,-3.3807,-3.3807,-3.3807,-3.3807,-3.3807,-3.3807,-3.3807,-3.3807,-3.3807,-3.3807,-3.5504,-3.5504,-3.5504,-3.5504,-3.5504,-3.5504,-3.5504,-3.5504,-3.5504,-3.5504,-3.5504,-3.5504,-3.5504,-3.5504,-3.575,-3.6415,-3.6477,-3.6477,-3.6477,-3.6477,-3.5921,-3.4685,-3.4623,-3.4008,-3.2766,-3.2662,-3.2273,-3.1615,-3.154,-3.1511,-3.1511,-3.1511,-3.1524,-3.164,-3.2216,-3.2176,-3.1668,-3.2216,-3.2092,-3.1553,-3.2216,-3.2092,-3.1668,-3.2971,-3.3495,-3.3659,-3.5005,-3.5052,-3.4193,-3.2144,-3.1038,-3.014,-2.8193,-2.76,-2.76,-2.76,-2.76,-2.76,-2.76,-2.76,-2.76,-2.76,-2.76,-2.76,-2.76,0.0,-2.76,-2.76,0.0,-2.7625,-2.7685,0.0,0.0,-2.7001,-2.7863,-2.8194,-2.6994,-2.7917,-2.8947,-2.9526,-3.0539,-3.0995,-3.0456,-3.0878,-3.119,-3.119,-3.119,-3.119,-3.119,-3.119,-3.137,-3.1733,-3.1771,-3.2039,-3.2501,-3.2921,-3.3184,-3.3273,-3.3578,-3.3748,-3.3807,-3.3807,-3.3807,-3.3807,-3.3807,-3.3807,-3.3807,-3.3807,-3.3807,-3.3807,-3.3807,-3.3807,-3.3807,-3.3807,-3.3807,-3.3807,-3.5504,-3.5504,-3.5504,-3.5504,-3.5504,-3.5504,-3.5504,-3.5504,-3.5504,-3.5504,-3.5504,-3.5504,-3.5504,-3.5504,-3.5619,-3.5911,-3.5943,-3.5943,-3.5943,-3.5943,-3.5528,-3.4533,-3.4503,-3.3858,-3.2542,-3.2512,-3.2168,-3.1511,-3.1511,-3.1511,-3.1511,-3.1511,-3.171,-3.2148,-3.2007,-3.2035,-3.2148,-3.2007,-3.1796,-3.1553,-3.2299,-3.241,-3.2299,-3.3659,-3.4423,-3.4823,-3.5402,-3.5184,-3.429,-3.228,-3.1146,-3.0252,-2.8243,-2.76,-2.76,-2.76,-2.76,-2.76,-2.76,-2.76,-2.76,-2.76,-2.76,-2.76,-2.76,-2.76,-2.76,-2.76,0.0,0.0,0.0,0.0,0.0,0.0,-2.7297,-2.7194,-2.664,-2.6976,-2.7522,-2.8169,-2.9018,-2.9774,-3.026,-3.0518,-3.0821,-3.1171,-3.0878,-3.0838,-3.1171,-3.119,-3.1271,-3.1449,-3.1468,-3.1658,-3.2092,-3.2074,-3.2417,-3.3199,-3.3105,-3.3314,-3.3807,-3.3807,-3.3807,-3.3807,-3.3807,-3.3807,-3.3807,-3.3807,-3.3807,-3.3807,-3.3807,-3.3807,-3.3807,-3.3807,-3.3807,-3.3807,-3.5504,-3.5504,-3.5504,-3.5504,-3.5504,-3.5504,-3.5504,-3.5504,-3.5504,-3.5504,-3.5504,-3.5504,-3.5504,-3.5504,-3.5587,-3.5782,-3.5814,-3.5723,-3.5542,-3.5542,-3.507,-3.4009,-3.3933,-3.341,-3.2243,-3.2213,-3.1989,-3.1511,-3.1511,-3.1511,-3.1511,-3.1511,-3.1796,-3.2272,-3.1951,-3.1979,-3.2272,-3.1923,-3.1682,-3.1582,-3.2489,-3.3093,-3.3495,-3.4309,-3.5028,-3.56,-3.56,-3.5159,-3.4303,-3.2452,-3.1286,-3.0239,-2.8417,-2.7735,-2.76,-2.76,-2.76,-2.76,-2.76,-2.76,-2.76,-2.76,-2.76,-2.76,-2.76,-2.76,-2.76,-2.76,-2.76,0.0,0.0,0.0,-2.754,-2.736,0.0,-2.6467,-2.6093,-2.6016,-2.6211,-2.6824,-2.7491,-2.8367,-2.9662,-2.977,-3.01,-3.0882,-3.0539,-3.0559,-3.1171,-3.119,-3.119,-3.119,-3.119,-3.1332,-3.1623,-3.1468,-3.1914,-3.2999,-3.2793,-3.3072,-3.3807,-3.3807,-3.3807,-3.3807,-3.3807,-3.3807,-3.3807,-3.3807,-3.3807,-3.3807,-3.3807,-3.3807,-3.3807,-3.3807,-3.3807,-3.3807,-3.5504,-3.5504,-3.5504,-3.5504,-3.5504,-3.5504,-3.5504,-3.5504,-3.5504,-3.5504,-3.5504,-3.5504,-3.5504,-3.5504,-3.5782,-3.6492,-3.6538,-3.6306,-3.564,-3.5594,-3.4695,-3.2661,-3.2572,-3.2228,-3.1555,-3.154,-3.1525,-3.1511,-3.1511,-3.1511,-3.1511,-3.1511,-3.1496,-3.1553,-3.2244,-3.216,-3.1582,-3.2272,-3.2132,-3.1611,-3.3024,-3.435,-3.5447,-3.4847,-3.5028,-3.56,-3.56,-3.5126,-3.4295,-3.294,-3.1596,0.0,0.0,-2.8067,-2.76,-2.76,-2.76,-2.76,-2.76,-2.76,-2.76,-2.76,-2.76,-2.76,-2.76,-2.76,-2.76,-2.76,-2.76,-2.76,-2.76,-2.76,-2.739,-2.6746,-2.6602,0.0,0.0,-2.4672,-2.4919,-2.5571,-2.619,-2.7045,-2.8351,-2.8458,-2.8984,0.0,-3.0314,-3.0559,-3.1171,-3.119,-3.119,-3.119,-3.119,-3.121,-3.121,-3.1603,-3.2022,-3.2534,-3.2968,-3.3408,-3.3807,-3.3807,-3.3807,-3.3807,-3.3807,-3.3807,-3.3807,-3.3807,-3.3807,-3.3807,-3.3807,-3.3807,-3.3807,-3.3807,-3.3807,-3.3807,-3.5504,-3.5504,-3.5504,-3.5504,-3.5504,-3.5504,-3.5504,-3.5504,-3.5504,-3.5504,-3.5504,-3.5504,-3.5504,-3.5504,-3.5424,-3.5227,-3.5198,-3.4925,-3.4243,-3.4213,-3.3713,-3.2557,-3.2512,-3.2183,-3.1511,-3.1511,-3.1511,-3.1511,-3.1511,-3.1511,-3.1511,-3.1511,-3.1511,-3.1511,-3.1768,-3.1739,-3.1511,-3.1768,-3.171,-3.1625,-3.3024,-3.3862,-3.435,-3.5005,-3.5385,-3.56,-3.56,-3.5131,0.0,-3.2498,-3.1281,-3.0186,-2.8446,-2.776,-2.76,-2.76,-2.76,-2.76,0.0,0.0,-2.76,-2.76,0.0,-2.76,-2.76,-2.76,-2.76,-2.76,-2.76,-2.76,-2.76,-2.76,-2.7525,-2.73,-2.6896,-2.6288,0.0,-2.4507,-2.4029,-2.4253,-2.5203,-2.6184,-2.7052,-2.7911,0.0,-2.9589,-3.005,-3.0559,-3.1171,-3.119,-3.119,-3.119,-3.119,-3.119,-3.119,-3.1332,-3.1769,-3.2501,-3.2665,-3.3121,-3.3807,-3.3807,-3.3807,-3.3807,-3.3807,-3.3807,-3.3807,-3.3807,-3.3807,-3.3807,-3.3807,-3.3807,-3.3807,-3.3807,-3.3807,-3.3807,-3.5504,-3.5504,-3.5504,-3.5504,-3.5504,-3.5504,-3.5504,-3.5504,-3.5504,-3.5504,-3.5504,-3.5415,-3.516,-3.513,-3.4861,-3.4188,-3.4128,-3.3844,-3.3185,-3.314,-3.2856,-3.2168,-3.2138,-3.1929,-3.1511,-3.1511,-3.1511,-3.1511,-3.1511,-3.1511,-3.1511,-3.1511,-3.1511,-3.1511,-3.1511,-3.1511,-3.1511,-3.1511,-3.1511,-3.1625,-3.3024,-3.3735,-3.4087,-3.5184,-3.5447,-3.5276,0.0,-3.4957,-3.3886,-3.24,-3.1119,-2.9844,-2.8385,-2.776,-2.76,-2.76,-2.76,-2.76,-2.76,-2.76,0.0,-2.76,-2.76,0.0,-2.76,0.0,-2.76,-2.76,-2.76,-2.76,-2.76,-2.76,-2.76,-2.76,-2.7046,-2.6273,0.0,-2.4507,-2.3879,-2.3625,-2.4322,-2.5278,-2.6386,-2.682,-2.7768,-2.9515,-2.9636,-3.0092,-3.1134,-3.119,-3.119,-3.119,-3.119,-3.119,-3.119,-3.119,-3.1638,-3.2501,-3.2501,-3.2887,-3.3578,-3.3734,-3.3721,-3.3592,-3.3734,-3.3807,-3.3807,-3.3807,-3.3807,-3.3807,-3.3807,-3.3807,-3.3807,-3.3807,-3.3807,-3.3807,-3.5415,-3.5415,-3.5415,-3.5415,-3.5459,-3.5504,-3.5504,-3.5474,-3.5459,-3.5459,-3.5429,-3.516,-3.4533,-3.4459,-3.4189,-3.3499,-3.344,-3.317,-3.2482,-3.2437,-3.2153,-3.1525,-3.1511,-3.1511,-3.1511,-3.1511,-3.1511,-3.1511,-3.1511,-3.1511,-3.1511,-3.1511,-3.1511,-3.1511,-3.1511,-3.1511,-3.1511,-3.1511,-3.1511,-3.1611,-3.2997,-3.3937,-3.4592,-3.5276,-3.5121,-3.4624,-3.5305,-3.4602,-3.3262,-3.2619,-3.1047,-2.9248,-2.8654,-2.8067,-2.76,-2.76,-2.76,-2.76,-2.76,-2.76,-2.76,-2.76,-2.76,0.0,0.0,0.0,-2.76,0.0,0.0,0.0,-2.76,-2.76,-2.76,-2.76,-2.7046,-2.6153,-2.4874,-2.4649,-2.4365,-2.3729,-2.3655,-2.4344,-2.6174,-2.5355,-2.6207,-2.9882,-2.9102,-2.9249,-3.11,-3.1171,-3.1171,-3.119,-3.119,-3.119,-3.119,-3.119,-3.162,-3.2467,-3.2467,-3.2713,-3.3184,-3.3578,-3.3564,-3.3229,-3.3638,-3.3807,-3.3807,-3.3807,-3.3807,-3.3807,-3.3807,-3.3807,-3.3807,-3.3807,-3.3807,-3.3807,-3.4098,-3.4008,-3.4008,-3.4008,-3.4846,-3.5504,-3.5504,-3.507,-3.4773,-3.4773,-3.4307,-3.3948,-3.3769,-3.3754,-3.3484,-3.2826,-3.2766,-3.2452,-3.1795,-3.1765,-3.1675,-3.1511,-3.1511,-3.1511,-3.1511,-3.1511,-3.1511,-3.1511,-3.1511,-3.1511,-3.1511,-3.1511,-3.1511,-3.1511,-3.1511,-3.1511,-3.1511,-3.1511,-3.1511,-3.1582,-3.2504,-3.296,-3.3235,-3.4406,-3.4431,-3.3947,-3.4549,-3.3889,-3.2564,-3.1388,-2.9987,-2.863,-2.8018,-2.771,-2.76,-2.76,-2.76,-2.76,-2.76,-2.76,-2.76,-2.76,-2.76,-2.76,0.0,0.0,0.0,0.0,0.0,0.0,0.0,-2.76,-2.76,-2.76,-2.7046,-2.6467,-2.6138,-2.5217,-2.4545,-2.4365,-2.4335,-2.4327,-2.4344,-2.5358,-2.6608,-2.8026,-2.8753,-2.974,-3.1134,-3.076,-3.074,-3.119,-3.119,-3.119,-3.119,-3.119,-3.1468,-3.1969,-3.1969,-3.223,-3.2697,-3.3151,-3.3302,-3.3229,-3.3638,-3.3807,-3.3807,-3.3807,-3.3807,-3.3807,-3.3807,-3.3807,-3.3807,-3.3807,-3.3807,-3.3807,-3.3498,-3.3499,-3.3499,-3.3499,-3.4113,-3.4637,-3.4637,-3.4307,-3.4174,-3.4474,-3.3934,-3.3499,-3.3499,-3.3245,-3.2796,-3.2108,-3.2049,-3.1899,-3.1525,-3.1511,-3.1511,-3.1511,-3.1511,-3.1511,-3.1511,-3.1511,-3.1511,-3.1511,-3.1511,-3.1511,-3.1511,-3.1511,-3.1511,-3.1511,-3.1511,-3.1511,-3.1511,-3.1511,-3.1511,-3.1553,-3.2299,-3.2586,0.0,-3.3761,-3.3743,-3.3164,-3.3175,-3.2695,-3.1846,-3.0553,-2.9375,-2.8391,-2.7785,-2.76,-2.76,-2.76,-2.7785,-2.7959,-2.766,-2.7785,-2.7919,-2.7675,-2.76,-2.76,-2.76,-2.76,-2.76,0.0,-2.76,-2.76,0.0,0.0,-2.76,-2.76,-2.7285,-2.6941,-2.6632,-2.5959,-2.5375,-2.5068,-2.4784,-2.4575,-2.4477,-2.5462,-2.6581,-2.7753,-2.8303,-2.9225,-3.0723,-3.0477,-3.0597,-3.1171,-3.119,-3.119,-3.119,-3.119,-3.1391,-3.1807,-3.1807,-3.1933,-3.2196,-3.2681,-3.2887,-3.2921,-3.3346,-3.3652,-3.3807,-3.3807,-3.3807,-3.3807,-3.3807,-3.3807,-3.3807,-3.3807,-3.3807,-3.3807,-3.2786,-3.3001,-3.3078,-3.3078,-3.3169,-3.3245,-3.3245,-3.3305,-3.3574,-3.4174,-3.3649,-3.3275,-3.3365,-3.2856,-3.2258,-3.169,-3.163,-3.1585,-3.1511,-3.1511,-3.1511,-3.1511,-3.1511,-3.1511,-3.1511,-3.1511,-3.1511,-3.1511,-3.1511,-3.1511,-3.1511,-3.1511,-3.1511,-3.1511,-3.1511,-3.1511,-3.1511,-3.1511,-3.1511,-3.1553,-3.2203,-3.252,-3.2652,-3.314,-3.2969,-3.2356,-3.1533,-3.1246,-3.1062,-2.985,-2.8991,-2.8286,-2.776,-2.76,-2.76,-2.76,-2.7968,-2.8286,-2.7735,-2.7968,-2.8262,-2.7735,-2.76,-2.76,-2.76,-2.76,-2.76,-2.76,-2.76,-2.76,-2.76,-2.76,-2.7625,-2.771,-2.7635,-2.744,-2.7025,-2.6768,-2.6426,-2.5912,-2.5272,0.0,-2.5555,-2.5615,-2.6352,-2.8162,-2.7793,-2.8334,-3.0197,-3.023,-3.0497,-3.1171,-3.119,-3.119,-3.119,-3.119,-3.1389,-3.1716,-3.1716,-3.1716,-3.1734,-3.2213,-3.2417,-3.2451,-3.2968,-3.3408,-3.3721,-3.3793,-3.3807,-3.3788,-3.3734,-3.3748,-3.3807,-3.3807,-3.3733,-3.3642,-2.9862,-3.0371,-3.0858,-3.0858,-3.1397,-3.1854,-3.1854,-3.2303,-3.2721,-3.2841,-3.2258,-3.2049,-3.2617,-3.2557,-3.2437,-3.2333,-3.2303,-3.2079,-3.154,-3.1511,-3.1511,-3.1511,-3.1511,-3.1511,-3.1511,-3.1511,-3.1511,-3.1511,-3.1511,-3.1511,-3.1511,-3.1511,-3.1511,-3.1511,-3.1511,-3.1511,-3.1511,-3.1511,-3.1511,-3.1496,-3.164,-3.2064,-3.2552,-3.2111,-3.1883,-3.1602,-3.0373,-2.9929,-2.981,-2.8986,-2.8281,-2.7735,-2.7625,-2.76,-2.76,-2.76,-2.766,-2.7735,-2.7625,-2.7675,-2.7735,-2.7625,-2.76,-2.76,-2.76,-2.76,-2.76,-2.76,-2.76,-2.76,-2.76,0.0,-2.776,-2.8262,-2.7919,-2.7898,-2.8793,-2.7586,-2.6744,-2.7119,-2.6606,-2.6078,-2.5644,-2.5615,-2.6182,-2.7555,-2.7597,-2.838,-3.0192,0.0,-3.0043,0.0,-3.119,-3.119,0.0,0.0,-3.1249,-3.131,-3.131,-3.131,-3.1312,-3.1733,-3.1915,-3.1969,-3.2825,-3.3243,-3.3332,-3.3666,-3.3807,-3.378,-3.3419,-3.3508,-3.3807,-3.3807,-3.3385,-3.2803,-2.9058,-2.969,-3.0299,-3.0299,-3.097,-3.1511,-3.1511,-3.1765,-3.2093,-3.2437,-3.2213,-3.2258,-3.2961,-3.3021,-3.2886,-3.2542,-3.2512,-3.2213,-3.154,-3.1511,-3.1511,-3.1511,-3.1511,-3.1511,-3.1511,-3.1511,-3.1511,-3.1511,-3.1511,-3.1511,-3.1511,-3.1511,-3.1511,-3.1511,-3.1511,-3.1511,-3.1511,-3.1511,-3.1511,-3.1466,-3.1122,-3.1183,-3.1454,-3.0799,-3.0342,-2.9946,-2.9317,-2.8869,-2.8503,-2.8149,-2.7835,-2.76,-2.76,-2.76,-2.766,-2.7968,-2.8067,-2.8067,-2.8067,-2.8067,-2.7993,-2.7675,-2.76,-2.76,-2.76,-2.76,-2.76,-2.76,-2.76,-2.76,-2.76,-2.76,0.0,0.0,0.0,-2.8271,-2.885,-2.8161,-2.7579,-2.754,-2.7001,-2.6602,-2.6617,-2.6318,-2.6371,-2.6983,-2.7384,-2.8255,-2.9761,0.0,-2.9935,0.0,0.0,0.0,-3.119,0.0,-3.119,-3.119,-3.119,-3.119,-3.121,-3.1391,-3.1603,-3.1825,-3.2281,-3.2598,-3.284,-3.306,-3.3136,-3.3136,-3.3184,-3.3317,-3.3454,-3.3263,-3.2931,-3.2601,-2.8684,-2.9442,-3.0072,-3.0269,-3.097,-3.1511,-3.1511,-3.1511,-3.169,-3.2213,-3.2392,-3.2766,-3.3425,-3.3499,-3.329,-3.2766,-3.2572,-3.2213,-3.154,-3.1511,-3.1511,-3.1511,-3.1511,-3.1511,-3.1511,-3.1511,-3.1511,-3.1511,-3.1511,-3.1436,-3.1286,-3.1436,-3.1511,-3.1511,-3.1511,-3.1511,-3.1511,0.0,-3.1421,-3.1241,-3.0717,-3.0417,-3.0238,-2.9609,-2.9056,-2.8577,-2.8427,-2.8064,-2.76,-2.76,-2.76,-2.76,-2.76,-2.76,-2.7685,-2.8165,-2.831,-2.831,-2.831,-2.831,-2.8238,-2.7885,-2.7685,-2.7625,-2.776,-2.7685,-2.76,-2.76,-2.76,-2.76,-2.76,-2.76,0.0,0.0,0.0,0.0,-2.8662,-2.8583,-2.8319,-2.786,-2.721,-2.708,-2.774,-2.7195,-2.687,-2.6977,-2.7484,-2.8271,-2.9339,0.0,0.0,0.0,0.0,-3.1055,-3.119,0.0,-3.119,-3.119,-3.119,-3.119,-3.119,-3.119,-3.137,-3.1678,-3.1752,-3.2074,-3.2484,-3.2401,-3.2417,-3.2534,-3.2793,-3.2921,-3.2903,-3.2589,-3.2316,-3.2087,-2.767,-2.8524,-2.938,-3.0178,-3.097,-3.1511,-3.1511,-3.1511,-3.1525,-3.1585,-3.2108,-3.2766,-3.3425,-3.3499,-3.3469,-3.341,-3.2856,-3.2213,-3.154,-3.1511,-3.1511,-3.1511,-3.1511,-3.1511,-3.1511,-3.1511,-3.1511,-3.1511,-3.1511,-3.1182,-3.0612,-3.1212,-3.1511,-3.1511,-3.1511,0.0,0.0,-3.1511,-3.1137,-3.0597,-3.0537,-3.0163,-2.9594,-2.8951,-2.8652,-2.8517,-2.7914,-2.7645,-2.76,-2.76,-2.76,-2.76,-2.76,-2.76,-2.7625,-2.7675,-2.7685,-2.7685,-2.7685,-2.7685,-2.781,-2.8286,-2.7993,-2.7735,-2.8286,-2.7993,-2.76,-2.76,-2.76,-2.76,-2.76,-2.76,-2.781,0.0,0.0,0.0,0.0,-2.885,-2.8463,-2.8415,-2.7874,-2.775,-2.8367,-2.7874,-2.7729,-2.8275,-2.8384,-2.8709,-2.9361,0.0,0.0,-3.1151,-3.0679,-3.0658,-3.119,-3.119,-3.119,-3.119,-3.119,-3.119,-3.119,-3.119,-3.123,-3.1271,-3.1641,-3.2074,-3.2467,-3.2039,-3.2127,-3.2467,-3.2074,-3.2009,-3.2119,-3.2076,-3.1356,-3.043,-2.8427,-2.9192,-2.9889,-3.0238,-3.097,0.0,0.0,-3.1511,-3.1511,-3.1511,-3.2079,-3.2617,-3.2886,-3.326,-3.3335,-3.2946,-3.2662,-3.2213,-3.154,-3.1511,-3.1511,-3.1511,-3.1511,-3.1511,-3.1511,-3.1511,-3.1511,-3.1511,-3.1511,-3.1361,-3.1107,-3.1376,-3.1511,-3.1511,0.0,-3.1271,-3.0883,-3.0883,-3.0537,-2.9909,-2.952,-2.922,-2.8921,-2.8274,-2.8004,-2.7974,-2.7705,-2.76,-2.76,-2.76,-2.76,-2.76,-2.76,-2.76,-2.7675,-2.8042,-2.787,-2.7685,-2.8042,-2.7885,-2.766,-2.791,-2.7785,-2.766,-2.7894,-2.776,-2.76,-2.76,-2.76,-2.771,-2.8067,-2.814,-2.8463,-2.9429,0.0,0.0,0.0,-2.8873,-2.8383,-2.7993,-2.8067,-2.8222,-2.8463,-2.8271,-2.8238,-2.8487,-2.8165,-2.8222,0.0,0.0,0.0,-3.0638,0.0,-3.0975,-3.119,-3.119,-3.119,-3.119,-3.119,-3.119,-3.119,-3.119,-3.119,-3.121,-3.137,-3.1562,-3.1712,-3.1524,-3.1545,-3.1731,-3.1771,-3.1551,-3.1214,-3.1267,-3.0672,-2.9804,-2.8939,0.0,-3.0359,0.0,-3.1117,-3.1511,-3.1511,-3.1511,-3.1511,-3.1511,-3.1914,-3.2273,-3.2497,-3.2931,-3.3021,-3.2557,-3.2303,-3.2004,-3.1525,-3.1511,-3.1511,-3.1511,-3.1511,-3.1511,-3.1511,-3.1511,-3.1511,-3.1511,-3.1511,-3.1406,-3.1212,0.0,0.0,0.0,-3.1286,-3.0928,-3.0492,-3.0313,-2.9879,-2.925,-2.8786,-2.8472,-2.8248,-2.7779,-2.76,-2.76,-2.76,-2.76,-2.76,-2.76,-2.76,-2.76,-2.76,-2.76,-2.7685,-2.8116,-2.7919,-2.7685,-2.8116,-2.7919,-2.7635,-2.781,-2.7735,-2.765,-2.7835,-2.7735,-2.76,-2.76,-2.76,-2.7735,-2.8165,-2.8367,-2.8779,-2.9629,0.0,0.0,0.0,-2.8756,-2.8286,-2.766,-2.7984,-2.8367,-2.8732,-2.8606,-2.8654,-2.8996,0.0,0.0,0.0,0.0,0.0,0.0,0.0,0.0,-3.119,-3.119,-3.119,-3.119,-3.119,-3.119,-3.119,-3.119,-3.119,-3.119,-3.119,-3.119,-3.119,-3.119,-3.119,-3.1213,-3.1268,-3.0921,-3.0351,-3.03,-2.9844,-2.9212,-2.8844,-2.969,-3.0554,-3.1351,-3.1511,-3.1511,-3.1511,-3.1511,-3.1511,-3.1511,-3.1511,-3.1765,-3.2437,-3.2497,-3.2497,-3.2512,-3.1884,-3.1511,-3.1511,-3.1511,-3.1511,0.0,-3.1511,-3.1511,-3.1511,-3.1511,-3.1511,-3.1511,0.0,0.0,-3.0507,0.0,-3.0881,-3.1466,-3.0821,-3.0507,-3.0462,-2.9849,-2.9205,-2.8607,-2.8607,-2.8188,-2.76,-2.76,-2.76,-2.76,-2.76,-2.76,-2.76,-2.76,-2.76,-2.76,-2.76,-2.76,-2.76,-2.7625,-2.7625,-2.76,-2.7625,-2.7625,-2.7735,-2.8343,-2.8042,-2.776,-2.8343,-2.8018,-2.76,-2.76,-2.76,-2.76,-2.7625,-2.8091,-2.8511,-2.8511,0.0,0.0,0.0,-2.8511,-2.8286,-2.766,-2.7625,-2.8076,-2.9271,-2.885,-2.8989,-3.0187,0.0,0.0,0.0,0.0,0.0,-3.1151,-3.0617,0.0,-3.119,-3.119,-3.119,-3.119,-3.119,-3.119,-3.119,-3.119,-3.119,-3.119,-3.119,-3.119,-3.119,-3.119,-3.119,-3.1123,-3.0395,-2.9876,-2.9469,-2.9149,-2.8748,-2.8476,-2.8939,-2.969,-3.0389,-3.0644,-3.1161,-3.1511,-3.1511,-3.1511,-3.1511,-3.1511,-3.1511,-3.1585,-3.1795,-3.1809,-3.1809,0.0,-3.163,-3.1511,0.0,-3.1511,-3.1511,-3.1511,-3.1511,-3.1511,-3.1511,-3.1511,-3.1511,-3.1511,0.0,0.0,0.0,-3.0717,-3.0612,-3.0806,-3.0163,-2.9624,-2.919,-2.8996,-2.8517,-2.7929,-2.7929,-2.7794,-2.76,-2.76,-2.76,-2.76,-2.76,-2.76,-2.76,-2.76,-2.76,-2.76,-2.76,-2.76,-2.76,-2.76,-2.76,-2.76,-2.76,-2.76,-2.765,-2.7835,-2.7735,-2.7635,-2.7835,-2.7735,-2.76,-2.76,-2.76,-2.7735,-2.814,-2.8709,-2.9248,-2.9651,-2.9892,0.0,-2.9203,0.0,-2.8286,-2.766,-2.7944,-2.8535,-2.9316,-2.9225,0.0,0.0,0.0,0.0,0.0,0.0,0.0,0.0,-3.0797,0.0,-3.119,-3.119,-3.119,-3.119,-3.119,-3.119,-3.119,-3.119,-3.119,-3.119,-3.119,-3.119,-3.119,-3.119,-3.119,-3.1123,-3.0395,-2.9709,-2.9143,-2.9041,-2.8592,-2.8102,-2.8524,-2.9223,-2.9827,-2.9827,-3.0494,-3.1058,-3.1058,-3.1307,-3.1511,-3.1511,-3.1511,-3.1511,-3.1511,-3.1511,0.0,-3.1511,-3.1511,-3.1511,-3.1511,-3.1511,-3.1511,-3.1511,-3.1511,-3.1511,-3.1511,-3.1511,0.0,-3.1511,-3.1241,-3.1122,-3.1107,-3.0462,-3.0163,-3.0133,-2.949,-2.8981,-2.8577,-2.8323,-2.7989,-2.76,-2.76,-2.76,-2.76,-2.76,-2.76,-2.76,-2.76,-2.76,-2.76,-2.76,-2.76,-2.76,-2.76,-2.76,-2.76,-2.76,-2.76,-2.76,-2.76,-2.76,-2.76,-2.76,-2.76,-2.76,-2.76,-2.76,-2.76,-2.76,-2.76,-2.7785,-2.8391,-2.8989,-2.9607,-3.0208,-3.0293,-3.0102,-2.9473,0.0,-2.8286,-2.766,-2.814,-2.8748,0.0,-2.9607,-2.9827,0.0,0.0,0.0,0.0,0.0,-3.0166,-3.0621,-3.1015,-3.119,-3.119,-3.119,-3.119,-3.119,-3.119,-3.119,-3.119,-3.119,-3.119,-3.119,-3.119,-3.119,-3.119,-3.119,-3.1038,-3.0717,-2.9973,-2.9228,-2.854,-2.859,-2.829,-2.7954,-2.7604,-2.8298,-2.8907,0.0,-2.9628,-3.0238,-3.0299,-3.094,-3.1438,-3.1511,-3.1511,-3.1511,-3.1511,-3.1511,-3.1511,-3.1511,0.0,0.0,-3.1511,-3.1511,-3.1511,-3.1511,-3.1511,-3.1511,-3.1511,-3.1511,-3.1481,-3.1436,-3.0748,-3.0432,-3.0417,-2.9804,-2.9532,-2.9517,-2.8831,-2.8532,-2.8487,-2.7869,-2.76,-2.76,-2.76,-2.76,-2.76,-2.76,-2.76,-2.76,-2.76,-2.76,-2.76,-2.76,-2.76,-2.76,-2.76,-2.76,-2.76,-2.76,-2.76,-2.76,-2.76,-2.76,-2.76,-2.76,-2.76,-2.76,-2.76,-2.76,-2.76,-2.76,-2.76,-2.776,-2.8319,-2.895,-2.9585,-3.0145,-3.0293,-3.0145,-2.9496,-2.8919,-2.8343,-2.7735,0.0,0.0,-2.9406,-2.9973,-3.0539,0.0,0.0,0.0,0.0,0.0,-2.9995,-3.1171,-3.119,-3.119,-3.119,-3.119,-3.119,-3.119,-3.119,-3.119,-3.119,-3.119,-3.119,-3.119,-3.119,-3.119,-3.119,-3.119,-3.0768,-3.004,-2.9297,-2.8501,-2.7793,-2.7842,-2.7869,-2.7911,0.0,0.0,-2.8019,-2.8019,-2.8716,-2.9535,-3.0208,-3.045,-3.0807,-3.1409,-3.1511,-3.1511,-3.1511,-3.1511,-3.1511,-3.1511,-3.1511,-3.1511,-3.1511,-3.1511,-3.1511,-3.1511,-3.1511,-3.1511,-3.1511,-3.1511,-3.1241,-3.0746,-3.0118,-2.9804,-2.9789,-2.9131,-2.8831,-2.8801,-2.8154,-2.7839,-2.7824,-2.766,-2.76,-2.76,-2.76,-2.76,-2.76,-2.76,-2.76,-2.76,-2.76,-2.76,-2.76,-2.76,-2.76,-2.76,-2.76,-2.76,-2.76,-2.76,-2.76,-2.76,-2.76,-2.76,-2.76,-2.76,-2.76,-2.76,-2.76,-2.76,-2.76,-2.76,-2.76,-2.7635,-2.7785,-2.867,-2.9451,-2.9585,-3.0393,-3.0617,-2.9563,-2.9271,-2.895,0.0,-2.8415,-2.8919,-2.9978,-3.0208,-3.0356,0.0,0.0,-3.0518,-3.0518,-3.0251,-3.0435,-3.1171,-3.119,-3.119,-3.119,-3.119,-3.119,-3.119,-3.119,-3.119,-3.119,-3.119,-3.119,-3.119,-3.119,-3.119,-3.119,-3.119,-3.0768,-3.004,-2.9297,-2.8501,-2.7775,-2.7533,-2.7439,-2.75,-2.6499,-2.685,-2.7162,-2.7162,-2.7855,-2.8716,-2.9566,-3.0042,-3.0584,-3.138,-3.1511,-3.1511,-3.1511,-3.1511,-3.1511,-3.1511,-3.1511,-3.1511,-3.1511,-3.1511,-3.1511,-3.1511,-3.1511,-3.1361,-3.1032,-3.1032,-3.0746,-3.0088,-2.9445,-2.9131,-2.9116,-2.8468,-2.8128,-2.8139,-2.7764,-2.76,-2.76,-2.76,-2.76,-2.76,-2.76,-2.76,-2.76,-2.76,-2.76,-2.76,-2.76,-2.76,-2.76,-2.76,-2.76,-2.76,-2.76,-2.76,-2.76,-2.76,-2.76,-2.76,-2.76,-2.76,-2.76,-2.76,-2.76,-2.76,-2.76,-2.76,-2.76,-2.76,-2.76,-2.776,-2.8328,-2.8973,-2.9585,-3.0145,-3.076,-3.0777,-2.9563,-2.9629,-2.9496,-2.8606,-2.8989,-2.9585,-3.023,-3.0539,-3.0699,-3.0699,-3.0699,0.0,-3.0699,-3.0699,-3.0858,-3.119,-3.119,-3.119,-3.119,-3.119,-3.119,-3.119,-3.119,-3.119,-3.119,-3.119,-3.119,-3.119,-3.119,-3.119,-3.1173,-3.0835,-3.026,-2.9516,-2.8755,-2.7977,-2.7301,-2.7302,-2.7303,-2.7317,-2.6499,-2.6499,-2.6499,-2.6499,-2.7074,-2.7802,-2.8684,-2.9442,-3.0238,-3.119,-3.1322,-3.138,-3.1511,-3.1511,-3.1511,-3.1511,-3.1511,-3.1511,-3.1511,-3.1511,-3.1511,-3.1511,-3.1406,-3.1077,-3.0507,-3.0313,-2.9953,-2.9457,-2.8771,-2.8442,-2.8427,-2.7869,-2.76,-2.76,-2.76,-2.76,-2.76,-2.76,-2.76,-2.76,-2.76,-2.76,-2.76,-2.76,-2.76,-2.76,-2.76,-2.76,-2.76,-2.76,-2.76,-2.76,-2.76,-2.76,-2.76,-2.76,-2.76,-2.76,-2.76,-2.76,-2.76,-2.76,-2.76,-2.76,-2.76,-2.76,-2.76,-2.76,-2.76,-2.7919,-2.895,-2.9271,-2.9695,-3.0638,-3.1015,-3.0777,-2.9563,0.0,-2.9913,-2.8896,-2.9673,-3.0351,-3.0435,-3.0898,-3.119,-3.119,-3.119,-3.119,-3.119,-3.119,-3.119,-3.119,-3.119,-3.119,-3.119,-3.119,-3.119,-3.119,-3.119,-3.119,-3.119,-3.119,-3.119,-3.119,-3.119,-3.114,-3.0987,-3.0362,-2.96,-2.8738,-2.806,-2.7351,-2.6741,-2.7083,-2.721,-2.7225,-2.6499,-2.6499,-2.6499,-2.6499,-2.6589,-2.6973,-2.7769,-2.8019,-2.8684,-3.0269,-3.0494,-3.0748,-3.1438,-3.1511,-3.1511,-3.1511,-3.1511,-3.1511,-3.1511,-3.1511,-3.1511,-3.1511,-3.0943,-3.0612,-3.0507,-2.9445,-2.8846,-2.8757,-2.8094,-2.7764,-2.775,-2.7645,-2.76,-2.76,-2.76,-2.76,-2.76,-2.76,-2.76,-2.76,-2.76,-2.76,-2.76,-2.76,-2.76,-2.76,-2.76,-2.76,-2.76,-2.76,-2.76,-2.76,-2.76,-2.76,-2.76,-2.76,-2.76,-2.76,-2.76,-2.76,-2.76,-2.76,-2.76,-2.76,-2.76,-2.76,-2.76,-2.76,-2.76,-2.766,-2.7845,-2.8717,-2.9293,-2.8966,-3.0208,-3.0777,-2.9563,0.0,-3.023,-3.0043,-3.0187,-3.0497,-3.1015,-3.1151,-3.119,-3.119,-3.119,-3.119,-3.119,-3.119,-3.119,-3.119,-3.119,-3.119,-3.119,-3.119,-3.119,-3.119,-3.119,-3.119,-3.119,-3.119,-3.119,-3.119,-3.119,-3.0852,-3.026,-3.014,-2.9261,-2.7976,-2.7858,-2.7351,-2.6708,-2.6775,-2.6791,-2.6841,-2.6499,-2.6499,-2.6499,-2.6499,-2.6499,-2.6782,-2.7571,-2.7703,-2.833,-3.0072,-3.0299,-3.0614,-3.1409,-3.1511,-3.1511,-3.1511,-3.1511,-3.1511,-3.1511,-3.1511,-3.1511,-3.1511,-3.0866,-3.0178,-2.949,-2.8532,-2.8053,-2.8053,-2.775,-2.76,-2.76,-2.76,-2.76,-2.76,-2.76,-2.76,-2.76,-2.76,-2.76,-2.76,-2.76,-2.76,-2.76,-2.76,-2.76,-2.76,-2.76,-2.76,-2.76,-2.76,-2.76,-2.76,-2.76,-2.76,-2.76,-2.76,-2.76,-2.76,-2.76,-2.76,-2.76,-2.76,-2.76,-2.76,-2.76,-2.76,-2.76,-2.76,-2.786,-2.8174,-2.8519,-2.9293,-2.9892,-2.9951,-3.0658,-3.0898,-3.0016,-3.0414,-3.0658,-3.0335,-3.0597,-3.0898,-3.1171,-3.119,-3.119,-3.119,-3.119,-3.119,-3.119,-3.119,-3.119,-3.119,-3.119,-3.119,-3.119,-3.119,-3.119,-3.119,-3.119,-3.119,-3.119,-3.119,-3.119,-3.1173,-3.0784,-3.0412,-3.004,-2.9193,-2.8432,-2.7756,-2.735,-2.6996,-2.6691,-2.6691,-2.6691,-2.6725,-2.6499,-2.6499,-2.6499,-2.6499,-2.6499,-2.6714,-2.7317,-2.7571,-2.8247,-2.9797,-3.0178,-3.0614,-3.1409,-3.1511,-3.1511,-3.1511,-3.1511,-3.1511,-3.1511,-3.1511,-3.1436,-3.1271,-3.0507,-2.9535,-2.8382,-2.7869,-2.76,-2.76,-2.76,-2.76,-2.76,-2.76,-2.76,-2.76,-2.76,-2.76,-2.76,-2.76,-2.76,-2.76,-2.76,-2.76,-2.76,-2.76,-2.76,-2.76,-2.76,-2.76,-2.76,-2.76,-2.76,-2.76,-2.76,-2.76,-2.76,-2.76,-2.76,-2.76,-2.76,-2.76,-2.76,-2.76,-2.76,-2.76,-2.76,-2.76,-2.76,-2.76,-2.8091,-2.8654,-2.9104,-2.9805,-3.0414,-3.072,0.0,-3.0995,-3.0393,-3.0818,-3.1035,-3.0559,-3.0918,-3.119,-3.119,-3.119,-3.119,-3.119,-3.119,-3.119,-3.119,-3.119,-3.119,-3.119,-3.119,-3.119,-3.119,-3.119,-3.119,-3.119,-3.119,-3.119,-3.119,-3.119,-3.1106,-3.0903,-3.0362,-2.9886,-2.9463,-2.8297,-2.7705,-2.7486,-2.6911,-2.6691,-2.6691,-2.6691,-2.6691,-2.6691,-2.6499,-2.6499,-2.6499,-2.6499,-2.6499,-2.6521,-2.6589,-2.7229,-2.8051,-2.8971,-2.9797,-3.0614,-3.1409,-3.1511,-3.1511,-3.1511,-3.1511,-3.1511,-3.1511,-3.1511,-3.1212,-3.0612,-2.94,-2.8397,-2.769,-2.763,-2.76,-2.76,-2.76,-2.76,-2.76,-2.76,-2.76,-2.76,-2.76,-2.76,-2.76,-2.76,-2.76,-2.76,-2.76,-2.76,-2.76,-2.76,-2.76,-2.76,-2.76,-2.76,-2.76,-2.76,-2.76,-2.76,-2.76,-2.76,-2.76,-2.76,-2.76,-2.76,-2.76,-2.76,-2.76,-2.76,-2.76,-2.76,-2.76,-2.76,-2.76,-2.76,-2.8091,-2.8511,-2.8559,-2.9518,-3.0145,-2.9607,0.0,0.0,-3.0393,-3.0818,-3.119,-3.1151,-3.1171,-3.119,-3.119,-3.119,-3.119,-3.119,-3.119,-3.119,-3.119,-3.119,-3.119,-3.119,-3.119,-3.119,-3.119,-3.119,-3.119,-3.119,-3.119,-3.119,-3.119,-3.119,-3.0835,-3.0192,-3.0125,-2.9277,-2.7959,-2.7858,-2.7384,-2.6776,-2.6708,-2.6691,-2.6691,-2.6691,-2.6691,-2.6691,-2.6499,-2.6499,-2.6499,-2.6499,-2.6499,-2.6499,-2.6499,-2.6748,-2.7451,-2.8812,-2.9286,-3.0011,-3.1351,-3.1511,-3.1511,-3.1511,-3.1511,-3.1511,-3.1511,-3.1107,-3.0612,-2.9968,-2.9071,-2.8278,-2.76,-2.76,-2.76,-2.76,-2.76,-2.76,-2.76,-2.76,-2.76,-2.76,-2.76,-2.76,-2.76,-2.76,-2.76,-2.76,-2.76,-2.76,-2.76,-2.76,-2.76,-2.76,-2.76,-2.76,-2.76,-2.76,-2.76,-2.76,-2.76,-2.76,-2.76,-2.76,-2.76,-2.76,-2.76,-2.76,-2.76,-2.76,-2.76,-2.76,-2.76,-2.76,-2.76,-2.76,-2.8376,-2.9042,-2.9042,-3.0043,-3.0781,-3.0539,0.0,-3.1131,-3.0878,-3.1055,-3.119,-3.119,-3.119,-3.119,-3.119,-3.119,-3.119,-3.119,-3.119,-3.119,-3.119,-3.119,-3.119,-3.119,-3.119,-3.119,-3.119,-3.119,-3.119,-3.119,-3.119,-3.119,-3.1173,-3.0734,-3.0362,-3.0057,-2.9092,-2.8348,-2.7773,-2.73,-2.6945,-2.6691,-2.6691,-2.6691,-2.6691,-2.6691,-2.6691,-2.6691,-2.6499,-2.6499,-2.6499,-2.6499,-2.6499,-2.6499,-2.6499,-2.6714,-2.7384,-2.8812,-2.9254,-2.995,-3.1351,-3.1511,-3.1511,-3.1511,-3.1511,-3.1511,-3.1511,-3.0702,-2.9939,-2.9295,-2.8622,-2.8079,-2.76,-2.76,-2.76,-2.76,-2.76,-2.76,-2.76,-2.76,-2.76,-2.76,-2.76,-2.76,-2.76,-2.76,-2.76,-2.76,-2.76,-2.76,-2.76,-2.76,-2.76,-2.76,-2.76,-2.76,-2.76,-2.76,-2.76,-2.76,-2.76,-2.76,-2.76,-2.76,-2.76,-2.76,-2.76,-2.76,-2.76,-2.76,-2.76,-2.76,-2.76,-2.76,-2.76,-2.76,-2.84,-2.9111,-2.9111,-3.0086,-3.0918,-3.0918,-3.1092,-3.119,-3.119,-3.119,-3.119,-3.119,-3.119,-3.119,-3.119,-3.119,-3.119,-3.119,-3.119,-3.119,-3.119,-3.119,-3.119,-3.119,-3.119,-3.119,-3.119,-3.119,-3.119,-3.119,-3.119,-3.1072,-3.0835,-3.0345,-2.9835,-2.9311,-2.8263,-2.7672,-2.7418,-2.6911,-2.6691,-2.6691,-2.6691,-2.6691,-2.6691,-2.6691,-2.6691,-2.6691,-2.6499,-2.6499,-2.6499,-2.6499,-2.6499,-2.6499,-2.6499,-2.7196,-2.8019,-2.8907,-2.9766,-3.0614,-3.1409,-3.1511,-3.1511,-3.1511,-3.1511,-3.1511,-3.1496,-3.0298,-2.9307,-2.8622,-2.7959,-2.76,-2.76,-2.76,-2.76,-2.76,-2.76,-2.76,-2.76,-2.76,-2.76,-2.76,-2.76,-2.76,-2.76,-2.76,-2.76,-2.76,-2.76,-2.76,-2.76,-2.76,-2.76,-2.76,-2.76,-2.76,-2.76,-2.76,-2.76,-2.76,-2.76,-2.76,-2.76,-2.76,-2.76,-2.76,-2.76,-2.76,-2.76,-2.76,-2.76,-2.76,-2.76,-2.76,-2.76,-2.76,-2.8091,-2.8487,-2.8487,-2.9496,-3.0293,-3.0293,-3.0818,-3.119,-3.119,-3.119,-3.119,-3.119,-3.119,-3.119,-3.119,-3.119,-3.119,-3.119,-3.119,-3.119,-3.119,-3.119,-3.119,-3.119,-3.119,-3.119,-3.119,-3.119,-3.119,-3.119,-3.119,-3.0818,-3.0108,-3.0091,-2.9244,-2.7807,-2.779,-2.7367,-2.6691,-2.6691,-2.6691,-2.6691,-2.6691,-2.6691,-2.6691,-2.6691,-2.6691,-2.6691,-2.6499,-2.6499,-2.6499,-2.6499,-2.6499,-2.6499,-2.6499,-2.7196,-2.8019,-2.8907,-2.9766,-3.0614,-3.1409,-3.1511,-3.1511,-3.1511,-3.1511,-3.1122,-3.0223,-2.937,-2.8592,-2.7929,-2.7705,-2.76,-2.76,-2.76,-2.76,-2.76,-2.76,-2.76,-2.76,-2.76,-2.76,-2.76,-2.76,-2.76,-2.76,-2.76,-2.76,-2.76,-2.76,-2.76,-2.76,-2.76,-2.76,-2.76,-2.76,-2.76,-2.76,-2.76,-2.76,-2.76,-2.76,-2.76,-2.76,-2.76,-2.76,-2.76,-2.76,-2.76,-2.76,-2.76,-2.76,-2.76,-2.76,-2.76,-2.76,-2.76,-2.8091,-2.8487,-2.8487,-2.9496,-3.0293,-3.0293,-3.0818,-3.119,-3.119,-3.119,-3.119,-3.119,-3.119,-3.119,-3.119,-3.119,-3.119,-3.119,-3.119,-3.119,-3.119,-3.119,-3.119,-3.119,-3.119,-3.119,-3.119,-3.119,-3.119,-3.119,-3.0683,-3.0311,-3.0055,-2.8973,-2.8246,-2.7773,-2.7249,-2.6894,-2.6691,-2.6691,-2.6691,-2.6691,-2.6691,-2.6691,-2.6691,-2.6691,-2.6691,-2.6691,-2.6499,-2.6499,-2.6499,-2.6499,-2.6499,-2.6499,-2.6499,-2.7196,-2.8019,-2.8907,-2.9766,-3.0614,-3.1409,-3.1511,-3.1511,-3.1511,-3.1256,-3.0567,-2.928,-2.8831,-2.8293,-2.763,-2.76,-2.76,-2.76,-2.76,-2.76,-2.76,-2.76,-2.76,-2.76,-2.76,-2.76,-2.76,-2.76,-2.76,-2.76,-2.76,-2.76,-2.76,-2.76,-2.76,-2.76,-2.76,-2.76,-2.76,-2.76,-2.76,-2.76,-2.76,-2.76,-2.76,-2.76,-2.76,-2.76,-2.76,-2.76,-2.76,-2.76,-2.76,-2.76,-2.76,-2.76,-2.76,-2.76,-2.76,-2.76,-2.76,-2.7894,-2.814,-2.814,-2.8927,-2.9673,-2.9908,-3.0456,-3.0918,-3.1171,-3.0995,-3.0918,-3.1171,-3.0995,-3.0955,-3.1171,-3.119,-3.119,-3.119,-3.119,-3.119,-3.119,-3.119,-3.119,-3.119,-3.119,-3.1055,-3.0768,-3.0768,-3.0768,-3.0768,-3.0023,-2.9499,-2.9159,-2.8229,-2.7638,-2.7334,-2.6894,-2.6691,-2.6691,-2.6691,-2.6691,-2.6691,-2.6691,-2.6691,-2.6691,-2.6691,-2.6691,-2.6691,-2.6487,-2.6499,-2.6499,-2.6499,-2.6499,-2.6499,-2.6499,-2.7263,-2.8117,-2.8907,-2.9827,-3.0673,-3.1409,-3.1511,-3.1481,-3.1421,-3.0761,-2.9834,-2.8682,-2.8547,-2.8233,-2.763,-2.76,-2.76,-2.76,-2.76,-2.76,-2.76,-2.76,-2.76,-2.76,-2.76,-2.76,-2.76,-2.76,-2.76,-2.76,-2.76,-2.76,-2.76,-2.76,-2.76,-2.76,-2.76,-2.76,-2.76,-2.76,-2.76,-2.76,-2.76,-2.76,-2.76,-2.76,-2.76,-2.76,-2.76,-2.76,-2.76,-2.76,-2.76,-2.76,-2.76,-2.76,-2.76,-2.76,-2.76,-2.76,-2.76,-2.76,-2.76,-2.76,-2.814,-2.8756,-2.9316,-2.9908,-3.0497,-3.1131,-3.0679,-3.0518,-3.1131,-3.072,-3.0597,-3.1151,-3.119,-3.119,-3.119,-3.119,-3.119,-3.119,-3.119,-3.119,-3.119,-3.114,-3.0784,-3.0125,-2.9954,-2.9939,-2.9989,-2.9245,-2.8501,-2.7807,-2.7739,-2.7351,-2.6691,-2.6691,-2.6691,-2.6691,-2.6691,-2.6691,-2.6691,-2.6691,-2.6691,-2.6691,-2.6691,-2.6691,-2.6691,-2.6411,-2.6499,-2.6499,-2.6499,-2.6499,-2.6499,-2.6499,-2.7769,-2.878,-2.8971,-3.0299,-3.1307,-3.1467,-3.1511,-3.1286,-3.0748,-2.9684,-2.8891,-2.8622,-2.8124,-2.775,-2.76,-2.76,-2.76,-2.76,-2.76,-2.76,-2.76,-2.76,-2.76,-2.76,-2.76,-2.76,-2.76,-2.76,-2.76,-2.76,-2.76,-2.76,-2.76,-2.76,-2.76,-2.76,-2.76,-2.76,-2.76,-2.76,-2.76,-2.76,-2.76,-2.76,-2.76,-2.76,-2.76,-2.76,-2.76,-2.76,-2.76,-2.76,-2.76,-2.76,-2.76,-2.76,-2.76,-2.76,-2.76,-2.76,-2.76,-2.76,-2.76,-2.76,-2.8472,-2.9248,-2.9384,-2.9908,-3.0497,-3.1131,-3.0679,-3.0518,-3.1131,-3.1075,-3.1055,-3.119,-3.119,-3.119,-3.119,-3.119,-3.119,-3.119,-3.119,-3.119,-3.119,-3.0632,-3.026,-3.0108,-2.8889,-2.8601,-2.923,-2.845,-2.7959,-2.779,-2.7199,-2.6843,-2.6691,-2.6691,-2.6691,-2.6691,-2.6691,-2.6691,-2.6691,-2.6691,-2.6691,-2.6691,-2.6691,-2.6691,-2.6691,-2.5971,-2.6084,-2.6172,-2.6449,-2.6499,-2.6624,-2.7007,-2.8182,-2.916,-2.9566,-3.0718,-3.1376,-3.1047,-3.1017,-3.0629,-2.9684,-2.8981,-2.8457,-2.8128,-2.7794,-2.76,-2.76,-2.76,-2.76,-2.76,-2.76,-2.76,-2.76,-2.76,-2.76,-2.76,-2.76,-2.76,-2.76,-2.76,-2.76,-2.76,-2.76,-2.76,-2.76,-2.76,-2.76,-2.76,-2.76,-2.76,-2.76,-2.76,-2.76,-2.76,-2.76,-2.76,-2.76,-2.76,-2.76,-2.76,-2.76,-2.76,-2.76,-2.76,-2.76,-2.76,-2.76,-2.76,-2.76,-2.76,-2.76,-2.76,-2.76,-2.76,-2.76,-2.76,-2.8125,-2.8638,-2.8904,-2.9473,-2.9978,-3.0293,-3.0081,-2.9995,-3.0293,-3.0335,-3.0559,-3.1151,-3.119,-3.119,-3.119,-3.119,-3.119,-3.119,-3.119,-3.1038,-3.0683,-3.0311,-2.9734,-2.9007,-2.8196,-2.7824,-2.791,-2.7486,-2.7266,-2.7249,-2.6877,-2.6691,-2.6691,-2.6691,-2.6691,-2.6691,-2.6691,-2.6691,-2.6691,-2.6691,-2.6691,-2.6691,-2.6691,-2.6691,-2.6691,-2.536,-2.546,-2.5611,-2.6135,-2.6223,-2.6435,-2.7097,-2.8066,-2.8934,-2.9667,-3.0602,-3.0957,-3.0417,-3.0238,-2.9759,-2.8697,-2.8502,-2.8173,-2.763,-2.76,-2.76,-2.76,-2.76,-2.76,-2.76,-2.76,-2.76,-2.76,-2.76,-2.76,-2.76,-2.76,-2.76,-2.76,-2.76,-2.76,-2.76,-2.76,-2.76,-2.76,-2.76,-2.76,-2.76,-2.76,-2.76,-2.76,-2.76,-2.76,-2.76,-2.76,-2.76,-2.76,-2.76,-2.76,-2.76,-2.76,-2.76,-2.76,-2.76,-2.76,-2.76,-2.76,-2.76,-2.76,-2.76,-2.76,-2.76,-2.76,-2.76,-2.76,-2.76,-2.7685,-2.7934,-2.8415,-2.8919,-2.9271,-2.9384,-2.9316,-2.9271,-2.9384,-2.9496,-2.9951,-3.0938,-3.1151,-3.119,-3.119,-3.119,-3.119,-3.119,-3.1072,-3.0734,-3.0125,-2.9835,-2.9092,-2.7824,-2.7672,-2.73,-2.6691,-2.6691,-2.6691,-2.6691,-2.6691,-2.6691,-2.6691,-2.6691,-2.6691,-2.6691,-2.6691,-2.6691,-2.6691,-2.6691,-2.6691,-2.6691,-2.6691,-2.6691,-2.6691,-2.4788,-2.4888,-2.4913,-2.5034,-2.5046,-2.5079,-2.5196,-2.6481,-2.7502,-2.7591,-2.8941,-2.9804,-2.9714,-2.919,-2.8786,-2.8622,-2.8079,-2.7705,-2.76,-2.76,-2.76,-2.76,-2.76,-2.76,-2.76,-2.76,-2.76,-2.76,-2.76,-2.76,-2.76,-2.76,-2.76,-2.76,-2.76,-2.76,-2.76,-2.76,-2.76,-2.76,-2.76,-2.76,-2.76,-2.76,-2.76,-2.76,-2.76,-2.76,-2.76,-2.76,-2.76,-2.76,-2.76,-2.76,-2.76,-2.76,-2.76,-2.76,-2.76,-2.76,-2.76,-2.76,-2.76,-2.76,-2.76,-2.76,-2.76,-2.76,-2.76,-2.76,-2.76,-2.8018,-2.8391,-2.8487,-2.8559,-2.8803,-2.9316,-2.8966,-2.8826,-2.9339,-2.9848,-3.0251,-3.0414,-3.0898,-3.119,-3.119,-3.119,-3.119,-3.119,-3.0598,-3.019,-3.0108,-2.8804,-2.801,-2.7807,-2.7182,-2.6793,-2.6691,-2.6691,-2.6691,-2.6691,-2.6691,-2.6691,-2.6691,-2.6691,-2.6691,-2.6691,-2.6691,-2.6691,-2.6691,-2.6691,-2.6691,-2.6691,-2.6691,-2.6691,-2.6691,-2.4255,-2.4356,-2.4456,-2.4738,-2.4788,-2.5084,-2.6008,-2.6728,-2.7531,-2.8411,-2.9167,-2.9472,-2.9071,-2.8427,-2.8049,-2.8049,-2.7764,-2.76,-2.76,-2.76,-2.76,-2.76,-2.76,-2.76,-2.76,-2.76,-2.76,-2.76,-2.76,-2.76,-2.76,-2.76,-2.76,-2.76,-2.76,-2.76,-2.76,-2.76,-2.76,-2.76,-2.76,-2.76,-2.76,-2.76,-2.76,-2.76,-2.76,-2.76,-2.76,-2.76,-2.76,-2.76,-2.76,-2.76,-2.76,-2.76,-2.76,-2.76,-2.76,-2.76,-2.76,-2.76,-2.76,-2.76,-2.76,-2.76,-2.76,-2.76,-2.76,-2.76,-2.76,-2.781,-2.7993,-2.7993,-2.8271,-2.8487,-2.84,-2.8463,-2.8606,-2.8873,-2.9134,-2.9563,-3.023,-3.0539,-3.0838,-3.1171,-3.119,-3.1021,-3.0615,-3.0294,-2.9587,-2.8469,-2.802,-2.7464,-2.6815,-2.6724,-2.6691,-2.6691,-2.6691,-2.6691,-2.6691,-2.6691,-2.6691,-2.6691,-2.6691,-2.6691,-2.6691,-2.6691,-2.6691,-2.6691,-2.6691,-2.6691,-2.6691,-2.6691,-2.6691,-2.6691]},{"header":{"parameterUnit":"m.s-1","parameterCategory":1,"la1":30.6,"la2":28.766,"lo1":-90.7593,"lo2":-88.6598,"dy":0.0162,"dx":0.0183,"nx":116,"ny":114,"refTime":"2023-08-26T00:00:00:Z","depth":0,"parameterNumber":3,"parameterNumberName":"V-component_of_WINDS"},"data":[0.0,0.0,0.0,0.0,0.0,0.0,0.0,0.0,0.0,0.0,0.0,0.0,0.0,0.0,0.0,0.0,0.0,0.0,0.0,0.0,0.0,0.0,0.0,0.0,0.0,0.0,0.0,0.0,0.0,0.0,0.0,0.0,0.0,0.0,0.0,0.0,0.0,0.0,0.0,0.0,0.0,0.0,0.0,0.0,0.0,0.0,0.0,0.0,0.0,0.0,0.0,0.0,0.0,0.0,0.0,0.0,0.0,0.0,0.0,0.0,0.0,0.0,0.0,0.0,0.0,0.0,0.0,0.0,0.0,0.0,0.0,0.0,0.0,0.0,0.0,0.0,0.0,0.0,0.0,0.0,0.0,0.0,0.0,0.0,0.0,0.0,0.0,0.0,0.0,0.0,0.0,0.0,0.0,0.0,0.0,0.0,0.0,0.0,0.0,0.0,0.0,0.0,0.0,0.0,0.0,0.0,0.0,0.0,0.0,0.0,0.0,0.0,0.0,0.0,0.0,0.0,0.0,0.0,0.0,0.0,0.0,0.0,0.0,0.0,0.0,0.0,0.0,0.0,0.0,0.0,0.0,0.0,0.0,0.0,0.0,0.0,0.0,0.0,0.0,0.0,0.0,0.0,0.0,0.0,0.0,0.0,0.0,0.0,0.0,0.0,0.0,0.0,0.0,0.0,0.0,0.0,0.0,0.0,0.0,0.0,0.0,0.0,0.0,0.0,0.0,0.0,0.0,0.0,0.0,0.0,0.0,0.0,0.0,0.0,0.0,0.0,0.0,0.0,0.0,0.0,0.0,0.0,0.0,0.0,0.0,0.0,0.0,0.0,0.0,0.0,0.0,0.0,0.0,0.0,0.0,0.0,0.0,0.0,0.0,0.0,0.0,0.0,0.0,0.0,0.0,0.0,0.0,0.0,0.0,0.0,0.0,0.0,0.0,0.0,0.0,0.0,0.0,0.0,0.0,0.0,0.0,0.0,0.0,0.0,0.0,0.0,0.0,0.0,0.0,0.0,0.0,0.0,0.0,0.0,0.0,0.0,0.0,0.0,0.0,0.0,0.0,0.0,0.0,0.0,0.0,0.0,0.0,0.0,0.0,0.0,0.0,0.0,0.0,0.0,0.0,0.0,0.0,0.0,0.0,0.0,0.0,0.0,0.0,0.0,0.0,0.0,0.0,0.0,0.0,0.0,0.0,0.0,0.0,0.0,0.0,0.0,0.0,0.0,0.0,0.0,0.0,0.0,0.0,0.0,0.0,0.0,0.0,0.0,0.0,0.0,0.0,0.0,0.0,0.0,0.0,0.0,0.0,0.0,0.0,0.0,0.0,0.0,0.0,0.0,0.0,0.0,0.0,0.0,0.0,0.0,0.0,0.0,0.0,0.0,0.0,0.0,0.0,0.0,0.0,0.0,0.0,0.0,0.0,0.0,0.0,0.0,0.0,0.0,0.0,0.0,0.0,0.0,0.0,0.0,0.0,0.0,0.0,0.0,0.0,0.0,0.0,0.0,0.0,0.0,0.0,0.0,0.0,0.0,0.0,0.0,0.0,0.0,0.0,0.0,0.0,0.0,0.0,0.0,0.0,0.0,0.0,0.0,0.0,0.0,0.0,0.0,0.0,0.0,0.0,0.0,0.0,0.0,0.0,0.0,0.0,0.0,0.0,0.0,0.0,0.0,0.0,0.0,0.0,0.0,0.0,0.0,0.0,0.0,0.0,0.0,0.0,0.0,0.0,0.0,0.0,0.0,0.0,0.0,0.0,0.0,0.0,0.0,0.0,0.0,0.0,0.0,0.0,0.0,0.0,0.0,0.0,0.0,0.0,0.0,0.0,0.0,0.0,0.0,0.0,0.0,0.0,0.0,0.0,0.0,0.0,0.0,0.0,0.0,0.0,0.0,0.0,0.0,0.0,0.0,0.0,0.0,0.0,0.0,0.0,0.0,0.0,0.0,0.0,0.0,0.0,0.0,0.0,0.0,0.0,0.0,0.0,0.0,0.0,0.0,0.0,0.0,0.0,0.0,0.0,0.0,0.0,0.0,0.0,0.0,0.0,0.0,0.0,0.0,0.0,0.0,0.0,0.0,0.0,0.0,0.0,0.0,0.0,0.0,0.0,0.0,0.0,0.0,0.0,0.0,0.0,0.0,0.0,0.0,0.0,0.0,0.0,0.0,0.0,0.0,0.0,0.0,0.0,0.0,0.0,0.0,0.0,0.0,0.0,0.0,0.0,0.0,0.0,0.0,0.0,0.0,0.0,0.0,0.0,0.0,0.0,0.0,0.0,0.0,0.0,0.0,0.0,0.0,0.0,0.0,0.0,0.0,0.0,0.0,0.0,0.0,0.0,0.0,0.0,0.0,0.0,0.0,0.0,0.0,0.0,0.0,0.0,0.0,0.0,0.0,0.0,0.0,0.0,0.0,0.0,0.0,0.0,0.0,0.0,0.0,0.0,0.0,0.0,0.0,0.0,0.0,0.0,0.0,0.0,0.0,0.0,0.0,0.0,0.0,0.0,0.0,0.0,0.0,0.0,0.0,0.0,0.0,0.0,0.0,0.0,0.0,0.0,0.0,0.0,0.0,0.0,0.0,0.0,0.0,0.0,0.0,0.0,0.0,0.0,0.0,0.0,0.0,0.0,0.0,0.0,0.0,0.0,0.0,0.0,0.0,0.0,0.0,0.0,0.0,0.0,0.0,0.0,0.0,0.0,0.0,0.0,0.0,0.0,0.0,0.0,0.0,0.0,0.0,0.0,0.0,0.0,0.0,0.0,0.0,0.0,0.0,0.0,0.0,0.0,0.0,0.0,0.0,0.0,0.0,0.0,0.0,0.0,0.0,0.0,0.0,0.0,0.0,0.0,0.0,0.0,0.0,0.0,0.0,0.0,0.0,0.0,0.0,0.0,0.0,0.0,0.0,0.0,0.0,0.0,0.0,0.0,0.0,0.0,0.0,0.0,0.0,0.0,0.0,0.0,0.0,0.0,0.0,0.0,0.0,0.0,0.0,0.0,0.0,0.0,0.0,0.0,0.0,0.0,0.0,0.0,0.0,0.0,0.0,0.0,0.0,0.0,0.0,0.0,0.0,0.0,0.0,0.0,0.0,0.0,0.0,0.0,0.0,0.0,0.0,0.0,0.0,0.0,0.0,0.0,0.0,0.0,0.0,0.0,0.0,0.0,0.0,0.0,0.0,0.0,0.0,0.0,0.0,0.0,0.0,0.0,0.0,0.0,0.0,0.0,0.0,0.0,0.0,0.0,0.0,0.0,0.0,0.0,0.0,0.0,0.0,0.0,0.0,0.0,0.0,0.0,0.0,0.0,0.0,0.0,0.0,0.0,0.0,0.0,0.0,0.0,0.0,0.0,0.0,0.0,0.0,0.0,0.0,0.0,0.0,0.0,0.0,0.0,0.0,0.0,0.0,0.0,0.0,0.0,0.0,0.0,0.0,0.0,0.0,0.0,0.0,0.0,0.0,0.0,0.0,0.0,0.0,0.0,0.0,0.0,0.0,0.0,0.0,0.0,0.0,0.0,0.0,0.0,0.0,0.0,0.0,0.0,0.0,0.0,0.0,0.0,0.0,0.0,0.0,0.0,0.0,0.0,0.0,0.0,0.0,0.0,0.0,0.0,0.0,0.0,0.0,0.0,0.0,0.0,0.0,0.0,0.0,0.0,0.0,0.0,0.0,0.0,0.0,0.0,0.0,0.0,0.0,0.0,0.0,0.0,0.0,0.0,0.0,0.0,0.0,0.0,0.0,0.0,0.0,0.0,0.0,0.0,0.0,0.0,0.0,0.0,0.0,0.0,0.0,0.0,0.0,0.0,0.0,0.0,0.0,0.0,0.0,0.0,0.0,0.0,0.0,0.0,0.0,0.0,0.0,0.0,0.0,0.0,0.0,0.0,0.0,0.0,0.0,0.0,0.0,0.0,0.0,0.0,0.0,0.0,0.0,0.0,0.0,0.0,0.0,0.0,0.0,0.0,0.0,0.0,0.0,0.0,0.0,0.0,0.0,0.0,0.0,0.0,0.0,0.0,0.0,0.0,0.0,0.0,0.0,0.0,0.0,0.0,0.0,0.0,0.0,0.0,0.0,0.0,0.0,0.0,0.0,0.0,0.0,0.0,0.0,0.0,0.0,0.0,0.0,0.0,0.0,0.0,0.0,0.0,0.0,0.0,0.0,0.0,0.0,0.0,0.0,0.0,0.0,0.0,0.0,0.0,0.0,0.0,0.0,0.0,0.0,0.0,0.0,0.0,0.0,0.0,0.0,0.0,0.0,0.0,0.0,0.0,0.0,0.0,0.0,0.0,0.0,0.0,0.0,0.0,0.0,0.0,0.0,0.0,0.0,0.0,0.0,0.0,0.0,0.0,0.0,0.0,0.0,0.0,0.0,0.0,0.0,0.0,0.0,0.0,0.0,0.0,0.0,0.0,0.0,0.0,0.0,0.0,0.0,0.0,0.0,0.0,0.0,0.0,0.0,0.0,0.0,0.0,0.0,0.0,0.0,0.0,0.0,0.0,0.0,0.0,0.0,0.0,0.0,0.0,0.0,0.0,0.0,0.0,0.0,0.0,0.0,0.0,0.0,0.0,0.0,0.0,0.0,0.0,0.0,0.0,0.0,0.0,0.0,0.0,0.0,0.0,0.0,0.0,0.0,0.0,0.0,0.0,0.0,0.0,0.0,0.0,0.0,0.0,0.0,0.0,0.0,0.0,0.0,0.0,0.0,0.0,0.0,0.0,0.0,0.0,0.0,0.0,0.0,0.0,0.0,0.0,0.0,0.0,0.0,0.0,0.0,0.0,0.0,0.0,0.0,0.0,0.0,0.0,0.0,0.0,0.0,0.0,0.0,0.0,0.0,0.0,0.0,0.0,0.0,0.0,0.0,0.0,0.0,0.0,0.0,0.0,0.0,0.0,0.0,0.0,0.0,0.0,0.0,0.0,0.0,0.0,0.0,0.0,0.0,0.0,0.0,0.0,0.0,0.0,0.0,0.0,0.0,0.0,0.0,0.0,0.0,0.0,0.0,0.0,0.0,0.0,0.0,0.0,0.0,0.0,0.0,0.0,0.0,0.0,0.0,0.0,0.0,0.0,0.0,0.0,0.0,0.0,0.0,0.0,0.0,0.0,0.0,0.0,0.0,0.0,0.0,0.0,0.0,0.0,0.0,0.0,0.0,0.0,0.0,0.0,0.0,0.0,0.0,0.0,0.0,0.0,0.0,0.0,0.0,0.0,0.0,0.0,0.0,0.0,0.0,0.0,0.0,0.0,0.0,0.0,0.0,0.0,0.0,0.0,0.0,0.0,0.0,0.0,0.0,0.0,0.0,0.0,0.0,0.0,0.0,0.0,0.0,0.0,0.0,0.0,0.0,0.0,0.0,0.0,0.0,0.0,0.0,0.0,0.0,0.0,0.0,0.0,0.0,0.0,0.0,0.0,0.0,0.0,0.0,0.0,0.0,0.0,0.0,0.0,0.0,0.0,0.0,0.0,0.0,0.0,0.0,0.0,0.0,0.0,0.0,0.0,0.0,0.0,0.0,0.0,0.0,0.0,0.0,0.0,0.0,0.0,0.0,0.0,0.0,0.0,0.0,0.0,0.0,0.0,0.0,0.0,0.0,0.0,0.0,0.0,0.0,0.0,0.0,0.0,0.0,0.0,0.0,0.0,0.0,0.0,0.0,0.0,0.0,0.0,0.0,0.0,0.0,0.0,0.0,0.0,0.0,0.0,0.0,0.0,0.0,0.0,0.0,0.0,0.0,0.0,0.0,0.0,0.0,0.0,0.0,0.0,0.0,0.0,0.0,0.0,0.0,0.0,0.0,0.0,0.0,0.0,0.0,0.0,0.0,0.0,0.0,0.0,0.0,0.0,0.0,0.0,0.0,0.0,0.0,0.0,0.0,0.0,0.0,0.0,0.0,0.0,0.0,0.0,0.0,0.0,0.0,0.0,0.0,0.0,0.0,0.0,0.0,0.0,0.0,0.0,0.0,0.0,0.0,0.0,0.0,0.0,0.0,0.0,0.0,0.0,0.0,0.0,0.0,0.0,0.0,0.0,0.0,0.0,0.0,0.0,0.0,0.0,0.0,0.0,0.0,1.4959,0.0,0.0,0.0,0.0,0.0,0.0,0.0,0.0,0.0,0.0,0.0,0.0,0.0,0.0,0.0,0.0,0.0,0.0,0.0,0.0,0.0,0.0,0.0,0.0,0.0,0.0,0.0,0.0,0.0,0.0,0.0,0.0,0.0,0.0,0.0,0.0,0.0,0.0,3.5968,3.5968,3.6118,3.6395,3.6395,3.6228,3.5968,0.0,0.0,0.0,0.0,0.0,0.0,0.0,0.0,0.0,0.0,0.0,0.0,0.0,0.0,0.0,0.0,0.0,0.0,0.0,0.0,0.0,0.0,0.0,0.0,0.0,0.0,0.0,0.0,0.0,0.0,0.0,0.0,0.0,0.0,0.0,0.0,0.0,0.0,0.0,0.0,0.0,0.0,0.0,0.0,0.0,0.0,0.0,0.0,0.0,0.0,0.0,0.0,0.0,0.0,0.0,0.0,0.0,0.0,0.0,0.0,0.0,0.0,0.0,0.0,0.0,0.0,0.0,0.0,0.0,0.0,0.0,1.4608,0.0,0.0,0.0,0.0,0.0,0.0,0.0,0.0,0.0,0.0,0.0,0.0,0.0,0.0,0.0,0.0,0.0,0.0,0.0,0.0,0.0,0.0,0.0,3.6336,3.6011,3.6354,3.6143,3.5968,0.0,0.0,0.0,0.0,0.0,0.0,3.5739,3.5739,3.5963,3.6395,3.6583,3.6664,3.6684,3.7116,3.7078,3.6643,3.6101,0.0,0.0,0.0,0.0,0.0,0.0,0.0,0.0,0.0,0.0,0.0,0.0,0.0,0.0,0.0,0.0,0.0,0.0,0.0,0.0,0.0,0.0,0.0,0.0,0.0,0.0,0.0,0.0,0.0,0.0,0.0,0.0,0.0,0.0,0.0,0.0,0.0,0.0,0.0,0.0,0.0,0.0,0.0,0.0,0.0,0.0,0.0,0.0,0.0,0.0,0.0,0.0,0.0,0.0,0.0,0.0,0.0,0.0,0.0,0.0,0.0,0.0,0.0,1.6726,1.6636,1.6644,1.5805,1.5421,1.5379,1.4489,1.4088,1.4088,1.4088,0.0,0.0,0.0,0.0,0.0,0.0,0.0,0.0,0.0,0.0,0.0,0.0,0.0,0.0,0.0,0.0,0.0,0.0,0.0,0.0,0.0,3.6786,3.6843,3.6437,3.7136,3.7415,3.702,0.0,0.0,0.0,0.0,0.0,3.6291,3.6291,3.6312,3.6395,3.7268,3.7702,3.7684,3.7772,3.7772,3.7685,3.721,3.6981,3.6962,0.0,0.0,0.0,0.0,0.0,0.0,0.0,0.0,0.0,0.0,0.0,0.0,0.0,0.0,0.0,0.0,0.0,0.0,0.0,0.0,0.0,0.0,0.0,0.0,0.0,0.0,0.0,0.0,0.0,0.0,0.0,0.0,0.0,0.0,0.0,0.0,0.0,0.0,0.0,0.0,0.0,2.5194,2.5194,0.0,0.0,0.0,0.0,0.0,0.0,0.0,0.0,0.0,0.0,0.0,0.0,0.0,1.809,1.7931,1.6215,1.5273,1.5125,1.4436,1.4097,1.4111,1.4254,1.4328,1.4292,1.4166,0.0,1.4088,1.4088,0.0,0.0,0.0,0.0,0.0,0.0,0.0,0.0,0.0,0.0,0.0,0.0,0.0,0.0,0.0,0.0,0.0,0.0,0.0,0.0,0.0,3.7396,3.721,3.723,3.7397,3.7415,3.721,3.7116,0.0,0.0,0.0,3.6097,3.6395,3.6395,3.6684,3.723,3.7981,3.82,3.7911,3.82,3.8183,3.7893,3.7998,3.756,3.6744,3.6823,0.0,0.0,0.0,0.0,0.0,0.0,0.0,0.0,0.0,0.0,0.0,0.0,0.0,0.0,0.0,0.0,0.0,0.0,0.0,0.0,0.0,0.0,0.0,0.0,0.0,0.0,0.0,0.0,0.0,0.0,0.0,0.0,0.0,0.0,0.0,0.0,0.0,0.0,0.0,2.6129,2.5838,2.5838,2.5063,2.3938,0.0,0.0,0.0,0.0,0.0,0.0,0.0,0.0,0.0,1.9143,1.809,1.732,1.6963,1.5519,1.4491,1.3895,1.3526,1.336,1.3407,1.366,1.3841,1.3848,1.4015,1.4088,1.4088,1.4088,1.4088,1.4088,0.0,0.0,0.0,0.0,1.074,0.9492,0.0,0.0,0.0,0.0,0.0,0.0,0.0,0.0,0.0,0.0,0.0,0.0,3.8465,3.7965,3.7667,3.7876,3.7703,3.7578,3.7578,3.7209,3.6999,3.6999,3.6464,3.6378,3.6766,3.6786,3.7229,3.8099,3.8496,3.8515,3.8115,3.8512,3.8481,3.8115,3.853,3.805,3.7018,3.7267,3.6906,3.619,0.0,0.0,0.0,0.0,0.0,0.0,0.0,0.0,0.0,0.0,0.0,0.0,0.0,0.0,0.0,0.0,0.0,0.0,0.0,0.0,0.0,0.0,0.0,0.0,0.0,0.0,0.0,0.0,0.0,0.0,0.0,0.0,0.0,0.0,0.0,0.0,0.0,2.628,2.6025,2.5756,2.5499,2.4484,0.0,0.0,0.0,0.0,0.0,0.0,1.8617,1.8208,1.8169,1.8588,1.7589,1.6873,1.6463,1.5233,1.4302,1.3627,1.3325,1.3213,1.322,1.3393,1.3493,1.3507,1.3768,1.3901,1.3981,1.4055,1.4088,1.4088,1.4088,1.3555,1.2681,1.2072,1.0778,0.9235,0.0,0.0,0.0,0.0,0.0,0.0,0.0,0.0,0.0,0.0,0.0,3.8481,3.7997,3.835,3.8433,3.7946,3.835,3.8627,3.8627,3.8611,3.8596,3.8596,3.8065,3.7807,3.7825,3.7825,3.8099,3.8658,3.8692,3.8692,3.8658,3.8692,3.8692,3.8658,3.8692,3.8676,3.8546,3.8065,3.7825,3.7684,3.6766,0.0,0.0,0.0,0.0,0.0,0.0,0.0,0.0,0.0,0.0,0.0,0.0,0.0,0.0,0.0,0.0,0.0,0.0,0.0,0.0,0.0,0.0,0.0,0.0,0.0,0.0,0.0,0.0,0.0,0.0,0.0,0.0,0.0,0.0,0.0,0.0,0.0,0.0,2.377,2.2813,0.0,0.0,0.0,0.0,1.8695,1.8637,1.8627,1.8598,1.8208,1.8169,1.8588,1.7327,1.6792,1.7135,1.5224,1.438,1.4724,1.3706,1.3213,1.3213,1.3227,1.3233,1.3233,1.3247,1.3407,1.3646,1.3968,1.4088,1.4088,1.4088,1.4046,1.3737,1.152,1.0611,1.0178,0.0,0.0,0.0,0.0,0.0,0.0,0.0,0.0,3.8707,3.8707,3.8707,3.8627,3.8449,3.8596,3.8627,3.8433,3.8578,3.8707,3.8707,3.8382,3.8183,3.8183,3.772,3.7596,3.7876,3.8251,3.8496,3.8707,3.8707,3.8707,3.8707,3.8707,3.8707,3.8707,3.8707,3.8707,3.8658,3.8115,3.7524,3.6943,3.6923,3.6501,0.0,0.0,0.0,0.0,0.0,0.0,0.0,0.0,0.0,0.0,0.0,0.0,0.0,0.0,0.0,0.0,0.0,0.0,0.0,0.0,0.0,0.0,0.0,0.0,0.0,0.0,0.0,0.0,0.0,0.0,0.0,0.0,0.0,0.0,0.0,0.0,0.0,2.3635,2.3184,0.0,2.1003,2.1107,2.0653,1.9157,1.9053,1.9053,1.9053,1.8617,1.8578,1.9043,1.7287,1.6425,1.657,1.4552,1.3634,1.3777,1.3358,1.3213,1.322,1.3367,1.3447,1.3447,1.3447,1.3507,1.3593,1.3554,1.3748,1.4088,1.4088,1.3646,1.2766,1.1171,1.0139,0.9274,0.0,0.0,0.0,0.0,0.0,0.0,0.0,0.0,3.8707,3.8707,3.8707,3.8707,3.8707,3.8707,3.8707,3.8707,3.8707,3.8707,3.8707,3.8366,3.8167,3.8167,3.7878,3.7861,3.8167,3.853,3.8707,3.8707,3.8707,3.8707,3.8707,3.8707,3.8707,3.8707,3.8707,3.8707,3.8658,3.8115,3.7614,3.7192,3.736,3.6923,3.6165,0.0,0.0,0.0,0.0,0.0,0.0,0.0,0.0,0.0,0.0,0.0,0.0,0.0,0.0,0.0,0.0,0.0,0.0,0.0,0.0,0.0,0.0,0.0,0.0,0.0,0.0,0.0,0.0,0.0,0.0,0.0,0.0,0.0,0.0,2.5004,2.448,2.3147,2.2999,2.2509,2.1257,2.1381,2.0956,1.9588,1.9502,1.9434,1.9297,1.9014,1.8994,1.9277,1.7608,1.675,1.6915,1.4857,1.3907,1.4051,1.3561,1.3313,1.336,1.3413,1.346,1.346,1.346,1.3513,1.358,1.3327,1.35,1.3941,1.3941,1.3455,1.2602,1.1567,1.0438,0.9235,0.0,0.0,0.0,0.0,0.0,0.0,0.0,3.8175,3.8707,3.8707,3.8707,3.8707,3.8707,3.8707,3.8707,3.8707,3.8707,3.8707,3.8707,3.8707,3.8707,3.8707,3.8707,3.8707,3.8707,3.8707,3.8707,3.8707,3.8707,3.8707,3.8707,3.8707,3.8707,3.8707,3.8707,3.8692,3.8643,3.8115,3.8183,3.8611,3.8082,3.7596,3.7133,0.0,0.0,0.0,0.0,0.0,0.0,0.0,0.0,0.0,0.0,0.0,0.0,0.0,0.0,0.0,0.0,0.0,0.0,0.0,0.0,0.0,0.0,0.0,0.0,0.0,0.0,0.0,0.0,0.0,0.0,0.0,0.0,0.0,2.4969,2.4933,2.4192,2.2178,2.1952,2.1593,2.0683,2.0605,2.0419,1.9951,1.9912,1.9736,1.9326,1.9307,1.9316,1.9326,1.8304,1.7925,1.8341,1.6174,1.5308,1.5696,1.4268,1.362,1.3606,1.3367,1.324,1.324,1.3227,1.3347,1.358,1.3327,1.3367,1.3573,1.3586,1.3586,1.3408,1.256,1.1493,1.0168,0.0,0.0,0.0,0.0,0.0,0.0,3.7382,3.8175,3.8707,3.8707,3.8707,3.8707,3.8707,3.8707,3.8707,3.8707,3.8707,3.8707,3.8707,3.8707,3.8707,3.8707,3.8707,3.8707,3.8707,3.8707,3.8707,3.8707,3.8707,3.8707,3.8707,3.8707,3.8707,3.8707,3.8707,3.8481,3.8099,3.7963,3.779,3.7596,3.7451,3.7078,3.6603,0.0,0.0,0.0,0.0,0.0,0.0,0.0,0.0,0.0,0.0,0.0,0.0,0.0,0.0,0.0,0.0,0.0,0.0,0.0,0.0,0.0,0.0,0.0,0.0,0.0,0.0,0.0,0.0,0.0,0.0,0.0,2.5664,2.4755,2.4,2.3294,2.2376,2.1116,2.0972,2.0895,2.0644,2.0605,2.0419,1.9951,1.9912,1.9863,1.9746,1.9746,1.9883,2.0243,1.9186,1.8686,1.8795,1.6621,1.5573,1.5696,1.4525,1.3968,1.3961,1.3881,1.3848,1.3834,1.3621,1.3533,1.358,1.3327,1.3126,1.3052,1.324,1.2874,1.2103,1.0966,0.9438,0.7838,0.0,0.0,0.0,0.0,0.0,0.0,3.7878,3.8395,3.8707,3.8707,3.8707,3.8707,3.8707,3.8707,3.8707,3.8707,3.8707,3.8707,3.8707,3.8707,3.8707,3.8707,3.8707,3.8707,3.8707,3.8707,3.8707,3.8707,3.8707,3.8707,3.8707,3.8707,3.8707,3.8707,3.8707,3.853,3.8216,3.7997,3.7737,3.7451,3.702,3.6684,3.6395,3.6395,3.6071,3.56,3.56,3.56,3.56,3.56,0.0,0.0,0.0,0.0,0.0,0.0,0.0,0.0,0.0,0.0,0.0,0.0,0.0,0.0,0.0,0.0,0.0,0.0,0.0,0.0,0.0,0.0,0.0,0.0,2.5664,2.4636,2.3635,2.2627,2.1669,2.0712,2.0605,2.0605,2.0605,2.0605,2.0498,2.0205,2.0185,2.0185,2.0185,2.0185,2.0303,2.0595,1.9116,1.827,1.827,1.6116,1.5019,1.5019,1.4412,1.4088,1.4088,1.4088,1.4088,1.4075,1.3908,1.3828,1.3808,1.3473,1.3287,0.0,0.0,0.0,0.0,0.0,0.8515,0.7452,0.0,0.0,0.0,0.0,0.0,0.0,3.8579,3.8707,3.8707,3.8707,3.8707,3.8707,3.8707,3.8707,3.8707,3.8707,3.8707,3.8707,3.8707,3.8707,3.8707,3.8707,3.8707,3.8707,3.8707,3.8707,3.8707,3.8707,3.8707,3.8707,3.8707,3.8707,3.8707,3.8707,3.8707,3.8676,3.8578,3.8099,3.7825,3.7649,3.6746,3.6395,3.6395,3.6333,3.6011,3.56,3.56,3.56,3.56,3.56,0.0,0.0,0.0,0.0,0.0,0.0,0.0,0.0,0.0,0.0,0.0,0.0,0.0,0.0,0.0,0.0,0.0,0.0,0.0,0.0,0.0,0.0,0.0,0.0,2.5664,2.4636,2.3635,2.2627,2.1669,2.0712,2.0605,2.0605,2.0605,2.0605,2.0605,2.0605,2.0605,2.0625,2.0674,0.0,0.0,0.0,0.0,1.7743,1.7621,1.5622,1.4501,1.434,1.422,1.4122,1.4088,1.4088,1.4088,1.4088,1.4088,1.4088,1.4068,1.376,1.3633,1.3532,1.3001,1.2062,1.0745,0.8881,0.8191,0.8045,0.0,0.0,0.0,0.0,0.0,0.0,3.8579,3.8707,3.8707,3.8707,3.8707,3.8707,3.8707,3.8707,3.8707,3.8707,3.8707,3.8707,3.8707,3.8707,3.8707,3.8707,3.8707,3.8707,3.8707,3.8707,3.8707,3.8707,3.8707,3.8707,3.8707,3.8707,3.8707,3.8707,3.8707,3.8465,3.8048,3.7946,3.7433,3.6684,3.6478,3.6395,3.6354,3.592,3.5694,3.56,3.56,3.56,3.56,3.56,3.5515,3.5407,3.5407,3.4847,0.0,0.0,0.0,0.0,0.0,0.0,0.0,0.0,0.0,0.0,0.0,0.0,0.0,0.0,0.0,0.0,0.0,0.0,0.0,2.6499,2.5664,2.4636,2.3635,2.2627,2.1669,2.0712,2.0605,2.0605,2.0605,2.0605,2.0605,2.0605,2.0605,2.0723,2.1084,2.1064,2.1269,2.1621,2.1243,2.0513,1.9468,1.8201,1.6955,1.5717,0.0,0.0,1.4088,1.4088,1.4088,1.4088,1.4088,1.4088,1.4082,1.4021,1.382,1.3383,1.1209,1.0103,0.9443,0.7453,0.677,0.683,0.0,0.0,0.0,0.0,0.0,0.0,3.8634,3.8707,3.8707,3.8707,3.8707,3.8707,3.8707,3.8707,3.8707,3.8707,3.8707,3.8707,3.8707,3.8707,3.8707,3.8707,3.8707,3.8707,3.8707,3.8707,3.8707,3.8707,3.8707,3.8707,3.8707,3.8707,3.8707,3.8707,3.8707,3.8546,3.8267,3.7773,3.7267,3.6744,3.6224,3.6006,3.5985,3.5694,3.56,3.56,3.56,3.56,3.56,3.56,3.56,3.56,3.56,3.5144,3.4455,0.0,0.0,0.0,0.0,0.0,0.0,0.0,0.0,0.0,0.0,0.0,0.0,0.0,0.0,2.6973,2.6555,0.0,2.6499,2.6499,2.6094,2.5217,2.3697,2.3073,2.2226,2.0789,2.0605,2.0605,2.0605,2.0605,2.0693,2.0889,2.0898,2.1094,2.1543,2.1562,2.166,2.1875,2.1349,2.0433,1.9221,1.8148,1.6898,1.5544,1.4838,1.4442,1.4302,1.4155,1.4088,1.4088,1.4088,1.4088,1.4088,1.4088,1.3915,1.3362,1.0976,0.9825,0.9255,0.7092,0.6344,0.6405,0.0,0.0,0.0,0.0,0.0,0.0,0.0,3.8611,3.8578,3.8692,3.8707,3.8707,3.8707,3.8707,3.8707,3.8707,3.8707,3.8707,3.8707,3.8707,3.8707,3.8707,3.8707,3.8707,3.8707,3.8707,3.8707,3.8707,3.8707,3.8707,3.8707,3.8707,3.8707,3.8707,3.8707,3.8707,3.8643,3.772,3.7285,3.7133,3.6161,3.5694,3.56,3.56,3.56,3.56,3.56,3.56,3.56,3.56,3.56,3.56,3.56,3.523,3.464,3.3836,3.3209,0.0,0.0,0.0,0.0,0.0,0.0,0.0,0.0,3.0042,2.9566,2.7835,2.7484,2.7263,2.6624,2.6499,2.6499,2.6499,2.6349,2.5581,2.377,2.3331,2.2553,2.0828,2.0605,2.0635,2.0723,2.0732,2.0879,2.1288,2.1317,2.1553,2.1982,2.2012,2.2041,2.2129,2.1231,2.0175,1.8969,1.787,1.6714,1.5435,1.4875,1.4576,1.4509,1.4222,1.4088,1.4088,1.4088,1.4088,1.4088,1.4088,1.3948,1.3515,1.1507,1.0346,0.9557,0.7219,0.6323,0.63,0.0,0.0,0.0,0.0,0.0,0.0,0.0,0.0,3.8167,3.8643,3.8707,3.8707,3.8707,3.8707,3.8707,3.8707,3.8707,3.8707,3.8707,3.8707,3.8707,3.8707,3.8707,3.8707,3.8707,3.8707,3.8707,3.8707,3.8707,3.8707,3.8707,3.8707,3.8707,3.8707,3.8707,3.8707,3.8658,3.8065,3.7578,3.7152,3.6542,3.6028,3.56,3.56,3.56,3.56,3.56,3.56,3.56,3.56,3.56,3.56,3.56,3.5538,3.5247,3.3962,3.3547,3.3209,3.1866,3.1511,3.1511,3.1511,3.1511,3.1087,0.0,2.916,2.8684,2.6973,2.6624,2.6624,2.6521,2.6499,2.6499,2.6499,2.5734,2.4779,2.3661,2.2739,2.1773,2.0712,2.0605,2.0723,2.1083,2.1122,2.1338,2.1777,2.1816,2.2002,2.2422,2.2441,2.2617,2.2945,2.2858,2.2218,2.098,1.9771,1.8441,1.6921,1.5569,1.4776,1.4509,1.4222,1.4088,1.4088,1.4088,1.4088,1.4088,1.4088,1.4068,1.3882,1.2474,1.125,1.0027,0.7431,0.6409,0.63,0.0,0.0,0.0,0.0,0.0,0.0,0.0,0.0,0.0,3.82,3.8515,3.8578,3.8267,3.8232,3.8366,3.8658,3.8707,3.8707,3.8707,3.8707,3.8707,3.8707,3.8707,3.8707,3.8707,3.8707,3.8707,3.8707,3.8707,3.8707,3.8707,3.8707,3.8707,3.8692,3.8382,3.8232,3.8183,3.736,3.6904,3.6684,3.6161,3.5805,3.56,3.56,3.56,3.56,3.56,3.56,0.0,3.56,3.56,3.56,3.56,3.5339,3.4823,3.3887,3.3313,3.2815,3.1796,3.1511,3.1511,3.1511,3.1161,3.0494,2.9286,2.862,2.792,2.6748,2.6499,2.6499,2.6499,2.6499,2.6499,2.6499,2.6129,2.5511,2.4516,2.3526,2.2515,2.1517,2.1134,2.1025,2.1181,2.1465,2.1797,2.2217,2.2246,2.2432,2.2808,2.2838,2.2916,2.3091,2.3091,2.2536,2.1293,2.0079,1.883,1.746,1.5979,1.5064,1.477,1.4476,1.4249,1.4088,1.4088,1.4088,1.4088,1.4088,1.4088,1.3984,1.2692,1.1489,1.0175,0.8224,0.7026,0.6412,0.0,0.0,0.0,0.0,0.0,0.0,0.0,0.0,0.0,0.0,3.8251,3.8382,3.815,3.798,3.8133,3.8643,3.8707,3.8707,3.8707,3.8707,3.8707,3.8707,3.8707,3.8707,3.8707,3.8707,3.8707,3.8707,3.8707,3.8707,3.8707,3.8707,3.8627,3.8465,3.8082,3.7825,3.7649,3.6766,3.6395,3.6354,3.5827,3.56,3.56,3.56,3.5492,3.5316,3.5316,3.5316,3.5293,3.5115,3.5045,3.5045,3.5045,3.4728,3.4186,3.3521,3.2841,3.216,3.164,3.1511,3.1511,3.1511,3.1058,3.0419,2.9535,2.8684,2.7835,2.7007,2.6658,2.6499,2.6499,2.6499,2.6499,2.6499,2.628,2.5838,2.5111,2.3891,2.2857,2.2244,2.1709,2.1455,2.1541,2.1875,2.2236,2.2656,2.2685,2.2779,2.3081,2.3091,2.3091,2.3091,2.2775,2.2173,2.1293,1.9761,1.8549,1.7684,1.6128,1.5244,1.4995,1.4576,1.4282,1.4088,1.4088,1.4088,1.4088,1.4088,1.4088,1.3997,1.316,1.1829,1.0317,0.9213,0.7821,0.6491,0.0,0.0,0.0,0.0,0.0,0.0,0.0,0.0,0.0,0.0,0.0,0.0,0.0,3.82,3.8133,3.8643,3.8707,3.8707,3.8707,3.8707,3.8707,3.8707,3.8707,3.8707,3.8707,3.8707,3.8707,3.8707,3.8707,3.8707,3.8707,3.8707,3.8415,3.7911,3.7911,3.7649,3.719,3.6623,3.6395,3.6354,3.5827,3.56,3.56,3.56,3.5207,3.4624,3.4624,3.4624,3.4528,3.3887,3.3659,3.3659,3.3659,3.3633,3.3495,3.2815,3.212,3.1524,3.1511,3.1511,3.1511,3.1511,3.1467,3.1248,3.0419,2.9597,2.8716,2.7835,2.704,2.6499,2.6499,2.6499,2.6499,2.6499,2.5699,2.504,2.5004,2.3294,2.2195,2.2618,2.2211,2.2031,2.2432,2.248,2.2666,2.3042,2.3081,2.3081,2.3091,2.3091,2.3091,2.3091,2.1978,2.1337,2.1293,1.8956,1.7731,1.7684,1.6128,1.5244,1.4988,1.4362,1.4095,1.4088,1.4088,1.4088,1.4088,1.4088,1.4088,1.4088,1.4046,1.2644,1.057,1.038,0.8723,0.6491,0.0,0.0,0.0,0.0,0.0,0.0,0.0,0.0,0.0,0.0,0.0,0.0,0.0,0.0,0.0,0.0,3.7703,3.7843,3.815,3.8167,3.8316,3.8673,3.8707,3.8707,3.8707,3.8707,3.8707,3.8707,3.8707,3.8707,3.8692,3.835,3.8082,3.7859,3.7193,3.6805,3.6623,3.6097,3.5876,3.5854,3.5672,3.56,3.5538,3.5098,3.4783,3.4479,0.0,3.3556,3.3912,3.3684,3.3582,3.3582,3.3582,3.3287,3.2788,3.2092,3.1682,3.1511,3.1511,3.1511,3.1511,3.1511,3.1087,3.0494,2.9628,2.8748,2.7887,2.7061,2.6679,2.6499,2.6499,2.6499,2.6499,2.6499,2.6211,2.599,2.599,2.4542,2.3509,2.3673,2.2879,2.2353,2.25,2.2721,2.2945,2.3081,2.3091,2.3091,2.3091,2.3091,2.3091,2.3091,2.2731,2.212,2.1293,1.9716,1.8503,1.7684,1.6128,1.5244,1.4995,1.4556,1.4269,1.4088,1.4088,1.4088,1.4088,1.4088,1.4088,1.4088,1.4088,1.265,1.058,1.0437,0.8815,0.6603,0.0,0.0,0.0,0.0,0.0,0.0,0.0,0.0,0.0,0.0,0.0,0.0,0.0,0.0,0.0,0.0,0.0,3.7649,3.815,3.8183,3.835,3.8673,3.8707,3.8707,3.8707,3.8496,3.8415,3.8415,3.8252,3.8168,3.8152,3.7808,3.756,3.7342,3.6684,3.6291,3.6097,3.5739,3.547,3.523,3.523,3.5115,3.484,3.4423,3.4087,0.0,3.2922,3.2707,3.2837,3.2837,3.2837,3.2837,3.2837,3.2544,3.2104,3.164,3.1511,3.1511,3.1511,3.1511,3.1511,3.1511,3.1117,3.0524,2.9659,2.878,2.792,2.7095,2.6679,2.6499,2.6499,2.6499,2.6499,2.6499,2.6499,2.6499,2.6499,2.5179,2.4256,2.4386,2.3268,2.2568,2.2682,2.2935,2.3091,2.3091,2.3091,2.3091,2.3091,2.3091,2.3091,2.3091,2.2677,2.1898,2.0666,1.9451,1.8226,1.699,1.5903,1.5244,1.4995,1.4656,1.4362,1.4088,1.4088,1.4088,1.4088,1.4088,1.4088,1.4088,1.4088,1.265,1.059,1.0486,0.8919,0.6753,0.0,0.0,0.0,0.0,0.0,0.0,0.0,0.0,0.0,0.0,0.0,0.0,0.0,0.0,0.0,0.0,0.0,0.0,3.8546,3.8596,3.8578,3.8627,3.8627,3.8627,3.8627,3.8115,3.7859,3.7859,3.7415,3.7209,3.7209,3.7154,3.6902,3.6395,3.6333,3.6032,3.5554,3.5515,3.5121,3.4552,3.4552,3.4161,3.3598,3.3556,3.3145,3.2602,3.2574,3.2092,3.1511,3.1511,3.1511,3.1511,3.1511,3.1511,3.1511,3.1511,3.1511,3.1511,3.1511,3.1511,3.1511,3.1511,3.1511,3.1278,3.0494,2.9628,2.8748,2.7887,2.7074,2.6499,2.6499,2.6499,2.6499,2.6499,2.6499,2.6499,2.6499,2.5238,2.4428,2.477,2.3495,2.2738,2.3062,2.3091,2.3091,2.3091,0.0,2.3091,2.3091,2.3091,2.3091,2.3091,2.1987,2.08,1.9579,1.8319,1.7037,1.5778,1.5551,1.5257,1.4995,1.4669,1.4376,1.4088,1.4088,1.4088,1.4088,1.4088,1.4046,1.3997,1.3997,1.2559,1.0524,1.0524,0.8983,0.6846,0.0,0.0,0.0,0.0,0.0,0.0,0.0,0.0,0.0,0.0,0.0,0.0,0.0,0.0,0.0,0.0,0.0,0.0,3.6943,3.6999,3.7154,3.756,3.7578,3.7578,3.7578,3.7433,3.7378,3.7378,3.7266,3.7209,3.7173,3.6783,3.6539,3.6354,3.5459,3.4978,3.4807,3.4309,3.4012,3.3862,3.3862,3.3761,3.3547,3.3039,3.2749,3.2547,3.1979,3.1668,3.1511,3.1511,3.1511,3.1511,3.1511,3.1511,3.1511,3.1511,3.1511,3.1511,3.1511,3.1511,3.1511,3.1511,3.1511,3.1278,3.0494,2.9628,2.8748,2.7887,2.7074,2.6499,2.6499,2.6499,2.6499,2.6499,2.6499,2.6499,2.6499,2.6166,2.5639,2.4893,2.4445,2.3927,2.3169,2.3091,2.3091,2.3091,2.3091,2.3091,2.3091,2.3091,2.3091,2.3091,2.2818,2.2076,2.0845,1.8772,1.7037,1.5784,1.5752,1.5451,1.5008,1.4928,1.4569,1.4088,1.4088,1.4088,1.4088,1.4088,1.3561,1.2766,1.2766,1.1343,0.9323,0.9323,0.83,0.6859,0.0,0.0,0.0,0.0,0.0,0.0,0.0,0.0,0.0,0.0,0.0,0.0,0.0,0.0,0.0,0.0,0.0,0.0,0.0,3.6744,3.6882,3.719,3.7209,3.7209,3.7209,3.698,3.6843,3.6843,3.6623,3.6501,3.6481,3.5878,3.5615,3.557,3.4583,3.4161,3.4137,3.3761,3.3443,0.0,0.0,3.2986,3.2637,3.2272,3.212,3.2064,3.164,3.1511,3.1511,3.1511,3.1511,3.1511,3.1511,3.1511,3.1511,3.1511,3.1511,3.1511,3.1511,3.1511,3.1511,3.1511,3.1511,3.1278,3.0494,2.9628,2.8748,2.7887,2.7074,2.6499,2.6499,2.6499,2.6499,2.6499,2.6499,2.6499,2.6499,2.6518,2.6068,2.4943,2.4787,2.4339,2.3222,2.3091,2.3091,2.3091,2.3091,2.3091,2.3091,2.3091,2.3091,2.3091,2.3091,2.2271,2.0531,1.8634,1.7037,1.5784,1.5784,1.5524,1.5008,1.5008,1.4687,1.4088,0.0,1.4088,1.4088,1.4088,1.3688,1.3033,1.2498,1.1209,0.9579,0.9065,0.8087,0.6947,0.0,0.0,0.0,0.0,0.0,0.0,0.0,0.0,0.0,0.0,0.0,0.0,0.0,0.0,0.0,0.0,0.0,0.0,0.0,0.0,3.6807,3.6701,3.6701,3.6701,3.6701,3.6246,3.6008,3.6031,3.5547,3.5323,3.5316,3.4736,3.4455,3.4431,3.3761,3.3469,3.3469,3.3349,3.2986,3.2465,3.2465,3.2064,3.1511,0.0,3.1511,3.1511,3.1511,3.1511,3.1511,3.1511,3.1511,3.1511,3.1511,3.1511,3.1511,3.1511,3.1511,3.1511,3.1511,3.1511,3.1511,3.1511,3.1511,3.1322,3.0614,2.969,2.878,2.8019,2.7129,2.6499,2.6499,2.6499,2.6499,2.6499,2.6499,2.6499,2.6499,2.6627,2.6259,2.4943,2.4921,2.45,2.3222,2.3091,2.3091,2.3091,2.3091,2.3091,2.3091,2.3091,2.3091,2.3091,2.3091,2.1996,1.9761,1.8549,1.7311,1.6062,1.5879,1.5524,1.5008,1.5008,1.4687,1.4088,1.4088,1.4088,1.4088,1.4088,1.3997,1.373,1.2547,1.1381,1.0226,0.9104,0.8017,0.7055,0.0,0.0,0.0,0.0,0.0,0.0,0.0,0.0,0.0,0.0,3.5253,3.56,0.0,0.0,0.0,0.0,0.0,0.0,0.0,0.0,0.0,3.4072,3.4076,3.4076,3.4076,3.3968,3.3963,3.4004,3.3905,3.3897,3.3937,3.3836,3.3761,3.3735,3.3066,3.2761,3.2734,3.2132,3.1796,3.1697,3.1697,3.1611,3.1511,3.1511,0.0,0.0,3.1511,3.1511,3.1511,3.1511,3.1511,3.1511,3.1511,3.1511,3.1511,3.1511,3.1511,3.1511,3.1511,3.1511,3.1511,3.1511,3.1511,3.1467,3.1322,3.0103,2.8971,2.8812,2.7571,2.6499,2.6499,2.6499,2.6499,2.6499,2.6499,2.6499,2.6499,2.7251,2.705,2.506,2.5625,2.5389,2.3299,2.3091,2.3091,2.3091,2.3091,2.3091,2.3091,2.3091,2.3091,2.3091,2.3091,2.2403,2.098,1.9807,1.8588,1.7365,1.6292,1.5524,1.5008,1.5008,1.4687,1.4088,1.4088,0.0,1.4088,1.4088,1.3512,1.2504,1.1343,1.0183,0.9061,0.7841,0.7272,0.7055,0.0,0.0,0.0,0.0,0.0,0.0,0.0,3.3582,3.3684,3.4037,3.4374,3.4823,3.5515,3.56,3.56,0.0,0.0,0.0,0.0,0.0,0.0,3.3423,3.3406,3.3406,3.3406,3.3096,3.2962,3.2984,0.0,3.3064,3.3079,3.3061,3.3093,3.3039,3.2339,3.1807,3.1377,3.1028,3.0614,3.0208,3.0208,3.0208,3.0208,3.0208,0.0,0.0,3.0208,3.0208,3.0208,3.0208,3.0208,3.0269,3.0748,3.1161,3.1409,3.0999,3.0866,3.097,3.138,3.119,3.097,3.1409,3.119,3.0866,3.0866,2.9535,2.833,2.833,2.7351,2.6499,2.6499,2.6499,2.6499,2.6499,2.6499,2.6499,2.6499,2.7406,2.7484,2.5892,2.616,2.585,2.4135,2.3464,2.3091,2.3091,2.3091,2.3091,2.3091,2.3091,2.3091,2.3091,2.3091,2.2536,2.1293,2.0079,1.891,1.7692,1.6433,1.5524,1.5008,1.5008,1.4687,1.4088,1.4088,1.4088,1.4088,1.4088,1.3779,1.3075,1.13,1.0269,0.9575,0.7749,0.7095,0.7055,0.0,0.0,0.0,0.0,0.0,0.0,0.0,3.2841,3.2788,3.3313,3.3391,3.3853,3.5028,3.5293,3.5385,0.0,0.0,0.0,0.0,0.0,0.0,0.0,0.0,0.0,3.2933,0.0,0.0,3.2046,3.2128,0.0,0.0,0.0,0.0,0.0,3.1768,3.1058,3.0299,3.0299,2.9797,0.0,0.0,2.9002,2.9002,0.0,0.0,0.0,0.0,2.9002,2.9002,2.9002,2.9002,2.9097,2.9597,3.0299,3.0866,3.0419,3.0178,3.0178,3.0807,3.0644,3.045,3.1087,3.0896,3.0524,3.0329,2.9097,2.792,2.7736,2.7074,2.6499,2.6499,2.6499,2.6499,2.6499,2.6499,2.6499,2.6499,2.7306,2.7557,2.66,2.6586,2.6184,2.4904,2.4006,2.3343,2.3135,2.3091,2.3091,2.3091,2.3091,2.3091,2.3091,2.3091,2.2633,2.1702,2.0215,1.8993,1.8048,1.6458,1.5464,1.5008,1.4941,1.4583,1.4088,1.4088,1.4088,1.4088,1.4088,1.4088,1.387,1.152,1.0611,1.0308,0.7965,0.7078,0.7014,0.0,0.0,0.0,0.0,0.0,0.0,0.0,3.2216,3.2614,3.2695,3.2695,3.2975,3.371,3.4333,3.4688,0.0,0.0,0.0,0.0,0.0,0.0,0.0,0.0,0.0,0.0,0.0,0.0,3.0589,3.0654,0.0,0.0,0.0,0.0,0.0,0.0,3.1058,3.0299,3.0299,0.0,0.0,0.0,0.0,0.0,0.0,0.0,0.0,0.0,2.9002,2.9002,2.9002,2.9002,2.8876,2.8149,2.8524,2.938,3.0072,2.9735,2.9129,2.9223,2.9766,3.0329,3.0389,3.0896,3.119,3.0464,2.9566,2.8652,2.7855,2.7074,2.6499,2.6499,2.6499,2.6499,2.6499,2.6499,2.6499,2.6499,2.7014,2.7172,2.6564,2.6934,2.66,2.4957,2.4713,2.4211,2.3178,2.3091,2.3091,2.3091,2.3091,2.3091,2.3091,2.3091,2.3047,2.295,2.0629,1.9451,1.9306,1.6689,1.5271,1.5001,1.4683,1.4389,1.4088,1.4088,1.4088,0.0,1.4088,1.4088,1.387,1.152,1.0611,1.0308,0.7965,0.7014,0.6883,0.0,0.0,0.0,0.0,0.0,0.0,3.1467,3.1739,3.1923,3.1923,3.1923,3.2035,3.2312,3.2971,3.3556,3.3962,0.0,0.0,0.0,0.0,0.0,0.0,0.0,0.0,0.0,0.0,2.9788,2.9845,2.9925,0.0,0.0,0.0,0.0,0.0,0.0,3.0777,2.9504,2.9504,0.0,0.0,0.0,0.0,0.0,0.0,0.0,0.0,0.0,0.0,2.7517,2.7517,2.7517,2.7517,2.767,2.7604,2.767,2.8492,2.8876,2.9002,2.9002,2.9254,2.9628,3.0178,2.9766,2.9286,2.9473,2.846,2.7384,2.704,2.6714,2.6499,2.6499,2.6499,2.6499,2.6499,2.6499,2.6499,2.6499,2.7253,2.7713,2.7471,2.7635,2.754,2.6826,2.5577,2.4339,2.3178,2.3091,2.3091,2.3091,2.3091,2.3091,2.3091,2.3091,2.3091,2.3091,2.1445,2.0215,1.9488,1.7462,1.5945,1.4995,1.4656,1.4362,1.4088,1.4088,1.4088,0.0,1.4088,1.4088,1.387,1.152,1.0611,1.0308,0.7965,0.7007,0.6866,0.0,0.0,0.0,0.0,0.0,3.0208,3.1029,3.1161,3.1219,3.1467,3.1511,3.1511,3.1511,3.1951,3.2477,3.2944,3.2063,0.0,0.0,0.0,0.0,0.0,0.0,0.0,0.0,0.0,2.925,2.9509,2.9565,2.9894,0.0,0.0,3.1511,3.1511,0.0,0.0,0.0,0.0,0.0,0.0,0.0,0.0,0.0,0.0,0.0,0.0,0.0,0.0,0.0,0.0,0.0,2.6589,2.7162,2.6973,2.6658,2.7451,2.8149,2.8556,2.833,2.862,2.916,2.9766,2.9192,2.8556,2.8907,2.8084,2.7095,2.6589,2.6499,2.6499,2.6499,2.6499,2.6499,2.6499,2.6499,2.6499,2.6499,2.7165,2.7745,2.8059,2.8109,2.8117,2.81,2.6108,2.4339,2.3178,2.3091,2.3091,2.3091,2.3091,2.3091,2.3091,2.3091,2.3091,2.3091,2.1889,2.0649,1.9377,1.7799,1.6283,1.4823,1.4529,1.4282,1.4088,1.4088,1.4088,0.0,1.4088,1.4088,1.387,1.152,1.0611,1.0298,0.7912,0.6943,0.6841,0.0,0.0,0.0,0.0,0.0,0.0,3.0178,3.0299,3.0614,3.1409,3.1511,3.1511,3.1511,3.1511,3.1496,3.1524,3.1509,0.0,0.0,0.0,0.0,0.0,0.0,0.0,0.0,0.0,2.8812,2.9509,2.9565,2.9894,3.0507,3.1182,3.1511,3.1511,0.0,0.0,0.0,0.0,0.0,0.0,0.0,0.0,0.0,0.0,0.0,0.0,0.0,0.0,0.0,0.0,0.0,0.0,0.0,2.6499,2.6658,2.7451,2.7703,2.7537,2.6748,2.7736,2.9002,2.9002,2.9659,3.0042,2.9192,2.9002,2.8492,2.685,2.6499,2.6499,2.6499,2.6499,2.6499,2.6499,2.6499,2.6499,2.6499,2.6499,2.6914,2.7971,2.8109,2.8114,2.8108,2.6108,2.4339,2.3178,2.3091,0.0,2.3091,2.3091,2.3091,2.3091,2.3091,2.3091,2.3091,2.1889,2.0562,1.9101,1.7539,1.6002,1.4516,1.4222,1.4088,1.4088,1.4088,1.4088,0.0,1.4088,1.4088,1.387,1.152,1.0611,1.0283,0.7834,0.6834,0.6681,0.0,0.0,0.0,0.0,0.0,0.0,0.0,2.9411,2.9721,3.0584,3.0673,3.0896,3.1438,3.1511,3.1511,3.1511,3.1089,0.0,0.0,0.0,0.0,0.0,0.0,0.0,0.0,0.0,2.9515,3.0189,3.0213,3.0552,3.1182,3.1406,3.1511,3.1511,3.1511,3.0584,0.0,0.0,0.0,0.0,0.0,0.0,2.6499,0.0,0.0,0.0,0.0,0.0,0.0,0.0,0.0,0.0,0.0,0.0,0.0,2.6816,2.7703,2.8266,2.6871,2.7736,2.9002,2.9002,2.8748,2.862,2.8939,2.8524,2.7802,2.6714,2.6499,2.6692,2.7229,2.6871,2.6692,2.7229,2.685,2.6499,2.6499,2.6813,2.719,2.7507,2.821,2.851,2.8144,2.6789,2.5504,2.4339,2.3551,2.3091,2.3091,2.3091,2.3091,2.3091,2.3091,2.3091,2.3091,2.2443,2.1122,1.9093,1.8083,1.6508,1.4509,1.4222,1.4088,1.4088,1.4088,1.4088,1.4088,1.4088,1.4088,1.3955,1.2376,1.1235,1.0288,0.8713,0.7462,0.6536,0.0,0.0,0.0,0.0,0.0,0.0,0.0,2.8524,2.8812,2.969,2.9827,3.0011,3.0494,3.0554,3.0673,3.1029,3.0674,0.0,0.0,0.0,0.0,0.0,0.0,0.0,2.9557,2.9531,2.9856,3.0507,3.0507,3.0823,3.1511,3.1511,3.1511,3.1511,3.1511,3.0584,0.0,0.0,0.0,0.0,0.0,0.0,2.6499,0.0,0.0,0.0,0.0,0.0,0.0,0.0,0.0,0.0,0.0,0.0,0.0,0.0,2.7451,2.8214,2.6871,2.7484,2.8524,2.8524,2.8117,2.792,2.8812,2.8588,2.7953,2.7129,2.6939,2.7007,2.7196,2.685,2.6658,2.7162,2.685,2.6499,2.6499,2.6788,2.709,2.7291,2.826,2.8621,2.7881,2.7377,2.6461,2.4914,2.4125,2.3551,2.3135,2.3091,2.3091,2.3091,2.3091,2.3023,2.2867,2.2646,2.1414,1.9282,1.8389,1.6933,1.4928,1.4374,1.4088,1.4088,1.4088,1.4088,0.0,1.4088,1.4088,1.399,1.2656,1.1447,1.0252,0.894,0.7605,0.6504,0.0,0.0,0.0,0.0,0.0,0.0,0.0,2.7604,2.792,2.878,2.8907,2.8939,2.9002,2.9002,2.9317,3.0133,0.0,0.0,0.0,0.0,0.0,0.0,0.0,0.0,2.9666,2.9666,2.9953,3.0567,3.0567,3.0883,3.1511,3.1511,3.1511,3.1511,3.1511,3.0584,2.8907,2.7196,2.6499,2.6499,2.6499,2.6499,0.0,0.0,0.0,0.0,0.0,0.0,0.0,0.0,0.0,0.0,0.0,0.0,0.0,0.0,0.0,0.0,0.0,2.7095,2.7703,2.7769,2.7769,2.792,2.8716,2.8971,0.0,2.7887,2.7769,2.7571,2.6816,2.6624,2.6589,2.6589,2.6521,2.6499,2.6499,2.6499,2.67,2.7253,2.8185,2.8436,2.7505,2.779,2.7192,2.5083,2.483,2.4296,2.3178,2.3062,2.3052,2.3052,2.3023,2.2838,2.2519,2.2451,2.145,1.9584,1.8478,1.7167,1.5662,1.4573,1.4088,0.0,1.4088,1.4088,1.4088,1.4088,1.4075,1.3944,1.2557,1.1338,1.0176,0.8689,0.741,0.6477,0.0,0.0,0.0,0.0,0.0,0.0,0.0,0.0,0.0,0.0,2.8019,2.8279,2.8939,2.9002,2.9097,0.0,0.0,0.0,0.0,0.0,0.0,0.0,0.0,0.0,3.0283,3.0283,3.0612,3.1256,3.1256,3.1346,3.1511,3.1511,3.1511,3.1511,3.1511,3.0584,2.8907,2.7196,2.6499,2.6499,2.6499,2.6499,0.0,0.0,0.0,0.0,2.6499,2.6499,0.0,0.0,0.0,0.0,0.0,0.0,0.0,0.0,2.6624,2.6748,2.6555,0.0,2.7855,2.8524,2.8182,2.7769,0.0,2.8524,2.8748,2.7887,2.8247,2.8652,2.846,2.7855,2.7417,2.7417,2.6905,2.6499,2.6499,2.6499,2.67,2.7253,2.7507,2.7887,2.8486,2.7908,2.7102,2.6149,2.5294,2.4296,2.3178,2.2789,2.2656,2.2656,2.2344,2.2285,2.251,2.1824,2.0878,1.9575,1.8172,1.6844,1.5662,1.4573,1.4088,1.4088,1.4088,1.4088,1.4088,1.4088,1.3955,1.37,1.3333,1.1838,0.9806,0.9424,0.8043,0.6344,0.0,0.0,0.0,0.0,0.0,0.0,0.0,0.0,0.0,0.0,0.0,2.7317,2.7802,2.7855,0.0,0.0,0.0,0.0,0.0,0.0,0.0,0.0,0.0,3.0627,3.0943,3.0943,3.1137,3.1511,3.1511,3.1511,3.1511,3.1511,3.1511,3.1467,3.0703,2.9858,2.8907,2.7196,2.6499,2.6499,2.6499,0.0,0.0,0.0,0.0,0.0,2.6499,2.6499,0.0,2.6499,2.6499,2.6499,0.0,0.0,0.0,0.0,2.6782,2.6692,2.7451,2.767,2.7802,2.8298,2.8051,2.7802,2.8214,2.8652,2.8876,2.8395,2.9002,2.9473,2.9066,2.8298,2.7703,2.7703,2.704,2.6499,2.6499,2.6499,2.66,2.6901,2.7165,2.7519,2.8109,2.7841,2.7162,2.5898,2.5223,2.4209,2.2644,2.2344,2.2227,2.2227,2.1807,2.1699,2.1882,2.1424,2.0833,2.0045,1.8164,1.7009,1.6396,1.4817,1.4088,1.4088,1.4088,1.4088,1.4075,1.3941,1.3746,1.3532,1.2772,1.1356,0.9615,0.9048,0.7751,0.63,0.0,0.0,0.0,0.0,0.0,0.0,0.0,0.0,0.0,0.0,0.0,0.0,0.0,0.0,0.0,0.0,0.0,0.0,0.0,0.0,0.0,0.0,3.1351,3.1511,3.1511,3.1511,3.1511,3.1511,3.1511,3.1511,3.1511,3.1511,3.1511,3.1438,2.9766,2.9002,2.8907,2.7196,2.6499,2.6499,2.6499,0.0,0.0,0.0,0.0,0.0,0.0,0.0,0.0,2.6499,2.6499,2.6499,2.6499,0.0,0.0,0.0,0.0,0.0,2.8363,2.8279,2.7736,2.7855,2.7802,2.7887,2.862,2.8812,2.8812,2.8812,2.9597,2.9981,2.9002,2.8427,2.7953,2.7571,2.6939,2.6499,2.6499,2.6499,2.6499,2.6499,2.6901,2.7228,2.7268,2.7708,2.72,2.5392,2.5082,2.414,2.2236,2.1899,2.1787,2.1787,2.1367,2.1093,2.1093,2.1093,2.0937,2.0566,1.835,1.7302,1.7212,1.5068,1.4088,1.4088,0.0,0.0,1.4001,1.3706,1.3547,1.3333,1.1959,1.0695,0.9515,0.8415,0.7403,0.6528,0.0,0.0,0.0,0.0,0.0,0.0,0.0,0.0,0.0,0.0,0.0,0.0,0.0,0.0,0.0,0.0,0.0,0.0,0.0,0.0,0.0,2.9348,3.0748,3.1511,3.1511,3.1511,3.1511,3.1511,3.1511,3.1511,3.1511,3.1511,3.1511,3.1438,2.9766,2.9002,2.8907,2.7196,2.6499,2.6499,2.6499,0.0,0.0,0.0,0.0,0.0,0.0,0.0,0.0,2.6499,2.6499,2.6499,2.6499,0.0,0.0,0.0,0.0,0.0,2.7637,2.7802,2.7887,2.862,2.8247,2.7736,2.7855,2.7887,2.7887,2.7887,2.9192,2.9827,2.8214,2.9002,2.9192,2.704,2.6589,2.6499,2.6499,2.6499,2.6499,2.6499,2.6562,2.6801,2.7266,2.7356,2.7113,2.6349,2.547,2.4445,2.3131,2.1949,2.1298,2.1298,2.0898,2.0703,2.0703,2.0703,2.0674,2.0566,1.835,1.7302,1.7212,1.5068,1.4088,1.4088,0.0,1.3941,1.3666,1.362,1.334,1.2911,1.2664,1.1244,0.9342,0.916,0.8428,0.7553,0.0,0.0,0.0,0.0,0.0,0.0,0.0,0.0,0.0,0.0,0.0,0.0,0.0,0.0,0.0,0.0,0.0,0.0,0.0,0.0,2.8084,2.8971,2.9735,3.0359,3.0837,3.0837,3.1058,3.1511,3.1511,3.1511,3.1511,3.1511,3.1511,3.1438,2.9766,2.9002,2.8907,2.7196,2.6499,2.6499,0.0,0.0,0.0,0.0,0.0,0.0,0.0,0.0,0.0,0.0,2.6499,2.6499,2.6499,0.0,0.0,0.0,0.0,0.0,2.7484,2.7703,2.7802,2.8214,2.7986,2.7703,2.7703,2.7703,2.7703,2.7703,2.8716,2.9348,2.8556,2.8456,2.7814,2.5909,2.5812,2.6021,2.6021,2.6298,2.6499,2.6499,2.6499,2.66,2.6851,2.6876,2.6542,2.5754,2.4771,2.3732,2.2657,2.1499,2.0869,2.0869,2.0713,2.0605,2.0605,2.0605,2.0605,2.0566,1.835,1.7302,1.7212,1.5068,1.4088,1.4082,0.0,1.3726,1.358,1.3293,1.3038,1.2726,1.1986,1.075,0.9221,0.8689,0.8199,0.7783,0.0,0.0,0.0,0.0,0.0,0.0,0.0,0.0,0.0,0.0,0.0,0.0,0.0,0.0,0.0,0.0,0.0,0.0,0.0,2.7417,2.7736,2.8395,2.8395,2.8907,2.9981,3.0011,3.0299,3.0896,3.0896,3.1029,3.1219,3.1409,3.1511,3.1438,2.9766,2.9002,2.8907,2.7196,2.6499,2.6499,0.0,0.0,0.0,0.0,0.0,0.0,0.0,0.0,0.0,0.0,0.0,0.0,0.0,0.0,0.0,2.7451,2.7263,2.6905,2.755,2.7703,2.7637,2.7484,2.7703,2.7953,2.7769,2.7703,2.7637,2.7451,2.8009,2.8489,2.8432,2.741,2.6278,2.5269,2.5277,2.546,2.5573,2.6009,2.6336,2.6474,2.6499,2.6499,2.6499,2.6499,2.6164,2.5406,2.4409,2.3404,2.2403,2.1451,2.0828,2.0605,2.0605,2.0605,2.0605,2.0605,2.0605,2.0566,1.863,1.7545,1.7212,1.5272,1.4226,1.3968,1.3633,1.346,1.3394,1.2978,1.2744,1.2581,1.1552,1.0527,0.9518,0.8537,0.8012,0.7821,0.0,0.0,0.0,0.0,0.0,0.0,0.0,0.0,0.0,0.0,0.0,0.0,0.0,0.0,0.0,0.0,0.0,0.0,0.0,2.6589,2.6624,2.6692,2.6692,2.7451,2.9066,2.9097,2.9129,2.9192,2.9192,2.9597,3.0389,3.1161,3.1511,3.1438,2.9766,2.9002,2.8907,2.7196,2.6499,2.6499,2.6499,0.0,0.0,0.0,0.0,0.0,0.0,0.0,0.0,0.0,0.0,0.0,0.0,0.0,2.6658,2.7451,2.767,2.7637,2.767,2.7703,2.7517,2.6782,2.7769,2.8684,2.7887,2.7703,2.7484,2.6748,2.6835,2.6973,2.6714,2.6144,2.5759,2.5975,2.5364,2.5046,2.5523,2.5636,2.585,2.6436,2.6499,2.6499,2.6499,2.6499,2.6452,2.6383,2.5441,2.4445,2.3452,2.244,2.1479,2.0644,2.0605,2.0605,2.0605,2.0605,2.0605,2.0605,1.9441,1.831,1.7245,1.5834,1.4624,1.362,1.3367,1.308,1.2844,1.2804,1.2623,1.2331,1.2231,1.1583,1.0565,0.9556,0.8618,0.7931,0.0,0.0,0.0,0.0,0.0,0.0,0.0,0.0,0.0,0.0,0.0,0.0,0.0,0.0,0.0,0.0,0.0,0.0,0.0,2.6499,2.6499,2.6499,2.6499,2.6816,2.7417,2.7953,2.846,2.9002,2.9535,2.9981,3.0329,3.1117,3.1219,3.0703,2.9504,2.8716,2.8117,2.6973,2.6499,2.6499,2.6499,2.6499,0.0,0.0,0.0,0.0,0.0,0.0,0.0,0.0,2.6499,2.6499,2.6499,2.6499,2.6555,2.685,2.6939,2.6939,2.6939,2.6939,2.6871,2.6589,2.7351,2.7953,2.7129,2.6939,2.6871,2.6555,2.629,2.5875,2.5073,2.4757,2.4501,2.4259,2.4272,2.4381,2.4582,2.4895,2.531,2.585,2.5925,2.6097,2.6461,2.6499,2.6499,2.6499,2.4992,2.3891,2.3514,2.2,2.0972,2.0605,2.0605,2.0605,2.0605,2.0303,2.0156,2.0156,1.9101,1.8022,1.701,1.5528,1.4295,1.336,1.3053,1.2891,1.277,1.2583,1.2405,1.2187,1.0913,1.0981,1.1545,0.9895,0.9069,0.877,0.0,0.0,0.0,0.0,0.0,0.0,0.0,0.0,0.0,0.0,0.0,0.0,0.0,0.0,0.0,0.0,0.0,0.0,2.6499,2.6499,2.6499,2.6499,2.6499,2.6499,2.6499,2.704,2.7604,2.8214,2.9066,2.9473,2.9504,3.0329,3.0419,2.9858,2.8971,2.8279,2.7637,2.685,2.6499,2.6499,2.6499,2.6499,0.0,0.0,0.0,0.0,0.0,0.0,0.0,0.0,2.6499,2.6499,2.6499,2.6499,2.6499,2.6499,2.6692,2.6816,2.6555,2.6679,2.6765,2.6328,2.6637,2.684,2.6144,2.6299,2.6497,2.6043,2.5624,2.5021,2.3929,2.3879,2.3803,2.3195,2.3434,2.3791,2.3966,2.4318,2.4757,2.5285,2.536,2.5511,2.59,2.5971,2.5836,2.5574,2.4284,2.3234,2.2669,2.1406,2.0536,2.0204,2.0204,2.0204,2.0204,1.9863,1.9717,1.9717,1.8817,1.781,1.6622,1.5511,1.4267,1.3046,1.2777,1.2643,1.263,1.2385,1.2305,1.2114,1.0421,1.0795,1.2077,1.0383,0.9561,0.9296,0.0,0.0,0.0,0.0,0.0,0.0,0.0,0.0,0.0,0.0,0.0,0.0,0.0,0.0,0.0,0.0,0.0,0.0,2.6549,2.6499,2.6499,2.6499,2.6499,2.6499,2.6499,2.6499,2.6499,2.6499,2.7317,2.7703,2.7736,2.8588,2.9002,2.8939,2.8084,2.7703,2.7637,2.685,2.6499,2.6499,2.6499,2.6499,2.6499,0.0,0.0,0.0,0.0,0.0,0.0,0.0,2.6499,2.6499,2.6499,2.6499,2.6499,2.6499,2.7074,2.7504,2.6714,2.7061,2.736,2.5945,2.5586,2.5448,2.4901,2.5878,2.6484,2.5069,2.4775,2.4437,2.3308,2.3602,2.3803,2.3195,2.3108,2.3308,2.3916,2.3991,2.4192,2.4713,2.4775,2.4788,2.4788,2.4788,2.4439,2.3535,2.3468,2.2684,2.0896,2.079,2.0339,1.9323,1.9287,1.9287,1.9287,1.9287,1.9277,1.9277,1.8802,1.7733,1.6203,1.5922,1.4694,1.2764,1.2432,1.2305,1.2305,1.2305,1.2305,1.2187,1.1205,1.1391,1.2187,1.1162,1.0153,0.9301,0.0,0.0,0.0,0.0,0.0,0.0,0.0,0.0,0.0,0.0,0.0,0.0,0.0,0.0,0.0,0.0,0.0,0.0,2.7632,2.7256,2.7065,2.7065,2.67,2.6499,2.6499,2.6499,2.6499,2.6499,2.7317,2.7703,2.7736,2.8588,2.8684,2.8084,2.7835,2.7384,2.685,2.6589,2.6499,2.6499,2.6499,2.6499,2.6499,0.0,0.0,0.0,0.0,0.0,0.0,0.0,0.0,0.0,2.6499,2.6499,2.6499,2.6499,2.6692,2.6727,2.6064,2.6038,2.6031,2.525,2.5059,2.4908,2.4368,2.4849,2.5205,2.4419,2.4243,2.4017,2.3246,2.3246,2.3308,2.3133,2.3108,2.3158,2.3333,2.3358,2.3572,2.418,2.4243,2.4158,2.3919,2.389,2.3501,2.2638,2.1955,2.1376,2.0825,2.0135,1.9604,1.9323,1.9287,1.9287,1.9287,1.8984,1.8792,1.8792,1.8364,1.7398,1.5914,1.5549,1.4309,1.2425,1.2338,1.2305,1.2305,1.2305,1.2305,1.2187,1.1205,1.1391,1.2187,1.1162,1.0596,1.0265,0.0,0.0,0.0,0.0,0.0,0.0,0.0,0.0,0.0,0.0,2.949,2.9277,0.0,0.0,0.0,0.0,0.0,0.0,0.0,2.7795,2.7607,2.7607,2.7115,2.6713,2.6499,2.6499,2.6499,2.6499,2.7007,2.7229,2.7229,2.7769,2.7736,2.7229,2.7229,2.6939,2.6499,2.6499,2.6499,2.6499,2.6499,2.6499,2.6499,0.0,0.0,0.0,0.0,0.0,0.0,0.0,0.0,0.0,2.6499,2.6499,2.6499,2.6499,2.6336,2.6072,2.5686,2.5448,2.5159,2.4632,2.4494,2.4311,2.376,2.3885,2.4023,2.3697,2.3653,2.3521,2.317,2.3108,2.3108,2.3108,2.3108,2.3108,2.3108,2.2823,2.2764,2.3127,2.287,2.2568,2.239,2.2348,2.1974,2.1106,2.0505,2.0035,1.9698,1.9123,1.8779,1.8779,1.8779,1.8779,1.8779,1.8481,1.8354,1.8354,1.8135,1.7139,1.5549,1.5298,1.4127,1.2305,1.2305,1.2305,1.2305,1.2305,1.2305,1.2224,1.162,1.1768,1.2224,1.162,1.1124,1.0677,0.0,0.0,0.0,0.0,0.0,0.0,0.0,0.0,0.0,0.0,2.9792,2.9792,0.0,0.0,0.0,0.0,0.0,0.0,0.0,2.821,2.8185,2.8185,2.7607,2.7077,2.6575,2.6524,2.6499,2.6499,2.6499,2.6499,2.6499,2.6499,2.6499,2.6499,2.6499,2.6499,2.6499,2.6499,2.6499,2.6499,2.6499,2.6499,2.6499,2.6499,0.0,0.0,0.0,0.0,0.0,0.0,0.0,0.0,2.6499,2.6499,2.6487,2.6436,2.6047,2.5573,2.5473,2.5109,2.4587,2.4054,2.3916,2.3778,2.3233,2.3108,2.3108,2.3108,2.3108,2.3108,2.3108,2.3108,2.3108,2.3108,2.3108,2.3078,2.3005,2.2353,2.1877,2.1784,2.108,2.0558,2.0494,2.0494,2.0107,1.9243,1.9177,1.8854,1.8042,1.8008,1.8008,1.8008,1.8008,1.8008,1.8008,1.8008,1.8008,1.8008,1.7906,1.6941,1.5199,1.5199,1.4127,1.2305,1.2305,1.2305,1.2305,1.2305,1.2305,1.2305,1.2305,1.2305,1.2305,1.2305,1.1731,1.0783,0.0,0.0,0.0,0.0,0.0,0.0,0.0,0.0,0.0,0.0,0.0,0.0,0.0,0.0,0.0,0.0,0.0,0.0,0.0,2.9001,2.8712,2.8712,2.7808,2.7266,2.714,2.6713,2.6499,2.6499,2.6499,2.6499,2.6499,2.6499,2.6499,2.6499,2.6499,2.6499,2.6499,2.6499,2.6499,2.6499,2.6499,2.6499,2.6499,2.6499,2.6499,0.0,0.0,0.0,0.0,0.0,0.0,0.0,2.6499,2.6499,2.6411,2.5912,2.5686,2.541,2.4569,2.4255,2.4042,2.3434,2.3296,2.3258,2.3133,2.3108,2.3108,2.3108,2.3108,2.3108,2.3108,2.3108,2.3108,2.3108,2.3108,2.2884,2.2261,2.2002,2.1659,2.0942,2.0719,2.0333,1.9661,1.9595,1.921,1.8337,1.8269,1.8202,1.8008,1.8008,1.8008,1.8008,1.8008,1.8008,1.8008,1.8008,1.8008,1.7974,1.7251,1.6289,1.5199,1.5199,1.4127,1.2305,1.2305,1.2305,1.2305,1.2305,1.2305,1.2305,1.2305,1.2305,1.2305,1.2305,1.215,1.1731,0.0,0.0,0.0,0.0,0.0,0.0,0.0,0.0,0.0,0.0,0.0,0.0,0.0,0.0,0.0,0.0,0.0,0.0,0.0,0.0,2.9176,2.89,2.8122,2.7557,2.7329,2.6776,2.6499,2.6499,2.6499,2.6499,2.6499,2.6499,2.6499,2.6499,2.6499,2.6499,2.6499,2.6499,2.6499,2.6499,2.6499,2.6499,2.6499,2.6499,2.6499,2.6499,2.6499,0.0,0.0,0.0,0.0,0.0,0.0,0.0,2.6021,2.5686,2.5234,2.4707,2.4155,2.3803,2.3484,2.3183,2.3108,2.3108,2.3108,2.3108,2.2975,2.2598,2.2537,2.2414,2.199,2.1896,2.1896,2.1896,2.1896,2.1772,2.1333,2.091,2.0494,2.0042,1.9595,1.9177,1.8721,1.8687,1.8496,1.8042,1.8008,1.8008,1.8008,1.8008,1.8008,1.8008,1.8008,1.8008,1.8008,1.8008,1.8008,1.7974,1.7035,1.586,1.445,1.4019,1.3266,1.2305,1.2305,1.2305,1.2305,1.2305,1.2305,1.2305,1.2305,1.2305,1.2305,1.2305,1.2305,1.2003,0.0,0.0,0.0,0.0,0.0,0.0,0.0,0.0,0.0,0.0,0.0,0.0,0.0,0.0,0.0,0.0,0.0,0.0,0.0,0.0,0.0,2.9063,2.8549,2.7996,2.7444,2.6927,2.6587,2.6499,2.6499,2.6499,2.6499,2.6499,2.6499,2.6499,2.6499,2.6499,2.6499,2.6499,2.6499,2.6499,2.6499,2.6499,2.6499,2.6499,2.6499,2.6499,2.6499,2.6499,2.6499,2.6499,0.0,0.0,0.0,0.0,2.5573,2.5485,2.477,2.3979,2.3879,2.3471,2.3108,2.3108,2.3108,2.3108,2.3108,2.3108,2.2823,2.1877,2.1815,2.1616,2.0751,2.059,2.059,2.059,2.059,2.0558,2.0398,1.9759,1.9233,1.9077,1.8428,1.8008,1.8008,1.8008,1.8008,1.8008,1.8008,1.8008,1.8008,1.8008,1.8008,1.8008,1.8008,1.8008,1.8008,1.8008,1.8008,1.7974,1.6888,1.5332,1.3419,1.2666,1.2305,1.2305,1.2305,1.2305,1.2305,1.2305,1.2305,1.2305,1.2305,1.2305,1.2305,1.2305,1.2305,1.204,0.0,0.0,0.0,0.0,0.0,0.0,0.0,0.0,0.0,0.0,2.9792,2.9792,0.0,0.0,0.0,0.0,0.0,0.0,2.9792,0.0,0.0,2.9679,2.9126,2.8561,2.8009,2.7457,2.6977,2.6499,2.6499,2.6499,2.6499,2.6499,2.6499,2.6499,2.6499,2.6499,2.6499,2.6499,2.6499,2.6499,2.6499,2.6499,2.6499,2.6499,2.6499,2.6499,2.6499,2.6499,2.6499,2.6499,2.6499,0.0,0.0,0.0,2.5511,2.5059,2.4494,2.3891,2.3358,2.3158,2.3108,2.3108,2.3108,2.3108,2.3108,2.3108,2.2659,2.1101,2.1365,2.1616,2.0751,2.059,2.059,2.059,2.059,2.0333,1.9595,1.9365,1.9011,1.8269,1.8076,1.8008,1.8008,1.8008,1.8008,1.8008,1.8008,1.8008,1.8008,1.8008,1.8008,1.8008,1.8008,1.8008,1.8008,1.8008,1.8008,1.7974,1.6228,1.4378,1.2482,1.2378,1.2305,1.2305,1.2305,1.2305,1.2305,1.2305,1.2305,1.2305,1.2305,1.2305,1.2305,1.2305,1.2305,1.215,0.0,0.0,0.0,0.0,0.0,0.0,0.0,0.0,0.0,0.0,0.0,2.9792,0.0,0.0,0.0,2.9792,2.9792,2.9792,2.9792,2.9792,2.9792,2.9792,2.9239,2.8775,2.8537,2.772,2.7168,2.6952,2.665,2.6499,2.6499,2.6499,2.6499,2.6499,2.6499,2.6499,2.6499,2.6499,2.6499,2.6499,2.6499,2.6499,2.6499,2.6499,2.6499,2.6499,2.6499,2.6499,2.6499,2.6499,2.6499,2.6436,2.6109,0.0,0.0,0.0,2.3954,2.3434,2.317,2.3108,2.3108,2.3108,2.3108,2.3108,2.3108,2.3108,2.2628,2.0942,2.091,2.0751,1.9398,1.9144,1.9144,1.9144,1.9144,1.9011,1.863,1.8553,1.8428,1.8042,1.8008,1.8008,1.8008,1.8008,1.8008,1.8008,1.8008,1.8008,1.8008,1.8008,1.8008,1.8008,1.8008,1.8008,1.8008,1.8008,1.7476,1.6411,1.5021,1.3629,1.2305,1.2305,1.2305,1.2305,1.2305,1.2305,1.2305,1.2305,1.2305,1.2305,1.2305,1.2305,1.2305,1.2305,1.2305,1.215,0.0,0.0,0.0,0.0,0.0,0.0,0.0,0.0,0.0,0.0,0.0,0.0,0.0,0.0,0.0,0.0,2.9792,2.9792,2.9792,2.9792,2.9792,2.9792,2.9377,2.9076,2.8888,2.7984,2.7419,2.7281,2.6763,2.6499,2.6499,2.6499,2.6499,2.6499,2.6499,2.6499,2.6499,2.6499,2.6499,2.6499,2.6499,2.6499,2.6499,2.6499,2.6499,2.6499,2.6499,2.6499,2.6499,2.6499,2.6499,2.6386,2.5774,2.5247,0.0,0.0,0.0,2.3108,2.3108,2.3108,2.3108,2.3108,2.3108,2.3108,2.3108,2.3108,2.2689,2.1227,2.0751,2.0139,1.863,1.8144,1.8008,1.8008,1.8008,1.8008,1.8008,1.8008,1.8008,1.8008,1.8008,1.8008,1.8008,1.8008,1.8008,1.8008,1.8008,1.8008,1.8008,1.8008,1.8008,1.8008,1.8008,1.7906,1.7647,1.7398,1.6446,1.4807,1.4063,1.32,1.2305,1.2305,1.2305,1.2305,1.2305,1.2305,1.2305,1.2305,1.2305,1.2305,1.2305,1.2305,1.2305,1.2305,1.2305,1.2187,0.0,0.0,0.0,0.0,0.0,0.0,0.0,0.0,0.0,0.0,0.0,0.0,2.9792,2.9792,2.9792,2.9792,2.9792,2.9792,2.9792,2.9792,2.9792,2.9792,2.9767,0.0,2.89,2.836,2.7808,2.7281,2.6763,2.6499,2.6499,2.6499,2.6499,2.6499,2.6499,2.6499,2.6499,2.6499,2.6499,2.6499,2.6499,2.6499,2.6499,2.6499,2.6499,2.6499,2.6499,2.6499,2.6499,2.6499,2.6499,2.6386,2.5774,2.5247,2.4675,0.0,0.0,0.0,2.3108,2.3108,2.3108,2.3108,2.3108,2.3108,2.3108,2.3108,2.2854,2.2002,2.1175,2.0333,1.9398,1.8563,1.8008,1.8008,1.8008,1.8008,1.8008,1.8008,1.8008,1.8008,1.8008,1.8008,1.8008,1.8008,1.8008,1.8008,1.8008,1.8008,1.8008,1.8008,1.8008,1.8008,1.8008,1.7569,1.6671,1.5799,1.4807,1.3781,1.3709,1.32,1.2305,1.2305,1.2305,1.2305,1.2305,1.2305,1.2305,1.2305,1.2305,1.2305,1.2305,1.2305,1.2305,1.2305,1.2305,1.2298,0.0,0.0,0.0,0.0,0.0,0.0,0.0,0.0,0.0,0.0,0.0,0.0,0.0,2.9792,2.9792,2.9792,2.9792,2.9792,2.9792,2.9792,2.9792,2.9792,2.9792,2.9691,2.949,2.8925,2.836,2.7808,2.7291,2.6839,2.6499,2.6499,2.6499,2.6499,2.6499,2.6499,2.6499,2.6499,2.6499,2.6499,2.6499,2.6499,2.6499,2.6499,2.6499,2.6499,2.6499,2.6499,2.6499,2.6499,2.6499,2.6336,2.5385,2.4938,2.4612,2.3684,2.3271,2.3108,2.3108,2.3108,2.3108,2.3108,2.3108,2.3108,2.3108,2.3108,2.2884,2.2075,2.1207,2.0333,1.9464,1.8596,1.8008,1.8008,1.8008,1.8008,1.8008,1.8008,1.8008,1.8008,1.8008,1.8008,1.8008,1.8008,1.8008,1.8008,1.8008,1.8008,1.8008,1.8008,1.8008,1.8008,1.8008,1.7535,1.6602,1.5013,1.4063,1.3709,1.3098,1.2629,1.2305,1.2305,1.2305,1.2305,1.2305,1.2305,1.2305,1.2305,1.2305,1.2305,1.2305,1.2305,1.2305,1.2305,1.2305,1.2305,0.0,0.0,0.0,0.0,0.0,0.0,0.0,0.0,2.9792,2.9792,0.0,0.0,0.0,0.0,2.9792,2.9792,2.9792,2.9792,2.9792,2.9792,2.9792,2.9792,2.9792,2.9792,2.9792,2.9038,2.8473,2.8109,2.7369,2.6851,2.6499,2.6499,2.6499,2.6499,2.6499,2.6499,2.6499,2.6499,2.6499,2.6499,2.6499,2.6499,2.6499,2.6499,2.6499,2.6499,2.6499,2.6499,2.6499,2.6499,2.6361,2.6047,2.5109,2.4525,2.4073,2.3321,2.3108,2.3108,2.3108,2.3108,2.3108,2.3108,2.3108,2.3108,2.3108,2.3108,2.2884,2.2075,2.1207,2.0333,1.9464,1.8596,1.8008,1.8008,1.8008,1.8008,1.8008,1.8008,1.8008,1.8008,1.8008,1.8008,1.8008,1.8008,1.8008,1.8008,1.8008,1.7862,1.7535,1.7535,1.7535,1.7535,1.7217,1.6759,1.614,1.4199,1.3237,1.3237,1.2592,1.2305,1.2305,1.2305,1.2305,1.2305,1.2305,1.2305,1.2305,1.2305,1.2305,1.2305,1.2305,1.2305,1.2305,1.2305,1.2305,1.2305,0.0,0.0,0.0,0.0,0.0,0.0,0.0,0.0,2.9792,2.9792,0.0,0.0,0.0,0.0,0.0,2.9792,2.9792,2.9792,2.9792,2.9792,2.9792,2.9792,2.9792,2.9792,2.9792,2.8699,2.8122,2.8109,2.7052,2.6512,2.6499,2.6499,2.6499,2.6499,2.6499,2.6499,2.6499,2.6499,2.6499,2.6499,2.6499,2.6499,2.6499,2.6499,2.6499,2.6499,2.6499,2.6499,2.6499,2.6499,2.6109,2.5498,2.4938,2.3998,2.3108,2.3108,2.3108,2.3108,0.0,0.0,0.0,2.3108,2.3108,2.3108,2.3108,2.3108,2.2884,2.2094,2.1239,2.0333,1.9497,1.863,1.8008,1.8008,1.8008,1.8008,1.8008,1.8008,1.8008,1.8008,1.8008,1.8008,1.8008,1.8008,1.8008,1.8008,1.8008,1.7613,1.6706,1.6636,1.6636,1.6602,1.572,1.5234,1.5199,1.3302,1.2342,1.2305,1.2305,1.2305,1.2305,1.2305,1.2305,1.2305,1.2305,1.2305,1.2305,1.2305,1.2305,1.2305,1.2305,1.2305,1.2305,1.2305,1.2305,1.2305,0.0,0.0,0.0,0.0,0.0,2.9792,2.9792,2.9792,2.9792,0.0,0.0,0.0,2.9792,2.9792,2.9792,2.9792,2.9792,2.9792,2.9792,2.9792,2.9792,2.9792,2.9792,2.9792,2.9792,2.9076,2.8511,2.8109,2.7394,2.6889,2.6499,2.6499,2.6499,2.6499,2.6499,2.6499,2.6499,2.6499,2.6499,2.6499,2.6499,2.6499,2.6499,2.6499,2.6499,2.6499,2.6499,2.6499,2.6499,2.6499,2.6109,2.5435,2.4519,2.3697,2.3108,2.3108,2.3108,2.3108,2.3108,0.0,0.0,0.0,0.0,0.0,2.3108,2.3108,2.3047,2.2823,2.1616,2.0526,2.0268,1.9011,1.8008,1.8008,1.8008,1.8008,1.8008,1.8008,1.8008,1.8008,1.8008,1.8008,1.8008,1.8008,1.8008,0.0,1.8008,1.7906,1.7647,1.7613,1.7285,1.6636,1.6358,1.5904,1.5199,1.3954,1.2989,1.2305,1.2305,1.2305,1.2305,1.2305,1.2305,1.2305,1.2305,1.2305,1.2305,1.2305,1.2305,1.2305,1.2305,1.2305,1.2305,1.2305,1.2305,1.2305,0.0,0.0,0.0,0.0,0.0,2.9792,2.9792,2.9792,2.9792,0.0,0.0,0.0,2.9792,2.9792,2.9792,2.9792,2.9792,2.9792,2.9792,2.9792,2.9792,2.9792,2.9792,2.9792,2.9792,2.9001,2.8423,2.8109,2.7318,2.6813,2.6499,2.6499,2.6499,2.6499,2.6499,2.6499,2.6499,2.6499,2.6499,2.6499,2.6499,2.6499,2.6499,2.6499,2.6499,2.6465,2.6025,2.6129,2.643,2.6025,2.5608,2.5084,2.3979,2.3371,2.3108,2.3108,2.3108,2.3108,2.3108,2.3108,2.3108,2.3108,0.0,0.0,2.3108,2.3108,2.3005,2.2659,2.1834,2.091,2.0204,1.9243,1.8428,1.8076,1.8008,1.8008,1.8008,1.8008,1.8008,1.8008,1.8008,1.8008,1.8008,1.8008,1.8008,1.8008,1.8008,1.7828,1.7432,1.7432,1.7182,1.6636,1.621,1.5755,1.5199,1.381,1.2842,1.2305,1.2305,1.2305,1.2305,1.2305,1.2305,1.2305,1.2305,1.2305,1.2305,1.2305,1.2305,1.2305,1.2305,1.2305,1.2305,1.2305,1.2305,1.2305,0.0,0.0,2.9792,2.9792,2.9792,2.9792,2.9792,2.9792,2.9792,0.0,2.9792,2.9792,2.9792,2.9792,2.9792,2.9792,2.9792,2.9792,2.9792,2.9792,2.9792,2.9792,2.9792,2.9767,2.9691,2.8649,2.8072,2.8009,2.7002,2.6499,2.6499,2.6499,2.6499,2.6499,2.6499,2.6499,2.6499,2.6499,2.6499,2.6499,2.6499,2.6499,2.6499,2.6383,2.6349,2.6198,2.5182,2.5406,2.6035,2.512,2.4825,2.46,2.3459,2.3108,2.3108,2.3108,2.3108,2.3108,2.3108,2.3108,2.3108,2.3108,2.3108,0.0,2.3108,2.3108,2.2884,2.2199,2.197,2.1428,1.9879,1.9529,1.9177,1.8395,1.8202,1.811,1.8008,1.8008,1.8008,1.8008,1.8008,1.8008,1.8008,1.8008,1.8008,1.8008,1.8008,1.7579,1.6636,1.6706,1.6671,1.6454,1.572,1.5269,1.5021,1.331,1.2409,1.2305,1.2305,1.2305,1.2305,1.2305,1.2305,1.2305,1.2305,1.2305,1.2305,1.2305,1.2305,1.2305,1.2305,1.2305,1.2305,1.2305,1.2305,1.2305,0.0,2.9792,2.9792,2.9792,2.9792,2.9792,2.9792,2.9792,2.9792,2.9792,2.9792,2.9792,2.9792,2.9792,2.9792,2.9792,2.9792,2.9792,2.9792,2.9792,2.9792,2.9792,2.9792,2.9578,2.9076,2.8448,2.7896,2.7444,2.6813,2.6499,2.6499,2.6499,2.6499,2.6499,2.6499,2.6499,2.6499,2.6499,2.6499,2.6499,2.6499,2.6499,2.6418,2.5594,2.53,2.5146,2.4145,2.3927,2.4054,2.3732,2.4159,2.46,2.3459,2.3108,2.3108,2.3108,2.3108,2.3108,2.3108,2.3108,2.3108,2.3108,2.3108,0.0,2.3108,2.3108,2.3078,2.2884,2.2353,2.1815,2.1459,2.0814,2.0301,2.0107,1.9497,1.8787,1.811,1.8008,1.8008,1.8008,1.8008,1.8008,1.8008,1.8008,1.8008,1.8008,1.8008,1.7579,1.6636,1.732,1.7044,1.5517,1.6044,1.5579,1.3991,1.3637,1.3062,1.2305,1.2305,1.2305,1.2305,1.2305,1.2305,1.2305,1.2305,1.2305,1.2305,1.2305,1.2305,1.2305,1.2305,1.2305,1.2305,1.2305,1.2305,1.2305,2.9792,2.9792,2.9792,2.9792,2.9792,2.9792,2.9792,2.9792,2.9792,2.9792,2.9792,2.9792,2.9792,2.9792,2.9792,2.9792,2.9792,2.9792,2.9792,2.9792,2.9792,2.9792,2.9792,2.9528,2.89,2.8386,2.7833,2.7281,2.6763,2.6499,2.6499,2.6499,2.6245,2.5769,2.628,2.6233,2.5769,2.628,2.6499,2.6499,2.6499,2.6499,2.6383,2.537,2.5004,2.4791,2.3294,2.3073,2.3478,2.336,2.3976,2.46,2.3459,2.3108,2.3108,2.3108,2.3108,2.3108,2.3108,2.3108,2.3108,2.3108,2.3108,0.0,0.0,2.3108,2.3108,2.3108,2.2793,2.2384,2.197,2.1522,2.1112,2.0655,2.0236,1.9792,1.9365,1.8563,1.8008,1.8008,1.8008,1.8008,1.8008,1.8008,1.8008,1.8008,1.8008,1.7794,1.732,1.7759,1.7579,1.662,1.6611,1.5895,1.445,1.445,1.3738,1.2305,1.2769,1.2732,1.2305,1.2305,1.2305,1.2305,1.2305,1.2305,1.2305,1.2305,1.2305,1.2305,1.2305,1.2305,1.2305,1.2305,1.2305,1.2305,2.9792,2.9792,2.9792,2.9792,2.9792,2.9792,2.9792,2.9792,2.9792,2.9792,2.9792,2.9792,2.9792,2.9792,2.9702,2.9495,2.9495,2.9495,2.9495,2.9495,2.9523,2.9628,2.9628,2.9302,2.8624,2.8172,2.767,2.7165,2.6713,2.6499,2.6499,2.6499,2.606,2.5335,2.5955,2.5873,2.5335,2.5943,2.6314,2.6487,2.628,2.6314,2.6383,2.5182,2.4707,2.4456,2.244,2.2366,2.3186,2.3075,2.3701,2.435,2.3398,2.3108,2.3108,2.3108,2.3108,2.3108,2.3108,2.3108,2.3108,2.3108,2.3108,2.3108,0.0,0.0,0.0,2.3108,2.3108,2.2884,2.2261,2.2137,2.1873,2.1069,2.0885,2.0778,2.0554,1.9273,1.8362,1.8486,1.8202,1.8076,1.8236,1.811,1.8008,1.8008,1.8008,1.8008,1.8008,1.8008,1.7906,1.7759,1.7001,1.6149,1.5199,1.5021,1.4127,1.2592,1.3164,1.3025,1.2305,1.2305,1.2305,1.2305,1.2305,1.2305,1.2305,1.2305,1.2305,1.2305,1.2305,1.2305,1.2305,1.2305,1.2305,1.2305,2.9792,2.9792,2.9792,2.9792,2.9792,2.9792,2.9792,2.9792,2.9792,2.9792,2.9792,2.9792,2.9792,2.9792,2.9404,2.8386,2.8307,2.8307,2.8307,2.8307,2.8509,2.8975,2.8988,2.8536,2.7494,2.7406,2.714,2.6587,2.6524,2.6499,2.6499,2.6499,2.6452,2.6314,2.5511,2.5594,2.628,2.5511,2.5699,2.6418,2.5511,2.5699,2.628,2.4397,2.3672,2.3404,2.1451,2.1375,2.2152,2.2092,2.2706,2.3442,2.3189,2.3108,2.3108,2.3108,2.3108,2.3108,2.3108,2.3108,2.3108,2.3108,2.3108,2.3108,2.3108,0.0,2.3108,2.3108,0.0,2.3078,2.2975,0.0,0.0,2.2208,2.1916,2.1391,2.0388,1.9821,1.9709,2.0246,1.8944,1.8303,1.9077,1.8462,1.8008,1.8008,1.8008,1.8008,1.8008,1.8008,1.7613,1.6784,1.6671,1.6149,1.5199,1.4314,1.3745,1.3528,1.2806,1.2409,1.2305,1.2305,1.2305,1.2305,1.2305,1.2305,1.2305,1.2305,1.2305,1.2305,1.2305,1.2305,1.2305,1.2305,1.2305,1.2305,2.9792,2.9792,2.9792,2.9792,2.9792,2.9792,2.9792,2.9792,2.9792,2.9792,2.9792,2.9792,2.9792,2.9792,2.9624,2.9145,2.9106,2.9106,2.9106,2.9106,2.9028,2.8913,2.8888,2.8411,2.7306,2.7281,2.7052,2.6499,2.6499,2.6499,2.6499,2.6499,2.6198,2.5629,2.5804,2.5769,2.5629,2.5804,2.6094,2.6418,2.5406,2.5264,2.5406,2.3404,2.2301,2.1707,2.0905,2.1193,2.2003,2.1927,2.2525,2.3266,2.3127,2.3108,2.3108,2.3108,2.3108,2.3108,2.3108,2.3108,2.3108,2.3108,2.3108,2.3108,2.3108,2.3108,2.3108,2.3108,0.0,0.0,0.0,0.0,0.0,0.0,2.2402,2.1972,2.1476,2.0606,1.9904,1.9633,1.9252,1.9059,1.9278,1.8977,1.8519,1.8042,1.8462,1.8529,1.8042,1.8008,1.7828,1.7432,1.7398,1.6966,1.6,1.6123,1.5376,1.3709,1.3882,1.3375,1.2305,1.2305,1.2305,1.2305,1.2305,1.2305,1.2305,1.2305,1.2305,1.2305,1.2305,1.2305,1.2305,1.2305,1.2305,1.2305,2.9792,2.9792,2.9792,2.9792,2.9792,2.9792,2.9792,2.9792,2.9792,2.9792,2.9792,2.9792,2.9792,2.9792,2.9663,2.9365,2.9326,2.9252,2.9104,2.9104,2.8909,2.8474,2.8473,2.8034,2.7115,2.709,2.6901,2.6499,2.6499,2.6499,2.6499,2.6499,2.6094,2.5441,2.5873,2.5838,2.5441,2.5908,2.6233,2.6383,2.5099,2.4264,2.3672,2.244,2.1413,2.0605,2.0605,2.0969,2.1435,2.1531,2.206,2.2735,2.2756,2.2914,2.3108,2.3108,2.3108,2.3108,2.3108,2.3108,2.3108,2.3108,2.3108,2.3108,2.3108,2.3108,2.3108,2.3108,2.3108,0.0,0.0,0.0,2.3058,2.2907,0.0,2.2209,2.1895,2.0974,2.0158,1.9668,1.9745,1.9725,1.9447,1.9425,1.9129,1.8418,1.8944,1.8911,1.8042,1.8008,1.8008,1.8008,1.8008,1.7681,1.6991,1.7398,1.6437,1.4135,1.4557,1.3911,1.2305,1.2305,1.2305,1.2305,1.2305,1.2305,1.2305,1.2305,1.2305,1.2305,1.2305,1.2305,1.2305,1.2305,1.2305,1.2305,2.9792,2.9792,2.9792,2.9792,2.9792,2.9792,2.9792,2.9792,2.9792,2.9792,2.9792,2.9792,2.9792,2.9792,2.9365,2.8255,2.8164,2.7921,2.7409,2.7374,2.7351,2.7346,2.7331,2.7102,2.6537,2.6524,2.6512,2.6499,2.6499,2.6499,2.6499,2.6499,2.6487,2.6418,2.5476,2.5581,2.6383,2.5441,2.5616,2.6349,2.4325,2.2414,2.0828,2.1669,2.1413,2.0605,2.0605,2.0331,2.0051,2.0483,2.0913,0.0,0.0,2.2476,2.3108,2.3108,2.3108,2.3108,2.3108,2.3108,2.3108,2.3108,2.3108,2.3108,2.3108,2.3108,2.3108,2.3108,2.3108,2.3108,2.3108,2.3108,2.2932,2.2393,2.2322,0.0,0.0,2.0702,2.0863,2.1362,2.0693,2.0058,1.9714,1.9696,1.955,0.0,1.9266,1.8911,1.8042,1.8008,1.8008,1.8008,1.8008,1.7974,1.7974,1.707,1.614,1.5128,1.4207,1.3244,1.2305,1.2305,1.2305,1.2305,1.2305,1.2305,1.2305,1.2305,1.2305,1.2305,1.2305,1.2305,1.2305,1.2305,1.2305,1.2305,2.9792,2.9792,2.9792,2.9792,2.9792,2.9792,2.9792,2.9792,2.9792,2.9792,2.9792,2.9792,2.9792,2.9792,2.9462,2.8717,2.863,2.8408,2.7853,2.7829,2.7668,2.7318,2.7281,2.7065,2.6499,2.6499,2.6499,2.6499,2.6499,2.6499,2.6499,2.6499,2.6499,2.6499,2.6129,2.6164,2.6499,2.6129,2.6198,2.6302,2.4325,2.311,2.2414,2.1451,2.0895,2.0605,2.0605,2.0283,0.0,2.1105,2.1348,2.1383,2.2375,2.2884,2.3108,2.3108,2.3108,2.3108,0.0,0.0,2.3108,2.3108,0.0,2.3108,2.3108,2.3108,2.3108,2.3108,2.3108,2.3108,2.3108,2.3108,2.3045,2.2857,2.2518,2.2058,0.0,2.0564,2.0162,2.0351,1.9958,1.9776,2.0017,1.9863,0.0,1.8805,1.9098,1.8911,1.8042,1.8008,1.8008,1.8008,1.8008,1.8008,1.8008,1.7681,1.6759,1.5199,1.4843,1.3846,1.2305,1.2305,1.2305,1.2305,1.2305,1.2305,1.2305,1.2305,1.2305,1.2305,1.2305,1.2305,1.2305,1.2305,1.2305,1.2305,2.9792,2.9792,2.9792,2.9792,2.9792,2.9792,2.9792,2.9792,2.9792,2.9792,2.9792,2.9716,2.9503,2.9478,2.9252,2.8687,2.8637,2.8398,2.7846,2.7808,2.757,2.7052,2.7027,2.6851,2.6499,2.6499,2.6499,2.6499,2.6499,2.6499,2.6499,2.6499,2.6499,2.6499,2.6499,2.6499,2.6499,2.6499,2.6499,2.6302,2.4325,2.3294,2.2776,2.1193,2.0828,2.1039,0.0,2.0233,1.9861,2.1041,2.1238,2.119,2.2327,2.2884,2.3108,2.3108,2.3108,2.3108,2.3108,2.3108,0.0,2.3108,2.3108,0.0,2.3108,0.0,2.3108,2.3108,2.3108,2.3108,2.3108,2.3108,2.3108,2.3108,2.2644,2.2046,0.0,2.0564,2.0037,1.9823,1.9652,1.9705,2.0155,2.0164,1.9761,1.8848,1.92,1.9032,1.8066,1.8008,1.8008,1.8008,1.8008,1.8008,1.8008,1.8008,1.7044,1.5199,1.5199,1.4343,1.2806,1.2445,1.2482,1.2769,1.2445,1.2305,1.2305,1.2305,1.2305,1.2305,1.2305,1.2305,1.2305,1.2305,1.2305,1.2305,2.9716,2.9716,2.9716,2.9716,2.9754,2.9792,2.9792,2.9767,2.9754,2.9754,2.9729,2.9503,2.8913,2.885,2.8624,2.8109,2.8059,2.7833,2.7316,2.7278,2.704,2.6512,2.6499,2.6499,2.6499,2.6499,2.6499,2.6499,2.6499,2.6499,2.6499,2.6499,2.6499,2.6499,2.6499,2.6499,2.6499,2.6499,2.6499,2.6349,2.4361,2.2999,2.2038,2.1039,2.126,2.1952,2.0952,2.0028,1.9495,2.0333,2.0647,2.0814,2.169,2.2476,2.3108,2.3108,2.3108,2.3108,2.3108,2.3108,2.3108,2.3108,2.3108,0.0,0.0,0.0,2.3108,0.0,0.0,0.0,2.3108,2.3108,2.3108,2.3108,2.2644,2.1945,2.0918,2.0729,2.049,1.9911,1.9849,1.9934,2.0175,2.0487,2.0292,1.9359,1.9584,1.9222,1.8046,1.8042,1.8042,1.8008,1.8008,1.8008,1.8008,1.8008,1.7079,1.5269,1.5269,1.4736,1.3745,1.2806,1.2842,1.3637,1.2703,1.2305,1.2305,1.2305,1.2305,1.2305,1.2305,1.2305,1.2305,1.2305,1.2305,1.2305,2.8612,2.8536,2.8536,2.8536,2.9239,2.9792,2.9792,2.9428,2.9113,2.9113,2.8787,2.8486,2.8335,2.8323,2.8097,2.7544,2.7494,2.7291,2.6738,2.6713,2.6637,2.6499,2.6499,2.6499,2.6499,2.6499,2.6499,2.6499,2.6499,2.6499,2.6499,2.6499,2.6499,2.6499,2.6499,2.6499,2.6499,2.6499,2.6499,2.6383,2.5111,2.4445,2.4036,2.2291,2.2253,2.2844,2.081,2.0162,2.0348,2.0874,2.1291,2.1721,2.2537,2.2944,2.3108,2.3108,2.3108,2.3108,2.3108,2.3108,2.3108,2.3108,2.3108,2.3108,0.0,0.0,0.0,0.0,0.0,0.0,0.0,2.3108,2.3108,2.3108,2.2644,2.2209,2.1933,2.1207,2.0641,2.049,2.0465,2.0323,1.9934,2.0171,1.9959,1.9083,1.9854,1.9684,1.8066,1.862,1.8654,1.8008,1.8008,1.8008,1.8008,1.8008,1.7398,1.6245,1.6245,1.572,1.4772,1.3774,1.3455,1.3637,1.2703,1.2305,1.2305,1.2305,1.2305,1.2305,1.2305,1.2305,1.2305,1.2305,1.2305,1.2305,2.8233,2.8109,2.8109,2.8109,2.8624,2.9063,2.9063,2.8787,2.8612,2.8863,2.8411,2.8109,2.8109,2.7896,2.7519,2.7002,2.6952,2.6826,2.6512,2.6499,2.6499,2.6499,2.6499,2.6499,2.6499,2.6499,2.6499,2.6499,2.6499,2.6499,2.6499,2.6499,2.6499,2.6499,2.6499,2.6499,2.6499,2.6499,2.6499,2.6418,2.5406,2.5004,0.0,2.3257,2.2867,2.2953,2.139,2.098,2.1279,2.1642,2.1836,2.2032,2.2854,2.3108,2.3108,2.3108,2.2854,2.2641,2.3005,2.2854,2.2659,2.3017,2.3108,2.3108,2.3108,2.3108,2.3108,0.0,2.3108,2.3108,0.0,0.0,2.3108,2.3108,2.2844,2.2556,2.2347,2.1782,2.1292,2.1081,2.0842,2.0666,2.0539,2.0665,2.035,1.9342,2.0188,2.0133,1.8643,1.9044,1.8888,1.8042,1.8008,1.8008,1.8008,1.8008,1.7535,1.6602,1.6602,1.6315,1.579,1.4807,1.4343,1.4314,1.3346,1.2666,1.2305,1.2305,1.2305,1.2305,1.2305,1.2305,1.2305,1.2305,1.2305,1.2305,2.8375,2.8124,2.8064,2.8064,2.7956,2.7896,2.7896,2.7946,2.8172,2.8612,2.8235,2.7921,2.7996,2.757,2.7128,2.665,2.66,2.6562,2.6499,2.6499,2.6499,2.6499,2.6499,2.6499,2.6499,2.6499,2.6499,2.6499,2.6499,2.6499,2.6499,2.6499,2.6499,2.6499,2.6499,2.6499,2.6499,2.6499,2.6499,2.6418,2.5558,2.5123,2.4886,2.3967,2.33,2.2814,2.2285,2.2083,2.2105,2.2341,2.2246,2.2199,2.2884,2.3108,2.3108,2.3108,2.2598,2.2199,2.2914,2.2598,2.223,2.2914,2.3108,2.3108,2.3108,2.3108,2.3108,2.3108,2.3108,2.3108,2.3108,2.3108,2.3078,2.2944,2.3035,2.2872,2.2179,2.2214,2.2076,2.1503,2.1112,0.0,2.1443,2.1493,2.1055,1.9949,2.0754,2.068,1.9377,1.9398,1.9011,1.8042,1.8008,1.8008,1.8008,1.8008,1.7579,1.6775,1.6775,1.6775,1.674,1.5799,1.5376,1.5305,1.4207,1.3244,1.2482,1.2342,1.2305,1.2298,1.2445,1.2409,1.2305,1.2305,1.2278,1.2245,2.8964,2.8259,2.7785,2.7785,2.7233,2.6788,2.6788,2.7165,2.7457,2.7557,2.7128,2.6952,2.7369,2.7379,2.7278,2.719,2.7165,2.6977,2.6524,2.6499,2.6499,2.6499,2.6499,2.6499,2.6499,2.6499,2.6499,2.6499,2.6499,2.6499,2.6499,2.6499,2.6499,2.6499,2.6499,2.6499,2.6499,2.6499,2.6499,2.6487,2.6314,2.5734,2.4921,2.4307,2.4026,2.3814,2.2784,2.24,2.2362,2.2092,2.2395,2.2914,2.3078,2.3108,2.3108,2.3108,2.3005,2.2914,2.3078,2.3017,2.2914,2.3078,2.3108,2.3108,2.3108,2.3108,2.3108,2.3108,2.3108,2.3108,2.3108,0.0,2.2884,2.223,2.2659,2.2592,2.1112,2.1699,2.1997,2.1187,2.1642,2.1882,2.1518,2.1493,2.1297,2.0811,2.2,2.1727,1.942,0.0,1.965,0.0,1.8008,1.8008,0.0,0.0,1.7906,1.7759,1.7759,1.7759,1.7716,1.6784,1.6349,1.6245,1.4486,1.36,1.3382,1.2629,1.2305,1.2378,1.3164,1.2989,1.2305,1.2305,1.2151,1.198,2.9058,2.8298,2.7703,2.7703,2.704,2.6499,2.6499,2.6713,2.6989,2.7278,2.709,2.7128,2.7657,2.7708,2.7595,2.7306,2.7281,2.709,2.6524,2.6499,2.6499,2.6499,2.6499,2.6499,2.6499,2.6499,2.6499,2.6499,2.6499,2.6499,2.6499,2.6499,2.6499,2.6499,2.6499,2.6499,2.6499,2.6499,2.6499,2.6461,2.6172,2.5763,2.5245,2.4719,2.4352,2.4034,2.3477,2.3067,2.2774,2.2592,2.2793,2.3108,2.3108,2.3108,2.3005,2.2598,2.2476,2.2476,2.2476,2.2476,2.2567,2.3017,2.3108,2.3108,2.3108,2.3108,2.3108,2.3108,2.3108,2.3108,2.3108,2.3108,0.0,0.0,0.0,2.2187,2.1396,2.1756,2.2085,2.2103,2.2208,2.2322,2.2334,2.2083,2.1836,2.1704,2.2573,2.2175,2.0074,0.0,1.9814,0.0,0.0,0.0,1.8008,0.0,1.8008,1.8008,1.8008,1.8008,1.7974,1.7535,1.707,1.6567,1.5614,1.4942,1.445,1.3991,1.381,1.381,1.3745,1.3419,1.2967,1.2313,1.2027,1.1906,2.9317,2.8556,2.792,2.7736,2.704,2.6499,2.6499,2.6499,2.665,2.709,2.7241,2.7494,2.8047,2.8109,2.7934,2.7494,2.7392,2.709,2.6524,2.6499,2.6499,2.6499,2.6499,2.6499,2.6499,2.6499,2.6499,2.6499,2.6499,2.6436,2.6311,2.6436,2.6499,2.6499,2.6499,2.6499,2.6499,0.0,2.6424,2.6273,2.5774,2.5523,2.5372,2.4845,2.4381,2.3979,2.3853,2.3496,2.3108,2.3108,2.3108,2.3108,2.3108,2.3108,2.2975,2.2353,2.2168,2.2168,2.2168,2.2168,2.2261,2.2732,2.2975,2.3078,2.2884,2.2975,2.3108,2.3108,2.3108,2.3108,2.3108,2.3108,0.0,0.0,0.0,0.0,2.1647,2.1784,2.2125,2.2763,2.263,2.2572,2.2816,2.2618,2.2397,2.2238,2.2605,2.2187,2.0687,0.0,0.0,0.0,0.0,1.8202,1.8008,0.0,1.8008,1.8008,1.8008,1.8008,1.8008,1.8008,1.7613,1.6888,1.6706,1.6079,1.5234,1.5411,1.5376,1.5128,1.4557,1.4017,1.3503,1.255,1.2002,1.1718,3.0329,2.9473,2.862,2.7835,2.704,2.6499,2.6499,2.6499,2.6512,2.6562,2.7002,2.7494,2.8047,2.8109,2.8084,2.8034,2.757,2.709,2.6524,2.6499,2.6499,2.6499,2.6499,2.6499,2.6499,2.6499,2.6499,2.6499,2.6499,2.6223,2.5686,2.6248,2.6499,2.6499,2.6499,0.0,0.0,2.6499,2.6185,2.5674,2.5624,2.531,2.4833,2.4293,2.4042,2.3929,2.3371,2.3145,2.3108,2.3108,2.3108,2.3108,2.3108,2.3108,2.3078,2.3017,2.2975,2.2975,2.2975,2.2975,2.2823,2.2199,2.2567,2.2914,2.2199,2.2567,2.3108,2.3108,2.3108,2.3108,2.3108,2.3108,2.2823,0.0,0.0,0.0,0.0,2.1396,2.1939,2.2002,2.2622,2.2774,2.2063,2.2622,2.2706,2.1992,2.1978,2.1585,2.0655,0.0,0.0,1.8076,1.8754,1.8787,1.8008,1.8008,1.8008,1.8008,1.8008,1.8008,1.8008,1.8008,1.794,1.7828,1.6957,1.6079,1.5269,1.6105,1.5974,1.5269,1.6035,1.5096,1.3304,1.3204,1.2272,1.1076,2.9566,2.8812,2.8117,2.7769,2.704,0.0,0.0,2.6499,2.6499,2.6499,2.6977,2.7369,2.7595,2.7908,2.7971,2.7645,2.7406,2.709,2.6524,2.6499,2.6499,2.6499,2.6499,2.6499,2.6499,2.6499,2.6499,2.6499,2.6499,2.6373,2.616,2.6386,2.6499,2.6499,0.0,2.6298,2.5971,2.5971,2.5624,2.5096,2.477,2.4519,2.4268,2.3672,2.3446,2.3421,2.3195,2.3108,2.3108,2.3108,2.3108,2.3108,2.3108,2.3108,2.3017,2.2506,2.272,2.2975,2.2506,2.2732,2.3005,2.2702,2.2854,2.3005,2.2689,2.2884,2.3108,2.3108,2.3108,2.2944,2.2476,2.2384,2.1939,2.0558,0.0,0.0,0.0,2.1365,2.2075,2.2567,2.2476,2.2249,2.1939,2.2187,2.2261,2.1908,2.2353,2.2249,0.0,0.0,0.0,1.8821,0.0,1.8337,1.8008,1.8008,1.8008,1.8008,1.8008,1.8008,1.8008,1.8008,1.8008,1.7974,1.7613,1.7226,1.6906,1.7295,1.7217,1.6872,1.6671,1.5903,1.4722,1.3514,1.2509,1.1628,2.9066,0.0,2.7637,0.0,2.6871,2.6499,2.6499,2.6499,2.6499,2.6499,2.6839,2.714,2.7268,2.7632,2.7708,2.7318,2.7165,2.6914,2.6512,2.6499,2.6499,2.6499,2.6499,2.6499,2.6499,2.6499,2.6499,2.6499,2.6499,2.6411,2.6248,0.0,0.0,0.0,2.6311,2.6009,2.5586,2.5435,2.5071,2.4544,2.4155,2.3891,2.3703,2.3258,2.3108,2.3108,2.3108,2.3108,2.3108,2.3108,2.3108,2.3108,2.3108,2.3108,2.2975,2.2414,2.2659,2.2975,2.2414,2.2659,2.3035,2.2823,2.2914,2.3047,2.2793,2.2914,2.3108,2.3108,2.3108,2.2914,2.2353,2.2063,2.1491,2.0268,0.0,0.0,0.0,2.1522,2.2199,2.3005,2.261,2.2063,2.1553,2.1753,2.169,2.1164,0.0,0.0,0.0,0.0,0.0,0.0,0.0,0.0,1.8008,1.8008,1.8008,1.8008,1.8008,1.8008,1.8008,1.8008,1.8008,1.8008,1.8008,1.8008,1.8008,1.8008,1.8008,1.793,1.7154,1.6398,1.5548,1.3768,1.2668,1.1951,2.916,2.8298,2.7451,2.6658,2.6499,2.6499,2.6499,2.6499,2.6499,2.6499,2.6499,2.6713,2.7218,2.7329,2.7329,2.7281,2.6813,2.6499,2.6499,2.6499,2.6499,0.0,2.6499,2.6499,2.6499,2.6499,2.6499,2.6499,0.0,0.0,2.5598,0.0,2.5912,2.6461,2.5862,2.5598,2.5561,2.5046,2.4506,2.4004,2.4004,2.3653,2.3108,2.3108,2.3108,2.3108,2.3108,2.3108,2.3108,2.3108,2.3108,2.3108,2.3108,2.3108,2.3108,2.3078,2.3078,2.3108,2.3078,2.3078,2.2914,2.2094,2.2506,2.2884,2.2094,2.2537,2.3108,2.3108,2.3108,2.3108,2.3078,2.2445,2.1877,2.1877,0.0,0.0,0.0,2.1877,2.2199,2.3005,2.3078,2.2433,2.0782,2.1396,2.1207,1.9464,0.0,0.0,0.0,0.0,0.0,1.8076,1.8854,0.0,1.8008,1.8008,1.8008,1.8008,1.8008,1.8008,1.8008,1.8008,1.8008,1.8008,1.8008,1.8008,1.8008,1.8008,1.8008,1.7969,1.7549,1.6603,1.534,1.406,1.2837,1.1686,2.9066,2.8298,2.7604,2.7351,2.685,2.6499,2.6499,2.6499,2.6499,2.6499,2.6499,2.6562,2.6738,2.6751,2.6751,0.0,2.66,2.6499,0.0,2.6499,2.6499,2.6499,2.6499,2.6499,2.6499,2.6499,2.6499,2.6499,0.0,0.0,0.0,2.5774,2.5686,2.585,2.531,2.4858,2.4494,2.433,2.3929,2.3384,2.3384,2.3271,2.3108,2.3108,2.3108,2.3108,2.3108,2.3108,2.3108,2.3108,2.3108,2.3108,2.3108,2.3108,2.3108,2.3108,2.3108,2.3108,2.3108,2.3108,2.3047,2.2793,2.2914,2.3035,2.2793,2.2914,2.3108,2.3108,2.3108,2.2914,2.2384,2.1585,2.0814,2.0236,1.9879,0.0,2.0878,0.0,2.2199,2.3005,2.2628,2.1846,2.0719,2.0846,0.0,0.0,0.0,0.0,0.0,0.0,0.0,0.0,1.8596,0.0,1.8008,1.8008,1.8008,1.8008,1.8008,1.8008,1.8008,1.8008,1.8008,1.8008,1.8008,1.8008,1.8008,1.8008,1.8008,1.7969,1.7549,1.698,1.6113,1.4282,1.3181,1.2512,2.9473,2.878,2.8182,2.8182,2.7517,2.6939,2.6939,2.6679,2.6499,2.6499,2.6499,2.6499,2.6499,2.6499,0.0,2.6499,2.6499,2.6499,2.6499,2.6499,2.6499,2.6499,2.6499,2.6499,2.6499,2.6499,0.0,2.6499,2.6273,2.6172,2.616,2.5561,2.531,2.5285,2.4745,2.4318,2.3979,2.3766,2.3434,2.3108,2.3108,2.3108,2.3108,2.3108,2.3108,2.3108,2.3108,2.3108,2.3108,2.3108,2.3108,2.3108,2.3108,2.3108,2.3108,2.3108,2.3108,2.3108,2.3108,2.3108,2.3108,2.3108,2.3108,2.3108,2.3108,2.3108,2.3108,2.3108,2.3108,2.2854,2.2032,2.1207,2.0301,1.9431,1.9299,1.9595,2.0494,0.0,2.2199,2.3005,2.2384,2.1565,0.0,2.0301,1.9977,0.0,0.0,0.0,0.0,0.0,1.9497,1.8811,1.8269,1.8008,1.8008,1.8008,1.8008,1.8008,1.8008,1.8008,1.8008,1.8008,1.8008,1.8008,1.8008,1.8008,1.8008,1.8008,1.792,1.7734,1.7305,1.6875,1.623,1.4138,1.3229,1.2887,3.0389,2.969,2.9097,0.0,2.8363,2.7769,2.7703,2.7074,2.6555,2.6499,2.6499,2.6499,2.6499,2.6499,2.6499,2.6499,0.0,0.0,2.6499,2.6499,2.6499,2.6499,2.6499,2.6499,2.6499,2.6499,2.6474,2.6436,2.5858,2.5536,2.5523,2.5008,2.4725,2.4713,2.4192,2.3941,2.3904,2.3333,2.3108,2.3108,2.3108,2.3108,2.3108,2.3108,2.3108,2.3108,2.3108,2.3108,2.3108,2.3108,2.3108,2.3108,2.3108,2.3108,2.3108,2.3108,2.3108,2.3108,2.3108,2.3108,2.3108,2.3108,2.3108,2.3108,2.3108,2.3108,2.3108,2.3108,2.3108,2.2884,2.2125,2.1227,2.0333,1.9529,1.9299,1.9529,2.0462,2.1302,2.2094,2.2914,0.0,0.0,2.059,1.9792,1.8944,0.0,0.0,0.0,0.0,0.0,1.9759,1.8042,1.8008,1.8008,1.8008,1.8008,1.8008,1.8008,1.8008,1.8008,1.8008,1.8008,1.8008,1.8008,1.8008,1.8008,1.8008,1.8008,1.7764,1.7344,1.6872,1.6455,1.5845,1.3844,1.307,1.2978,0.0,0.0,2.9981,2.9981,2.9286,2.846,2.7802,2.7537,2.7196,2.6589,2.6499,2.6499,2.6499,2.6499,2.6499,2.6499,2.6499,2.6499,2.6499,2.6499,2.6499,2.6499,2.6499,2.6499,2.6499,2.6499,2.6273,2.5799,2.5272,2.5008,2.4996,2.4443,2.4192,2.4167,2.3572,2.3308,2.3296,2.3158,2.3108,2.3108,2.3108,2.3108,2.3108,2.3108,2.3108,2.3108,2.3108,2.3108,2.3108,2.3108,2.3108,2.3108,2.3108,2.3108,2.3108,2.3108,2.3108,2.3108,2.3108,2.3108,2.3108,2.3108,2.3108,2.3108,2.3108,2.3108,2.3108,2.3108,2.3108,2.3035,2.2854,2.1604,2.0526,2.0333,1.9177,1.8854,2.0365,2.0782,2.1227,0.0,2.2002,2.1302,1.9748,1.9431,1.9199,0.0,0.0,1.8977,1.8977,1.9365,1.911,1.8042,1.8008,1.8008,1.8008,1.8008,1.8008,1.8008,1.8008,1.8008,1.8008,1.8008,1.8008,1.8008,1.8008,1.8008,1.8008,1.8008,1.7764,1.7344,1.6872,1.6455,1.5915,1.4448,1.3906,1.3786,3.1511,3.1161,3.0837,3.0837,3.0133,2.9286,2.8427,2.7953,2.7417,2.6624,2.6499,2.6499,2.6499,2.6499,2.6499,2.6499,2.6499,2.6499,2.6499,2.6499,2.6499,2.6499,2.6499,2.6373,2.6097,2.6097,2.5799,2.5247,2.4707,2.4443,2.4431,2.3835,2.3602,2.3559,2.3246,2.3108,2.3108,2.3108,2.3108,2.3108,2.3108,2.3108,2.3108,2.3108,2.3108,2.3108,2.3108,2.3108,2.3108,2.3108,2.3108,2.3108,2.3108,2.3108,2.3108,2.3108,2.3108,2.3108,2.3108,2.3108,2.3108,2.3108,2.3108,2.3108,2.3108,2.3108,2.3108,2.3108,2.3108,2.2884,2.2082,2.1195,2.0333,1.9529,1.862,1.863,2.0365,2.0268,2.0462,2.1753,2.1207,2.0333,1.9398,1.8944,1.8721,1.8721,1.8721,0.0,1.8721,1.8721,1.8496,1.8008,1.8008,1.8008,1.8008,1.8008,1.8008,1.8008,1.8008,1.8008,1.8008,1.8008,1.8008,1.8008,1.8008,1.8008,1.7998,1.7803,1.7471,1.7041,1.6602,1.6152,1.5643,1.4593,1.4213,1.4145,3.1511,3.1511,3.1511,3.1511,3.094,3.0208,2.9317,2.8556,2.7769,2.6816,2.6692,2.6624,2.6499,2.6499,2.6499,2.6499,2.6499,2.6499,2.6499,2.6499,2.6499,2.6499,2.6411,2.6135,2.5598,2.5435,2.5134,2.4662,2.4142,2.3866,2.3853,2.3333,2.3108,2.3108,2.3108,2.3108,2.3108,2.3108,2.3108,2.3108,2.3108,2.3108,2.3108,2.3108,2.3108,2.3108,2.3108,2.3108,2.3108,2.3108,2.3108,2.3108,2.3108,2.3108,2.3108,2.3108,2.3108,2.3108,2.3108,2.3108,2.3108,2.3108,2.3108,2.3108,2.3108,2.3108,2.3108,2.3108,2.3108,2.2659,2.1227,2.0782,2.0171,1.8821,1.8269,1.863,2.0365,0.0,1.9846,2.1333,2.0204,1.9243,1.911,1.8428,1.8008,1.8008,1.8008,1.8008,1.8008,1.8008,1.8008,1.8008,1.8008,1.8008,1.8008,1.8008,1.8008,1.8008,1.8008,1.8008,1.8008,1.8008,1.8008,1.8008,1.8008,1.7978,1.7891,1.7529,1.709,1.6592,1.6242,1.5791,1.5323,1.4628,1.4392,1.4362,3.1511,3.1511,3.1511,3.1511,3.1409,3.1029,3.0238,2.9981,2.9317,2.7736,2.7517,2.7263,2.6555,2.6499,2.6499,2.6499,2.6499,2.6499,2.6499,2.6499,2.6499,2.6499,2.6021,2.5686,2.5598,2.4707,2.4205,2.413,2.3521,2.3246,2.3233,2.3145,2.3108,2.3108,2.3108,2.3108,2.3108,2.3108,2.3108,2.3108,2.3108,2.3108,2.3108,2.3108,2.3108,2.3108,2.3108,2.3108,2.3108,2.3108,2.3108,2.3108,2.3108,2.3108,2.3108,2.3108,2.3108,2.3108,2.3108,2.3108,2.3108,2.3108,2.3108,2.3108,2.3108,2.3108,2.3108,2.3108,2.3108,2.3005,2.275,2.1542,2.0751,2.1239,1.9431,1.863,2.0365,0.0,1.9398,1.965,1.9464,1.9011,1.8269,1.8076,1.8008,1.8008,1.8008,1.8008,1.8008,1.8008,1.8008,1.8008,1.8008,1.8008,1.8008,1.8008,1.8008,1.8008,1.8008,1.8008,1.8008,1.8008,1.8008,1.8008,1.8008,1.7812,1.7471,1.7445,1.6936,1.6193,1.6124,1.5791,1.5381,1.5264,1.5196,1.5108,3.1511,3.1511,3.1511,3.1511,3.1511,3.1219,3.0419,3.0299,2.9659,2.792,2.7703,2.7384,2.6589,2.6499,2.6499,2.6499,2.6499,2.6499,2.6499,2.6499,2.6499,2.6499,2.59,2.5322,2.4745,2.3941,2.354,2.354,2.3233,2.3108,2.3108,2.3108,2.3108,2.3108,2.3108,2.3108,2.3108,2.3108,2.3108,2.3108,2.3108,2.3108,2.3108,2.3108,2.3108,2.3108,2.3108,2.3108,2.3108,2.3108,2.3108,2.3108,2.3108,2.3108,2.3108,2.3108,2.3108,2.3108,2.3108,2.3108,2.3108,2.3108,2.3108,2.3108,2.3108,2.3108,2.3108,2.3108,2.2763,2.231,2.1834,2.0751,1.9879,1.9824,1.8787,1.8428,1.9726,1.9144,1.8787,1.9233,1.8888,1.8428,1.8042,1.8008,1.8008,1.8008,1.8008,1.8008,1.8008,1.8008,1.8008,1.8008,1.8008,1.8008,1.8008,1.8008,1.8008,1.8008,1.8008,1.8008,1.8008,1.8008,1.8008,1.7998,1.7773,1.7559,1.7344,1.6897,1.6457,1.6065,1.5831,1.5586,1.541,1.541,1.541,1.5352,3.1511,3.1511,3.1511,3.1511,3.1511,3.1278,3.0673,3.0419,2.9766,2.8214,2.7835,2.7384,2.6589,2.6499,2.6499,2.6499,2.6499,2.6499,2.6499,2.6499,2.6436,2.6298,2.5598,2.4782,2.3816,2.3333,2.3108,2.3108,2.3108,2.3108,2.3108,2.3108,2.3108,2.3108,2.3108,2.3108,2.3108,2.3108,2.3108,2.3108,2.3108,2.3108,2.3108,2.3108,2.3108,2.3108,2.3108,2.3108,2.3108,2.3108,2.3108,2.3108,2.3108,2.3108,2.3108,2.3108,2.3108,2.3108,2.3108,2.3108,2.3108,2.3108,2.3108,2.3108,2.3108,2.3108,2.3108,2.3108,2.2445,2.169,2.1049,2.0009,1.9144,1.8687,0.0,1.8303,1.9177,1.8563,1.8236,1.8911,1.8395,1.8008,1.8008,1.8008,1.8008,1.8008,1.8008,1.8008,1.8008,1.8008,1.8008,1.8008,1.8008,1.8008,1.8008,1.8008,1.8008,1.8008,1.8008,1.8008,1.8008,1.8008,1.7959,1.7842,1.7529,1.7298,1.7054,1.6378,1.6036,1.5909,1.5537,1.541,1.541,1.541,1.541,1.541,3.1511,3.1511,3.1511,3.1511,3.1511,3.1467,3.1409,3.0777,2.995,2.9034,2.8214,2.7384,2.6589,2.6499,2.6499,2.6499,2.6499,2.6499,2.6499,2.6499,2.6248,2.5686,2.4669,2.3828,2.3183,2.3133,2.3108,2.3108,2.3108,2.3108,2.3108,2.3108,2.3108,2.3108,2.3108,2.3108,2.3108,2.3108,2.3108,2.3108,2.3108,2.3108,2.3108,2.3108,2.3108,2.3108,2.3108,2.3108,2.3108,2.3108,2.3108,2.3108,2.3108,2.3108,2.3108,2.3108,2.3108,2.3108,2.3108,2.3108,2.3108,2.3108,2.3108,2.3108,2.3108,2.3108,2.3108,2.3108,2.2445,2.1877,2.1815,2.043,1.9529,2.0301,0.0,0.0,1.9177,1.8563,1.8008,1.8076,1.8042,1.8008,1.8008,1.8008,1.8008,1.8008,1.8008,1.8008,1.8008,1.8008,1.8008,1.8008,1.8008,1.8008,1.8008,1.8008,1.8008,1.8008,1.8008,1.8008,1.8008,1.8008,1.7803,1.7432,1.7393,1.6946,1.6183,1.6124,1.585,1.5459,1.542,1.541,1.541,1.541,1.541,1.541,3.1511,3.1511,3.1511,3.1511,3.1511,3.1511,3.1511,3.1248,3.0554,2.9192,2.8716,2.7986,2.6658,2.6499,2.6499,2.6499,2.6499,2.6499,2.6499,2.616,2.5686,2.5146,2.4393,2.3728,2.3108,2.3108,2.3108,2.3108,2.3108,2.3108,2.3108,2.3108,2.3108,2.3108,2.3108,2.3108,2.3108,2.3108,2.3108,2.3108,2.3108,2.3108,2.3108,2.3108,2.3108,2.3108,2.3108,2.3108,2.3108,2.3108,2.3108,2.3108,2.3108,2.3108,2.3108,2.3108,2.3108,2.3108,2.3108,2.3108,2.3108,2.3108,2.3108,2.3108,2.3108,2.3108,2.3108,2.3108,2.2021,2.1101,2.1101,1.965,1.8586,1.8944,0.0,1.811,1.8462,1.8202,1.8008,1.8008,1.8008,1.8008,1.8008,1.8008,1.8008,1.8008,1.8008,1.8008,1.8008,1.8008,1.8008,1.8008,1.8008,1.8008,1.8008,1.8008,1.8008,1.8008,1.8008,1.8008,1.7998,1.7744,1.7529,1.7353,1.6838,1.6408,1.6075,1.5801,1.5557,1.541,1.541,1.541,1.541,1.541,1.541,1.541,3.1511,3.1511,3.1511,3.1511,3.1511,3.1511,3.1511,3.1278,3.0614,2.9192,2.8748,2.8051,2.6658,2.6499,2.6499,2.6499,2.6499,2.6499,2.6499,2.5762,2.5121,2.4582,2.4017,2.3509,2.3108,2.3108,2.3108,2.3108,2.3108,2.3108,2.3108,2.3108,2.3108,2.3108,2.3108,2.3108,2.3108,2.3108,2.3108,2.3108,2.3108,2.3108,2.3108,2.3108,2.3108,2.3108,2.3108,2.3108,2.3108,2.3108,2.3108,2.3108,2.3108,2.3108,2.3108,2.3108,2.3108,2.3108,2.3108,2.3108,2.3108,2.3108,2.3108,2.3108,2.3108,2.3108,2.3108,2.3108,2.199,2.1005,2.1005,1.9584,1.8395,1.8395,1.8178,1.8008,1.8008,1.8008,1.8008,1.8008,1.8008,1.8008,1.8008,1.8008,1.8008,1.8008,1.8008,1.8008,1.8008,1.8008,1.8008,1.8008,1.8008,1.8008,1.8008,1.8008,1.8008,1.8008,1.8008,1.7939,1.7803,1.7519,1.7269,1.6966,1.6359,1.6016,1.587,1.5537,1.541,1.541,1.541,1.541,1.541,1.541,1.541,1.541,3.1511,3.1511,3.1511,3.1511,3.1511,3.1511,3.1511,3.0807,2.9981,2.9097,2.8247,2.7384,2.6589,2.6499,2.6499,2.6499,2.6499,2.6499,2.6487,2.5423,2.4537,2.4017,2.3409,2.3108,2.3108,2.3108,2.3108,2.3108,2.3108,2.3108,2.3108,2.3108,2.3108,2.3108,2.3108,2.3108,2.3108,2.3108,2.3108,2.3108,2.3108,2.3108,2.3108,2.3108,2.3108,2.3108,2.3108,2.3108,2.3108,2.3108,2.3108,2.3108,2.3108,2.3108,2.3108,2.3108,2.3108,2.3108,2.3108,2.3108,2.3108,2.3108,2.3108,2.3108,2.3108,2.3108,2.3108,2.3108,2.2445,2.1908,2.1908,2.0462,1.9299,1.9299,1.8563,1.8008,1.8008,1.8008,1.8008,1.8008,1.8008,1.8008,1.8008,1.8008,1.8008,1.8008,1.8008,1.8008,1.8008,1.8008,1.8008,1.8008,1.8008,1.8008,1.8008,1.8008,1.8008,1.8008,1.8008,1.7793,1.7383,1.7373,1.6926,1.6095,1.6085,1.584,1.541,1.541,1.541,1.541,1.541,1.541,1.541,1.541,1.541,1.541,3.1511,3.1511,3.1511,3.1511,3.1511,3.1511,3.1511,3.0807,2.9981,2.9097,2.8247,2.7384,2.6589,2.6499,2.6499,2.6499,2.6499,2.6172,2.536,2.4644,2.3991,2.3384,2.3195,2.3108,2.3108,2.3108,2.3108,2.3108,2.3108,2.3108,2.3108,2.3108,2.3108,2.3108,2.3108,2.3108,2.3108,2.3108,2.3108,2.3108,2.3108,2.3108,2.3108,2.3108,2.3108,2.3108,2.3108,2.3108,2.3108,2.3108,2.3108,2.3108,2.3108,2.3108,2.3108,2.3108,2.3108,2.3108,2.3108,2.3108,2.3108,2.3108,2.3108,2.3108,2.3108,2.3108,2.3108,2.3108,2.2445,2.1908,2.1908,2.0462,1.9299,1.9299,1.8563,1.8008,1.8008,1.8008,1.8008,1.8008,1.8008,1.8008,1.8008,1.8008,1.8008,1.8008,1.8008,1.8008,1.8008,1.8008,1.8008,1.8008,1.8008,1.8008,1.8008,1.8008,1.8008,1.8008,1.7715,1.75,1.7396,1.677,1.6349,1.6075,1.5732,1.5527,1.541,1.541,1.541,1.541,1.541,1.541,1.541,1.541,1.541,1.541,3.1511,3.1511,3.1511,3.1511,3.1511,3.1511,3.1511,3.0807,2.9981,2.9097,2.8247,2.7384,2.6589,2.6499,2.6499,2.6499,2.6285,2.5649,2.4569,2.4192,2.374,2.3133,2.3108,2.3108,2.3108,2.3108,2.3108,2.3108,2.3108,2.3108,2.3108,2.3108,2.3108,2.3108,2.3108,2.3108,2.3108,2.3108,2.3108,2.3108,2.3108,2.3108,2.3108,2.3108,2.3108,2.3108,2.3108,2.3108,2.3108,2.3108,2.3108,2.3108,2.3108,2.3108,2.3108,2.3108,2.3108,2.3108,2.3108,2.3108,2.3108,2.3108,2.3108,2.3108,2.3108,2.3108,2.3108,2.3108,2.2689,2.2384,2.2384,2.1259,2.0204,1.989,1.9077,1.8395,1.8042,1.8303,1.8395,1.8042,1.8303,1.8371,1.8042,1.8008,1.8008,1.8008,1.8008,1.8008,1.8008,1.8008,1.8008,1.8008,1.8008,1.793,1.7764,1.7764,1.7764,1.7764,1.7334,1.7031,1.6877,1.6339,1.5997,1.5821,1.5527,1.541,1.541,1.541,1.541,1.541,1.541,1.541,1.541,1.541,1.541,1.541,3.1496,3.1511,3.1511,3.1511,3.1511,3.1511,3.1511,3.0748,2.9889,2.9097,2.8182,2.7317,2.6589,2.6499,2.6474,2.6424,2.5812,2.5034,2.4067,2.3954,2.369,2.3133,2.3108,2.3108,2.3108,2.3108,2.3108,2.3108,2.3108,2.3108,2.3108,2.3108,2.3108,2.3108,2.3108,2.3108,2.3108,2.3108,2.3108,2.3108,2.3108,2.3108,2.3108,2.3108,2.3108,2.3108,2.3108,2.3108,2.3108,2.3108,2.3108,2.3108,2.3108,2.3108,2.3108,2.3108,2.3108,2.3108,2.3108,2.3108,2.3108,2.3108,2.3108,2.3108,2.3108,2.3108,2.3108,2.3108,2.3108,2.3108,2.3108,2.2384,2.1522,2.0719,1.989,1.9011,1.811,1.8754,1.8977,1.811,1.8687,1.8888,1.8076,1.8008,1.8008,1.8008,1.8008,1.8008,1.8008,1.8008,1.8008,1.8008,1.7978,1.7773,1.7393,1.7337,1.7285,1.7314,1.6885,1.6455,1.6095,1.6056,1.5791,1.541,1.541,1.541,1.541,1.541,1.541,1.541,1.541,1.541,1.541,1.541,1.541,1.541,3.1406,3.1511,3.1511,3.1511,3.1511,3.1511,3.1511,3.0238,2.9223,2.9034,2.7703,2.6679,2.6521,2.6499,2.6311,2.5858,2.4908,2.4243,2.4017,2.3547,2.3233,2.3108,2.3108,2.3108,2.3108,2.3108,2.3108,2.3108,2.3108,2.3108,2.3108,2.3108,2.3108,2.3108,2.3108,2.3108,2.3108,2.3108,2.3108,2.3108,2.3108,2.3108,2.3108,2.3108,2.3108,2.3108,2.3108,2.3108,2.3108,2.3108,2.3108,2.3108,2.3108,2.3108,2.3108,2.3108,2.3108,2.3108,2.3108,2.3108,2.3108,2.3108,2.3108,2.3108,2.3108,2.3108,2.3108,2.3108,2.3108,2.3108,2.3108,2.1896,2.0814,2.0623,1.989,1.9011,1.811,1.8754,1.8977,1.811,1.8168,1.8202,1.8008,1.8008,1.8008,1.8008,1.8008,1.8008,1.8008,1.8008,1.8008,1.8008,1.7686,1.7471,1.7383,1.6721,1.6555,1.6833,1.6426,1.6183,1.6085,1.5703,1.5498,1.541,1.541,1.541,1.541,1.541,1.541,1.541,1.541,1.541,1.541,1.541,1.541,1.541,3.0883,3.1017,3.1122,3.1451,3.1511,3.138,3.0999,2.9827,2.8844,2.8427,2.7297,2.6386,2.6109,2.6084,2.5757,2.4908,2.4318,2.3879,2.3602,2.3271,2.3108,2.3108,2.3108,2.3108,2.3108,2.3108,2.3108,2.3108,2.3108,2.3108,2.3108,2.3108,2.3108,2.3108,2.3108,2.3108,2.3108,2.3108,2.3108,2.3108,2.3108,2.3108,2.3108,2.3108,2.3108,2.3108,2.3108,2.3108,2.3108,2.3108,2.3108,2.3108,2.3108,2.3108,2.3108,2.3108,2.3108,2.3108,2.3108,2.3108,2.3108,2.3108,2.3108,2.3108,2.3108,2.3108,2.3108,2.3108,2.3108,2.3108,2.3108,2.2372,2.1678,2.129,2.0494,1.9748,1.9299,1.9628,1.9759,1.9299,1.9233,1.8911,1.8076,1.8008,1.8008,1.8008,1.8008,1.8008,1.8008,1.8008,1.792,1.7715,1.75,1.721,1.6789,1.632,1.6105,1.6073,1.5869,1.5782,1.5772,1.5518,1.541,1.541,1.541,1.541,1.541,1.541,1.541,1.541,1.541,1.541,1.541,1.541,1.541,1.541,3.0223,3.0342,3.0522,3.1077,3.1182,3.0951,3.0294,2.9318,2.8433,2.7725,2.6778,2.6034,2.5523,2.5372,2.4971,2.4079,2.3916,2.364,2.3133,2.3108,2.3108,2.3108,2.3108,2.3108,2.3108,2.3108,2.3108,2.3108,2.3108,2.3108,2.3108,2.3108,2.3108,2.3108,2.3108,2.3108,2.3108,2.3108,2.3108,2.3108,2.3108,2.3108,2.3108,2.3108,2.3108,2.3108,2.3108,2.3108,2.3108,2.3108,2.3108,2.3108,2.3108,2.3108,2.3108,2.3108,2.3108,2.3108,2.3108,2.3108,2.3108,2.3108,2.3108,2.3108,2.3108,2.3108,2.3108,2.3108,2.3108,2.3108,2.3108,2.2975,2.2671,2.2002,2.1302,2.0782,2.0623,2.0719,2.0782,2.0623,2.0462,1.9824,1.8361,1.8076,1.8008,1.8008,1.8008,1.8008,1.8008,1.7939,1.7744,1.7393,1.7269,1.6838,1.6105,1.6016,1.5801,1.541,1.541,1.541,1.541,1.541,1.541,1.541,1.541,1.541,1.541,1.541,1.541,1.541,1.541,1.541,1.541,1.541,1.541,1.541,2.9606,2.9726,2.9756,2.9834,2.9849,2.9821,2.9697,2.8397,2.7382,2.7292,2.5944,2.5008,2.4933,2.4494,2.4155,2.4017,2.3509,2.3195,2.3108,2.3108,2.3108,2.3108,2.3108,2.3108,2.3108,2.3108,2.3108,2.3108,2.3108,2.3108,2.3108,2.3108,2.3108,2.3108,2.3108,2.3108,2.3108,2.3108,2.3108,2.3108,2.3108,2.3108,2.3108,2.3108,2.3108,2.3108,2.3108,2.3108,2.3108,2.3108,2.3108,2.3108,2.3108,2.3108,2.3108,2.3108,2.3108,2.3108,2.3108,2.3108,2.3108,2.3108,2.3108,2.3108,2.3108,2.3108,2.3108,2.3108,2.3108,2.3108,2.3108,2.2537,2.2032,2.1908,2.1815,2.1459,2.0719,2.1239,2.1428,2.0687,1.9944,1.9365,1.9144,1.8428,1.8008,1.8008,1.8008,1.8008,1.8008,1.7666,1.7474,1.7383,1.6672,1.6212,1.6095,1.5693,1.5469,1.541,1.541,1.541,1.541,1.541,1.541,1.541,1.541,1.541,1.541,1.541,1.541,1.541,1.541,1.541,1.541,1.541,1.541,1.541,2.8906,2.9026,2.9146,2.9547,2.9606,2.9305,2.8382,2.7678,2.6879,2.5977,2.5243,2.4675,2.4393,2.3853,2.3484,2.3484,2.3246,2.3108,2.3108,2.3108,2.3108,2.3108,2.3108,2.3108,2.3108,2.3108,2.3108,2.3108,2.3108,2.3108,2.3108,2.3108,2.3108,2.3108,2.3108,2.3108,2.3108,2.3108,2.3108,2.3108,2.3108,2.3108,2.3108,2.3108,2.3108,2.3108,2.3108,2.3108,2.3108,2.3108,2.3108,2.3108,2.3108,2.3108,2.3108,2.3108,2.3108,2.3108,2.3108,2.3108,2.3108,2.3108,2.3108,2.3108,2.3108,2.3108,2.3108,2.3108,2.3108,2.3108,2.3108,2.2823,2.2567,2.2567,2.2187,2.1908,2.199,2.1939,2.1753,2.1365,2.0974,2.0365,1.9398,1.8944,1.8529,1.8042,1.8008,1.791,1.7676,1.749,1.7385,1.7276,1.6505,1.6178,1.6312,1.5703,1.541,1.541,1.541,1.541,1.541,1.541,1.541,1.541,1.541,1.541,1.541,1.541,1.541,1.541,1.541,1.541,1.541,1.541,1.541,1.541]}]]